[[{"header":{"parameterUnit":"m.s-1","parameterCategory":1,"la1":31.0,"la2":29.5877,"lo1":-88.7671,"lo2":-86.6584,"dy":0.0162,"dx":0.0185,"nx":115,"ny":88,"refTime":"2025-11-06T12:00:00:Z","depth":0,"parameterNumber":2,"parameterNumberName":"U-component_of_WINDS"},"data":[0.0,0.0,0.0,0.0,0.0,0.0,0.0,0.0,0.0,0.0,0.0,0.0,0.0,0.0,0.0,0.0,0.0,0.0,0.0,0.0,0.0,0.0,0.0,0.0,0.0,0.0,0.0,0.0,0.0,0.0,0.0,0.0,0.0,0.0,0.0,0.0,0.0,0.0,0.0,0.0,0.0,0.0,0.0,0.0,0.0,0.0,0.0,0.0,0.0,0.0,0.0,0.0,0.0,0.0,0.0,0.0,0.0,0.0,0.0,0.0,0.0,0.0,0.0,0.0,0.0,0.0,0.0,0.0,0.0,0.0,0.0,0.0,0.0,0.0,0.0,0.0,0.0,0.0,0.0,0.0,0.0,0.0,0.0,0.0,0.0,0.0,0.0,0.0,0.0,0.0,0.0,0.0,0.0,0.0,0.0,0.0,0.0,0.0,0.0,0.0,0.0,0.0,0.0,0.0,0.0,0.0,0.0,0.0,0.0,0.0,0.0,0.0,0.0,0.0,0.0,0.0,0.0,0.0,0.0,0.0,0.0,0.0,0.0,0.0,0.0,0.0,0.0,0.0,0.0,0.0,0.0,0.0,0.0,0.0,0.0,0.0,0.0,0.0,0.0,0.0,0.0,0.0,0.0,0.0,0.0,0.0,0.0,0.0,0.0,0.0,0.0,0.0,0.0,0.0,0.0,0.0,0.0,0.0,0.0,0.0,0.0,0.0,0.0,0.0,0.0,0.0,0.0,0.0,0.0,0.0,0.0,0.0,0.0,0.0,0.0,0.0,0.0,0.0,0.0,0.0,0.0,0.0,0.0,0.0,0.0,0.0,0.0,0.0,0.0,0.0,0.0,0.0,0.0,0.0,0.0,0.0,0.0,0.0,0.0,0.0,0.0,0.0,0.0,0.0,0.0,0.0,0.0,0.0,0.0,0.0,0.0,0.0,0.0,0.0,0.0,0.0,0.0,0.0,0.0,0.0,0.0,0.0,0.0,0.0,0.0,0.0,0.0,0.0,0.0,0.0,0.0,0.0,0.0,0.0,0.0,0.0,0.0,0.0,0.0,0.0,0.0,0.0,0.0,0.0,0.0,0.0,0.0,0.0,0.0,0.0,0.0,0.0,0.0,0.0,0.0,0.0,0.0,0.0,0.0,0.0,0.0,0.0,0.0,0.0,0.0,0.0,0.0,0.0,0.0,0.0,0.0,0.0,0.0,0.0,0.0,0.0,0.0,0.0,0.0,0.0,0.0,0.0,0.0,0.0,0.0,0.0,0.0,0.0,0.0,0.0,0.0,0.0,0.0,0.0,0.0,0.0,0.0,0.0,0.0,0.0,0.0,0.0,0.0,0.0,0.0,0.0,0.0,0.0,0.0,0.0,0.0,0.0,0.0,0.0,0.0,0.0,0.0,0.0,0.0,0.0,0.0,0.0,0.0,0.0,0.0,0.0,0.0,0.0,0.0,0.0,0.0,0.0,0.0,0.0,0.0,0.0,0.0,0.0,0.0,0.0,0.0,0.0,0.0,0.0,0.0,0.0,0.0,0.0,0.0,0.0,0.0,0.0,0.0,0.0,0.0,0.0,0.0,0.0,0.0,0.0,0.0,0.0,0.0,0.0,0.0,0.0,0.0,0.0,0.0,0.0,0.0,0.0,0.0,0.0,0.0,0.0,0.0,0.0,0.0,0.0,0.0,0.0,0.0,0.0,0.0,0.0,0.0,0.0,0.0,0.0,0.0,0.0,0.0,0.0,0.0,0.0,0.0,0.0,0.0,0.0,0.0,0.0,0.0,0.0,0.0,0.0,0.0,0.0,0.0,0.0,0.0,0.0,0.0,0.0,0.0,0.0,0.0,0.0,0.0,0.0,0.0,0.0,0.0,0.0,0.0,0.0,0.0,0.0,0.0,0.0,0.0,0.0,0.0,0.0,0.0,0.0,0.0,0.0,0.0,0.0,0.0,0.0,0.0,0.0,0.0,0.0,0.0,0.0,0.0,0.0,0.0,0.0,0.0,0.0,0.0,0.0,0.0,0.0,0.0,0.0,0.0,0.0,0.0,0.0,0.0,0.0,0.0,0.0,0.0,0.0,0.0,0.0,0.0,0.0,0.0,0.0,0.0,0.0,0.0,0.0,0.0,0.0,0.0,0.0,0.0,0.0,0.0,0.0,0.0,0.0,0.0,0.0,0.0,0.0,0.0,0.0,0.0,0.0,0.0,0.0,0.0,0.0,0.0,0.0,0.0,0.0,0.0,0.0,0.0,0.0,0.0,0.0,0.0,0.0,0.0,0.0,0.0,0.0,0.0,0.0,0.0,0.0,0.0,0.0,0.0,0.0,0.0,0.0,0.0,0.0,0.0,0.0,0.0,0.0,0.0,0.0,0.0,0.0,0.0,0.0,0.0,0.0,0.0,0.0,0.0,0.0,0.0,0.0,0.0,0.0,0.0,0.0,0.0,0.0,0.0,0.0,0.0,0.0,0.0,0.0,0.0,0.0,0.0,0.0,0.0,0.0,0.0,0.0,0.0,0.0,0.0,0.0,0.0,0.0,0.0,0.0,0.0,0.0,0.0,0.0,0.0,0.0,0.0,0.0,0.0,0.0,0.0,0.0,0.0,0.0,0.0,0.0,0.0,0.0,0.0,0.0,0.0,0.0,0.0,0.0,0.0,0.0,0.0,0.0,0.0,0.0,0.0,0.0,0.0,0.0,0.0,0.0,0.0,0.0,0.0,0.0,0.0,0.0,0.0,0.0,0.0,0.0,0.0,0.0,0.0,0.0,0.0,0.0,0.0,0.0,0.0,0.0,0.0,0.0,0.0,0.0,0.0,0.0,0.0,0.0,0.0,0.0,0.0,0.0,0.0,0.0,0.0,0.0,0.0,0.0,0.0,0.0,0.0,0.0,0.0,0.0,0.0,0.0,0.0,0.0,0.0,0.0,0.0,0.0,0.0,0.0,0.0,0.0,0.0,0.0,0.0,0.0,0.0,0.0,0.0,0.0,0.0,0.0,0.0,0.0,0.0,0.0,0.0,0.0,0.0,0.0,0.0,0.0,0.0,0.0,0.0,0.0,0.0,0.0,0.0,0.0,0.0,0.0,0.0,0.0,0.0,0.0,0.0,0.0,0.0,0.0,0.0,0.0,0.0,0.0,0.0,0.0,0.0,0.0,0.0,0.0,0.0,0.0,0.0,0.0,0.0,0.0,0.0,0.0,0.0,0.0,0.0,0.0,0.0,0.0,0.0,0.0,0.0,0.0,0.0,0.0,0.0,0.0,0.0,0.0,0.0,0.0,0.0,0.0,0.0,0.0,0.0,0.0,0.0,0.0,0.0,0.0,0.0,0.0,0.0,0.0,0.0,0.0,0.0,0.0,0.0,0.0,0.0,0.0,0.0,0.0,0.0,0.0,0.0,0.0,0.0,0.0,0.0,0.0,0.0,0.0,0.0,0.0,0.0,0.0,0.0,0.0,0.0,0.0,0.0,0.0,0.0,0.0,0.0,0.0,0.0,0.0,0.0,0.0,0.0,0.0,0.0,0.0,0.0,0.0,0.0,0.0,0.0,0.0,0.0,0.0,0.0,0.0,0.0,0.0,0.0,0.0,0.0,0.0,0.0,0.0,0.0,0.0,0.0,0.0,0.0,0.0,0.0,0.0,0.0,0.0,0.0,0.0,0.0,0.0,0.0,0.0,0.0,0.0,0.0,0.0,0.0,0.0,0.0,0.0,0.0,0.0,0.0,0.0,0.0,0.0,0.0,0.0,0.0,0.0,0.0,0.0,0.0,0.0,0.0,0.0,0.0,0.0,0.0,0.0,0.0,0.0,0.0,0.0,0.0,0.0,0.0,0.0,0.0,0.0,0.0,0.0,0.0,0.0,0.0,0.0,0.0,0.0,0.0,0.0,0.0,0.0,0.0,0.0,0.0,0.0,0.0,0.0,0.0,0.0,0.0,0.0,0.0,0.0,0.0,0.0,0.0,0.0,0.0,0.0,0.0,0.0,0.0,0.0,0.0,0.0,0.0,0.0,0.0,0.0,0.0,0.0,0.0,0.0,0.0,0.0,0.0,0.0,0.0,0.0,0.0,0.0,0.0,0.0,0.0,0.0,0.0,0.0,0.0,0.0,0.0,0.0,0.0,0.0,0.0,0.0,0.0,0.0,0.0,0.0,0.0,0.0,0.0,0.0,0.0,0.0,0.0,0.0,0.0,0.0,0.0,0.0,0.0,0.0,0.0,0.0,0.0,0.0,0.0,0.0,0.0,0.0,0.0,0.0,0.0,0.0,-1.5286,0.0,0.0,0.0,0.0,0.0,0.0,0.0,0.0,0.0,0.0,0.0,0.0,0.0,0.0,0.0,0.0,0.0,0.0,0.0,0.0,0.0,0.0,0.0,0.0,0.0,0.0,0.0,0.0,0.0,0.0,0.0,0.0,0.0,0.0,0.0,0.0,0.0,0.0,0.0,0.0,0.0,0.0,0.0,0.0,0.0,0.0,0.0,0.0,0.0,0.0,0.0,0.0,0.0,0.0,0.0,0.0,0.0,0.0,0.0,0.0,0.0,0.0,0.0,0.0,0.0,0.0,0.0,0.0,0.0,0.0,0.0,0.0,0.0,0.0,0.0,0.0,0.0,0.0,0.0,0.0,0.0,0.0,0.0,0.0,0.0,0.0,0.0,0.0,0.0,0.0,0.0,0.0,0.0,0.0,0.0,0.0,0.0,0.0,0.0,0.0,0.0,0.0,0.0,0.0,0.0,0.0,0.0,0.0,0.0,0.0,-1.5286,-1.5286,-1.5286,-1.5286,-1.5286,0.0,0.0,0.0,0.0,0.0,0.0,0.0,0.0,0.0,0.0,0.0,0.0,0.0,0.0,0.0,0.0,0.0,0.0,0.0,0.0,0.0,0.0,0.0,0.0,0.0,0.0,0.0,0.0,0.0,0.0,0.0,0.0,0.0,0.0,0.0,0.0,0.0,0.0,0.0,0.0,0.0,0.0,0.0,0.0,0.0,0.0,0.0,0.0,0.0,0.0,0.0,0.0,0.0,0.0,0.0,0.0,0.0,0.0,0.0,0.0,0.0,0.0,0.0,0.0,0.0,0.0,0.0,0.0,0.0,0.0,0.0,0.0,0.0,0.0,0.0,0.0,0.0,0.0,0.0,0.0,0.0,0.0,0.0,0.0,0.0,0.0,0.0,0.0,0.0,0.0,0.0,0.0,0.0,0.0,0.0,0.0,0.0,0.0,0.0,0.0,0.0,0.0,0.0,0.0,0.0,0.0,0.0,0.0,0.0,0.0,0.0,0.0,-1.5865,-1.5865,-1.5865,0.0,0.0,0.0,0.0,0.0,0.0,0.0,0.0,0.0,0.0,0.0,0.0,0.0,0.0,0.0,0.0,0.0,0.0,0.0,0.0,0.0,0.0,0.0,0.0,0.0,0.0,0.0,0.0,0.0,0.0,0.0,0.0,0.0,0.0,0.0,0.0,0.0,0.0,0.0,0.0,0.0,0.0,0.0,0.0,0.0,0.0,0.0,0.0,0.0,0.0,0.0,0.0,0.0,0.0,0.0,0.0,0.0,0.0,0.0,0.0,0.0,0.0,0.0,0.0,0.0,0.0,0.0,0.0,0.0,0.0,0.0,0.0,0.0,0.0,0.0,0.0,0.0,0.0,0.0,0.0,0.0,0.0,0.0,0.0,0.0,0.0,0.0,0.0,0.0,0.0,0.0,0.0,0.0,0.0,0.0,0.0,0.0,0.0,0.0,0.0,0.0,0.0,0.0,0.0,0.0,0.0,0.0,0.0,0.0,0.0,-1.5964,-1.7523,-1.7545,0.0,-1.7584,0.0,0.0,0.0,0.0,0.0,0.0,0.0,0.0,0.0,0.0,0.0,0.0,0.0,0.0,0.0,0.0,0.0,0.0,0.0,0.0,0.0,0.0,0.0,0.0,0.0,0.0,0.0,0.0,0.0,0.0,0.0,0.0,0.0,0.0,0.0,0.0,0.0,0.0,0.0,0.0,0.0,0.0,0.0,0.0,0.0,0.0,0.0,0.0,0.0,0.0,0.0,0.0,0.0,0.0,0.0,0.0,0.0,0.0,0.0,0.0,0.0,0.0,0.0,0.0,0.0,0.0,0.0,0.0,0.0,0.0,0.0,0.0,0.0,0.0,0.0,0.0,0.0,0.0,0.0,0.0,0.0,0.0,0.0,0.0,0.0,0.0,0.0,0.0,0.0,0.0,0.0,0.0,0.0,0.0,0.0,0.0,0.0,0.0,0.0,0.0,0.0,0.0,0.0,0.0,0.0,0.0,0.0,0.0,0.0,0.0,-1.7044,-1.7774,-1.7349,-1.7081,0.0,0.0,0.0,0.0,0.0,0.0,0.0,0.0,0.0,0.0,0.0,0.0,0.0,0.0,0.0,0.0,0.0,0.0,0.0,0.0,0.0,0.0,0.0,0.0,0.0,0.0,0.0,0.0,0.0,0.0,0.0,0.0,0.0,0.0,0.0,0.0,0.0,0.0,0.0,0.0,0.0,0.0,0.0,0.0,0.0,0.0,0.0,0.0,0.0,0.0,0.0,0.0,0.0,0.0,0.0,0.0,0.0,0.0,0.0,0.0,0.0,0.0,0.0,0.0,0.0,0.0,0.0,0.0,0.0,0.0,0.0,0.0,0.0,0.0,0.0,0.0,0.0,0.0,0.0,0.0,0.0,0.0,0.0,0.0,0.0,0.0,0.0,0.0,0.0,0.0,0.0,0.0,0.0,0.0,0.0,0.0,0.0,0.0,0.0,0.0,0.0,0.0,0.0,0.0,0.0,0.0,0.0,0.0,0.0,0.0,-1.6962,-1.7584,-1.8098,-1.76,-1.6965,-1.6271,0.0,0.0,0.0,0.0,0.0,0.0,0.0,0.0,0.0,0.0,0.0,0.0,0.0,0.0,0.0,0.0,0.0,0.0,0.0,0.0,0.0,0.0,0.0,0.0,0.0,0.0,0.0,0.0,0.0,0.0,0.0,0.0,0.0,0.0,0.0,0.0,0.0,0.0,0.0,0.0,0.0,0.0,0.0,0.0,0.0,0.0,0.0,0.0,0.0,0.0,0.0,0.0,0.0,0.0,0.0,0.0,0.0,0.0,0.0,0.0,0.0,0.0,0.0,0.0,0.0,0.0,0.0,0.0,0.0,0.0,0.0,0.0,0.0,0.0,0.0,0.0,0.0,0.0,0.0,0.0,0.0,0.0,0.0,0.0,0.0,0.0,0.0,0.0,0.0,0.0,0.0,0.0,0.0,0.0,0.0,0.0,0.0,0.0,0.0,0.0,0.0,0.0,0.0,0.0,0.0,0.0,0.0,0.0,-1.8611,-1.7269,-1.7289,-1.9009,-1.899,-1.7852,0.0,0.0,0.0,0.0,0.0,0.0,0.0,0.0,0.0,0.0,0.0,0.0,0.0,0.0,0.0,0.0,0.0,0.0,0.0,0.0,0.0,0.0,0.0,0.0,0.0,0.0,0.0,0.0,0.0,0.0,0.0,0.0,0.0,0.0,0.0,0.0,0.0,0.0,0.0,0.0,0.0,0.0,0.0,0.0,0.0,0.0,0.0,0.0,0.0,0.0,0.0,0.0,0.0,0.0,0.0,0.0,0.0,0.0,0.0,0.0,0.0,0.0,0.0,0.0,0.0,0.0,0.0,0.0,0.0,0.0,0.0,0.0,0.0,0.0,0.0,0.0,0.0,0.0,0.0,0.0,0.0,0.0,0.0,0.0,0.0,0.0,0.0,0.0,0.0,0.0,0.0,0.0,0.0,0.0,0.0,0.0,0.0,0.0,0.0,0.0,0.0,0.0,0.0,0.0,0.0,0.0,0.0,0.0,0.0,-1.4896,-1.5421,-1.7313,-2.0485,-1.7581,-1.6167,0.0,0.0,0.0,0.0,0.0,0.0,0.0,0.0,0.0,0.0,0.0,0.0,0.0,0.0,0.0,0.0,0.0,0.0,0.0,0.0,0.0,0.0,0.0,0.0,0.0,0.0,0.0,0.0,0.0,0.0,0.0,0.0,0.0,0.0,0.0,0.0,0.0,0.0,0.0,0.0,0.0,0.0,0.0,0.0,0.0,0.0,0.0,0.0,0.0,0.0,0.0,0.0,0.0,0.0,0.0,0.0,0.0,0.0,0.0,0.0,0.0,0.0,0.0,0.0,0.0,0.0,0.0,0.0,0.0,0.0,0.0,0.0,0.0,0.0,0.0,0.0,0.0,0.0,0.0,0.0,0.0,0.0,0.0,0.0,0.0,0.0,0.0,0.0,0.0,0.0,0.0,0.0,0.0,0.0,0.0,0.0,0.0,0.0,0.0,0.0,0.0,0.0,0.0,0.0,0.0,0.0,0.0,0.0,0.0,-1.4277,0.0,-1.836,-2.0176,-1.7076,-1.5258,0.0,0.0,0.0,0.0,0.0,0.0,0.0,0.0,0.0,0.0,0.0,0.0,0.0,0.0,0.0,0.0,0.0,0.0,0.0,0.0,0.0,0.0,0.0,0.0,0.0,0.0,0.0,0.0,0.0,0.0,0.0,0.0,0.0,0.0,0.0,0.0,0.0,0.0,0.0,0.0,0.0,0.0,0.0,0.0,0.0,0.0,0.0,0.0,0.0,0.0,0.0,0.0,0.0,0.0,0.0,0.0,0.0,0.0,0.0,0.0,0.0,0.0,0.0,0.0,0.0,0.0,0.0,0.0,0.0,0.0,0.0,0.0,0.0,0.0,0.0,0.0,0.0,0.0,0.0,0.0,0.0,0.0,0.0,0.0,0.0,0.0,0.0,0.0,0.0,0.0,0.0,0.0,0.0,0.0,0.0,0.0,0.0,0.0,0.0,0.0,0.0,0.0,0.0,0.0,0.0,0.0,0.0,0.0,-1.3481,-1.7556,-2.004,-2.016,-1.799,-1.7716,-1.5379,0.0,0.0,0.0,0.0,0.0,0.0,0.0,0.0,0.0,0.0,0.0,0.0,0.0,0.0,0.0,0.0,0.0,0.0,0.0,0.0,0.0,0.0,0.0,0.0,0.0,0.0,0.0,0.0,0.0,0.0,0.0,0.0,0.0,0.0,0.0,0.0,0.0,0.0,0.0,0.0,0.0,0.0,0.0,0.0,0.0,0.0,0.0,0.0,0.0,0.0,0.0,0.0,0.0,0.0,0.0,0.0,0.0,0.0,0.0,0.0,0.0,0.0,0.0,0.0,0.0,0.0,0.0,0.0,0.0,0.0,0.0,0.0,0.0,0.0,0.0,0.0,0.0,0.0,0.0,0.0,0.0,0.0,0.0,0.0,0.0,0.0,0.0,0.0,0.0,0.0,0.0,0.0,0.0,0.0,0.0,0.0,0.0,0.0,0.0,0.0,0.0,0.0,0.0,0.0,0.0,0.0,0.0,0.0,0.0,-1.6094,-1.7432,-1.8919,-2.0292,-1.702,-1.5258,0.0,0.0,0.0,0.0,0.0,0.0,0.0,0.0,0.0,0.0,0.0,0.0,0.0,0.0,0.0,0.0,0.0,0.0,0.0,0.0,0.0,0.0,0.0,0.0,0.0,0.0,0.0,0.0,0.0,0.0,0.0,0.0,0.0,0.0,0.0,0.0,0.0,0.0,0.0,0.0,0.0,0.0,0.0,0.0,0.0,0.0,0.0,0.0,0.0,0.0,0.0,0.0,0.0,0.0,0.0,0.0,0.0,0.0,0.0,0.0,0.0,0.0,0.0,0.0,0.0,0.0,0.0,0.0,0.0,0.0,0.0,0.0,0.0,0.0,0.0,0.0,0.0,0.0,0.0,0.0,0.0,0.0,0.0,0.0,0.0,0.0,0.0,0.0,0.0,0.0,0.0,0.0,0.0,0.0,0.0,0.0,0.0,0.0,0.0,0.0,0.0,0.0,0.0,0.0,0.0,0.0,0.0,0.0,0.0,-1.8558,-1.9442,-2.0485,-2.1669,-1.791,-1.6205,-1.6749,0.0,0.0,0.0,0.0,0.0,0.0,0.0,0.0,0.0,0.0,0.0,0.0,0.0,0.0,0.0,0.0,0.0,0.0,0.0,0.0,0.0,0.0,0.0,0.0,0.0,0.0,0.0,0.0,0.0,0.0,0.0,0.0,0.0,0.0,0.0,0.0,0.0,0.0,0.0,0.0,0.0,0.0,0.0,0.0,0.0,0.0,0.0,0.0,0.0,0.0,0.0,0.0,0.0,0.0,0.0,0.0,0.0,0.0,0.0,0.0,0.0,0.0,0.0,0.0,0.0,0.0,0.0,0.0,0.0,0.0,0.0,0.0,0.0,0.0,0.0,0.0,0.0,0.0,0.0,0.0,0.0,0.0,0.0,0.0,0.0,0.0,0.0,0.0,0.0,0.0,0.0,0.0,0.0,0.0,0.0,0.0,0.0,0.0,0.0,0.0,0.0,0.0,0.0,0.0,0.0,0.0,0.0,0.0,-2.401,-2.5095,-2.4451,-2.2114,-2.0215,-1.8065,0.0,0.0,0.0,0.0,0.0,0.0,0.0,0.0,0.0,0.0,0.0,0.0,0.0,0.0,0.0,0.0,0.0,0.0,0.0,0.0,0.0,0.0,0.0,0.0,0.0,0.0,0.0,0.0,0.0,0.0,0.0,0.0,0.0,0.0,0.0,0.0,0.0,0.0,0.0,0.0,0.0,0.0,0.0,0.0,0.0,0.0,0.0,0.0,0.0,0.0,0.0,0.0,0.0,0.0,0.0,0.0,0.0,0.0,0.0,0.0,0.0,0.0,0.0,0.0,0.0,0.0,0.0,0.0,0.0,0.0,0.0,0.0,0.0,0.0,0.0,0.0,0.0,0.0,0.0,0.0,0.0,0.0,0.0,0.0,0.0,0.0,0.0,0.0,0.0,0.0,0.0,0.0,0.0,0.0,0.0,0.0,0.0,0.0,0.0,0.0,0.0,0.0,0.0,0.0,0.0,0.0,0.0,0.0,0.0,-2.4846,-2.6532,-2.6734,-2.5391,-2.2555,-2.0099,0.0,0.0,0.0,0.0,0.0,0.0,0.0,0.0,0.0,0.0,0.0,0.0,0.0,0.0,0.0,0.0,0.0,0.0,0.0,0.0,0.0,0.0,0.0,0.0,0.0,0.0,0.0,0.0,0.0,0.0,0.0,0.0,0.0,0.0,0.0,0.0,0.0,0.0,0.0,0.0,0.0,0.0,0.0,0.0,0.0,0.0,0.0,0.0,0.0,0.0,0.0,0.0,0.0,0.0,0.0,0.0,0.0,0.0,0.0,0.0,0.0,0.0,0.0,0.0,0.0,0.0,0.0,0.0,0.0,0.0,0.0,0.0,0.0,0.0,0.0,0.0,0.0,0.0,0.0,0.0,0.0,0.0,0.0,0.0,0.0,0.0,0.0,0.0,0.0,0.0,0.0,0.0,0.0,0.0,0.0,0.0,0.0,0.0,0.0,0.0,0.0,0.0,0.0,0.0,0.0,0.0,0.0,0.0,-2.2793,-2.6187,-2.764,-2.8198,-2.7785,-2.4873,-2.2112,0.0,0.0,0.0,0.0,0.0,0.0,0.0,0.0,0.0,0.0,0.0,0.0,0.0,0.0,0.0,0.0,0.0,0.0,0.0,0.0,0.0,0.0,0.0,0.0,0.0,0.0,0.0,0.0,0.0,0.0,0.0,0.0,0.0,0.0,0.0,0.0,0.0,0.0,0.0,0.0,0.0,0.0,0.0,0.0,0.0,0.0,0.0,0.0,0.0,0.0,0.0,0.0,0.0,0.0,0.0,0.0,0.0,0.0,0.0,0.0,0.0,0.0,0.0,0.0,0.0,0.0,0.0,0.0,0.0,0.0,0.0,0.0,0.0,0.0,0.0,0.0,0.0,0.0,0.0,0.0,0.0,0.0,0.0,0.0,0.0,0.0,0.0,0.0,0.0,0.0,0.0,0.0,0.0,0.0,0.0,0.0,0.0,0.0,0.0,0.0,0.0,0.0,0.0,0.0,0.0,0.0,0.0,0.0,-2.4258,-2.7498,-2.8543,-2.9094,-2.9192,-2.6895,-2.4022,0.0,0.0,0.0,0.0,0.0,0.0,0.0,0.0,0.0,0.0,0.0,0.0,0.0,0.0,0.0,0.0,0.0,0.0,0.0,0.0,0.0,0.0,0.0,0.0,0.0,0.0,0.0,0.0,0.0,0.0,0.0,0.0,0.0,0.0,0.0,0.0,0.0,0.0,0.0,0.0,0.0,0.0,0.0,0.0,0.0,0.0,0.0,0.0,0.0,0.0,0.0,0.0,0.0,0.0,0.0,0.0,0.0,0.0,0.0,0.0,0.0,0.0,0.0,0.0,0.0,0.0,0.0,0.0,0.0,0.0,0.0,0.0,0.0,0.0,0.0,0.0,0.0,0.0,0.0,0.0,0.0,0.0,0.0,0.0,0.0,0.0,0.0,0.0,0.0,0.0,0.0,0.0,0.0,0.0,0.0,0.0,0.0,0.0,0.0,0.0,0.0,0.0,0.0,0.0,0.0,0.0,0.0,0.0,-2.5359,-2.7395,-2.9136,-2.967,-2.9001,-2.7345,-2.5151,0.0,0.0,0.0,0.0,0.0,0.0,0.0,0.0,0.0,0.0,0.0,0.0,0.0,0.0,0.0,0.0,0.0,0.0,0.0,0.0,0.0,0.0,0.0,0.0,0.0,0.0,0.0,0.0,0.0,0.0,0.0,0.0,0.0,0.0,0.0,0.0,0.0,0.0,0.0,0.0,0.0,0.0,0.0,0.0,0.0,0.0,0.0,0.0,-1.5402,0.0,0.0,0.0,0.0,0.0,0.0,0.0,0.0,0.0,0.0,0.0,0.0,0.0,0.0,0.0,0.0,0.0,0.0,0.0,0.0,0.0,0.0,0.0,0.0,0.0,0.0,0.0,0.0,0.0,0.0,0.0,0.0,0.0,0.0,0.0,0.0,0.0,0.0,0.0,0.0,0.0,0.0,0.0,0.0,0.0,0.0,0.0,0.0,0.0,0.0,0.0,0.0,0.0,0.0,0.0,0.0,0.0,0.0,0.0,-2.6052,-2.7402,-2.9155,-2.9912,-2.9422,-2.7938,-2.5755,0.0,0.0,0.0,0.0,0.0,0.0,0.0,0.0,0.0,0.0,0.0,0.0,0.0,0.0,0.0,0.0,0.0,0.0,0.0,0.0,0.0,0.0,0.0,0.0,0.0,0.0,0.0,0.0,0.0,0.0,0.0,0.0,0.0,0.0,0.0,0.0,0.0,0.0,0.0,0.0,0.0,0.0,0.0,0.0,0.0,0.0,0.0,0.0,0.0,0.0,0.0,0.0,0.0,0.0,0.0,0.0,0.0,0.0,0.0,0.0,0.0,0.0,0.0,0.0,0.0,0.0,0.0,0.0,0.0,0.0,0.0,0.0,0.0,0.0,0.0,0.0,0.0,0.0,0.0,0.0,0.0,0.0,0.0,0.0,0.0,0.0,0.0,0.0,0.0,0.0,0.0,0.0,0.0,0.0,0.0,0.0,0.0,0.0,0.0,0.0,0.0,0.0,0.0,0.0,0.0,0.0,0.0,-2.3513,-2.6316,-2.7388,-2.9025,-2.9893,-2.9863,-2.8395,-2.6033,-2.2724,0.0,0.0,0.0,0.0,0.0,0.0,0.0,0.0,0.0,0.0,0.0,0.0,0.0,0.0,0.0,0.0,0.0,0.0,0.0,0.0,0.0,0.0,0.0,0.0,0.0,0.0,0.0,0.0,0.0,0.0,0.0,0.0,0.0,0.0,0.0,0.0,0.0,0.0,-1.3084,-1.6022,0.0,0.0,0.0,0.0,0.0,0.0,0.0,0.0,-1.7842,0.0,0.0,0.0,0.0,0.0,0.0,0.0,0.0,0.0,0.0,0.0,0.0,0.0,0.0,0.0,0.0,0.0,0.0,0.0,0.0,0.0,0.0,0.0,0.0,0.0,0.0,0.0,0.0,0.0,0.0,0.0,0.0,0.0,0.0,0.0,0.0,0.0,0.0,0.0,0.0,0.0,0.0,0.0,0.0,0.0,0.0,0.0,0.0,0.0,0.0,0.0,0.0,0.0,0.0,0.0,0.0,-2.161,-2.3806,-2.5654,-2.7217,-2.8971,-2.9591,-2.8936,-2.8055,-2.599,-2.2665,0.0,0.0,0.0,0.0,0.0,0.0,0.0,0.0,0.0,0.0,0.0,0.0,0.0,0.0,0.0,0.0,0.0,0.0,0.0,0.0,0.0,0.0,0.0,0.0,0.0,0.0,0.0,0.0,0.0,0.0,0.0,0.0,0.0,0.0,0.0,0.0,0.0,0.0,0.0,-1.882,-2.0548,0.0,0.0,0.0,0.0,0.0,0.0,0.0,0.0,-1.7149,0.0,0.0,0.0,0.0,0.0,0.0,0.0,0.0,0.0,0.0,0.0,0.0,0.0,0.0,0.0,0.0,0.0,0.0,0.0,0.0,0.0,0.0,0.0,0.0,0.0,0.0,0.0,0.0,0.0,0.0,0.0,0.0,0.0,0.0,0.0,0.0,0.0,0.0,0.0,0.0,0.0,0.0,0.0,0.0,0.0,0.0,0.0,0.0,0.0,0.0,0.0,0.0,0.0,0.0,0.0,-2.099,-2.4294,-2.6378,-2.7204,-2.8889,-2.9403,-2.8544,-2.6953,-2.495,0.0,0.0,0.0,0.0,0.0,0.0,0.0,0.0,0.0,0.0,0.0,0.0,0.0,0.0,0.0,0.0,0.0,0.0,0.0,0.0,0.0,0.0,0.0,0.0,0.0,0.0,0.0,0.0,0.0,0.0,0.0,0.0,0.0,0.0,0.0,0.0,0.0,0.0,0.0,0.0,-2.0162,-2.1752,-2.1686,0.0,0.0,0.0,0.0,0.0,0.0,-1.9901,-1.8268,0.0,0.0,0.0,0.0,0.0,0.0,0.0,0.0,0.0,0.0,0.0,0.0,0.0,0.0,0.0,0.0,0.0,0.0,0.0,0.0,0.0,0.0,0.0,0.0,0.0,0.0,0.0,0.0,0.0,0.0,0.0,0.0,0.0,0.0,0.0,0.0,0.0,0.0,0.0,0.0,0.0,0.0,0.0,0.0,0.0,0.0,0.0,0.0,0.0,0.0,0.0,0.0,0.0,0.0,0.0,-1.9876,-2.4351,-2.6866,-2.7242,-2.8838,-2.9213,-2.8191,-2.6239,-2.4144,0.0,0.0,0.0,0.0,0.0,0.0,0.0,0.0,0.0,0.0,0.0,0.0,0.0,0.0,0.0,0.0,0.0,0.0,0.0,0.0,0.0,0.0,0.0,0.0,0.0,0.0,0.0,0.0,0.0,0.0,0.0,0.0,0.0,0.0,0.0,0.0,0.0,0.0,0.0,0.0,0.0,-2.2975,-2.2579,-2.2508,0.0,0.0,0.0,0.0,-2.3007,-2.2145,0.0,0.0,0.0,0.0,0.0,0.0,0.0,0.0,0.0,0.0,0.0,0.0,0.0,0.0,0.0,0.0,0.0,0.0,0.0,0.0,0.0,0.0,0.0,0.0,0.0,0.0,0.0,0.0,0.0,0.0,0.0,0.0,0.0,0.0,0.0,0.0,0.0,0.0,0.0,0.0,0.0,0.0,0.0,0.0,0.0,0.0,0.0,0.0,0.0,0.0,0.0,0.0,0.0,0.0,0.0,0.0,-1.9801,-2.3217,-2.5702,-2.7186,-2.8838,-2.895,-2.7392,-2.7054,-2.4775,0.0,0.0,0.0,0.0,0.0,0.0,0.0,0.0,0.0,0.0,0.0,0.0,0.0,0.0,0.0,0.0,0.0,0.0,0.0,0.0,0.0,0.0,0.0,0.0,0.0,0.0,0.0,0.0,0.0,0.0,0.0,0.0,0.0,0.0,0.0,0.0,0.0,0.0,0.0,0.0,0.0,-2.4952,-2.3476,-2.3281,-2.3479,0.0,0.0,-2.465,-2.6222,-2.6352,0.0,0.0,0.0,0.0,0.0,0.0,0.0,0.0,0.0,0.0,0.0,0.0,0.0,0.0,0.0,0.0,0.0,0.0,0.0,0.0,0.0,0.0,0.0,0.0,0.0,0.0,0.0,0.0,0.0,0.0,0.0,0.0,0.0,0.0,0.0,0.0,0.0,0.0,0.0,0.0,0.0,0.0,0.0,0.0,0.0,0.0,0.0,0.0,0.0,0.0,0.0,0.0,0.0,0.0,0.0,-1.7624,-2.0483,-2.42,-2.6697,-2.7872,-2.9082,-2.8894,-2.7242,-2.6303,-2.39,0.0,0.0,0.0,0.0,0.0,0.0,0.0,0.0,0.0,0.0,0.0,0.0,0.0,0.0,0.0,0.0,0.0,0.0,0.0,0.0,0.0,0.0,0.0,0.0,0.0,0.0,0.0,0.0,0.0,0.0,0.0,0.0,0.0,0.0,0.0,0.0,0.0,0.0,0.0,0.0,0.0,0.0,-2.5466,-2.5859,0.0,0.0,0.0,-2.7138,-2.8241,0.0,0.0,0.0,0.0,0.0,0.0,0.0,0.0,0.0,0.0,0.0,0.0,0.0,0.0,0.0,0.0,0.0,0.0,0.0,0.0,0.0,0.0,0.0,0.0,0.0,0.0,0.0,0.0,0.0,0.0,0.0,0.0,0.0,0.0,0.0,0.0,0.0,0.0,0.0,0.0,0.0,0.0,0.0,0.0,0.0,0.0,0.0,0.0,0.0,0.0,0.0,0.0,0.0,0.0,0.0,0.0,0.0,-2.1316,-2.5214,-2.7571,-2.8388,-2.9251,-2.8913,-2.7242,-2.5778,0.0,0.0,0.0,0.0,0.0,0.0,0.0,0.0,0.0,0.0,0.0,0.0,0.0,0.0,0.0,0.0,0.0,0.0,0.0,0.0,0.0,0.0,0.0,0.0,0.0,0.0,0.0,-1.022,0.0,0.0,0.0,0.0,0.0,0.0,0.0,0.0,0.0,0.0,0.0,0.0,0.0,0.0,-2.6552,-2.6953,-2.8072,-2.8949,0.0,0.0,-2.949,-3.0253,-2.9527,-2.7718,0.0,0.0,0.0,0.0,0.0,0.0,0.0,0.0,0.0,0.0,0.0,0.0,0.0,0.0,0.0,0.0,0.0,0.0,0.0,0.0,0.0,0.0,0.0,0.0,0.0,0.0,0.0,0.0,0.0,0.0,0.0,0.0,0.0,0.0,0.0,0.0,0.0,0.0,0.0,0.0,0.0,0.0,0.0,0.0,0.0,0.0,0.0,0.0,0.0,0.0,0.0,0.0,0.0,0.0,-1.8913,-2.2192,-2.5496,-2.759,-2.8388,-2.9242,-2.8903,-2.7242,-2.6368,-2.3983,0.0,0.0,0.0,0.0,0.0,0.0,0.0,0.0,0.0,0.0,0.0,0.0,0.0,0.0,0.0,0.0,0.0,0.0,0.0,0.0,0.0,0.0,0.0,0.0,0.0,0.0,0.0,0.0,0.0,0.0,0.0,0.0,0.0,0.0,0.0,0.0,0.0,0.0,0.0,0.0,0.0,-2.7773,-2.7103,-2.8974,-3.0714,0.0,-3.1688,-3.1989,-3.2653,-3.3384,-3.2011,-2.6433,0.0,0.0,0.0,0.0,0.0,0.0,0.0,0.0,0.0,0.0,0.0,0.0,0.0,0.0,0.0,0.0,0.0,0.0,0.0,0.0,0.0,0.0,0.0,0.0,0.0,0.0,0.0,0.0,-0.95,0.0,0.0,0.0,0.0,0.0,0.0,0.0,0.0,0.0,0.0,0.0,0.0,0.0,0.0,0.0,0.0,0.0,0.0,0.0,0.0,0.0,0.0,0.0,0.0,-1.9182,-2.2987,-2.5778,-2.7843,-2.9138,-2.9532,-2.8913,-2.7242,-2.6912,-2.479,0.0,0.0,0.0,0.0,0.0,0.0,0.0,0.0,0.0,0.0,0.0,0.0,0.0,0.0,0.0,0.0,0.0,0.0,0.0,0.0,0.0,0.0,0.0,0.0,0.0,0.0,0.0,0.0,-1.387,-1.3889,-1.3228,0.0,0.0,0.0,0.0,0.0,0.0,0.0,0.0,0.0,0.0,-2.9919,-3.0597,-3.1916,0.0,0.0,-3.3315,-3.3438,-3.3707,-3.278,-3.0961,-2.7754,-2.534,0.0,0.0,0.0,0.0,0.0,0.0,0.0,0.0,0.0,0.0,0.0,0.0,0.0,0.0,0.0,0.0,0.0,0.0,0.0,0.0,0.0,0.0,0.0,0.0,0.0,0.0,-1.0223,-0.9969,0.0,0.0,0.0,0.0,0.0,0.0,0.0,0.0,0.0,0.0,0.0,0.0,0.0,0.0,0.0,0.0,0.0,0.0,0.0,0.0,0.0,0.0,0.0,0.0,-1.9463,-2.3832,-2.6086,-2.8012,-2.9673,-2.9701,-2.8894,-2.7279,-2.6988,-2.5008,0.0,0.0,0.0,0.0,0.0,0.0,0.0,0.0,0.0,0.0,0.0,0.0,0.0,0.0,0.0,0.0,0.0,0.0,0.0,0.0,0.0,0.0,0.0,0.0,0.0,0.0,0.0,0.0,-1.5123,-1.4687,-1.3034,0.0,0.0,0.0,0.0,0.0,0.0,0.0,0.0,0.0,0.0,-3.1459,-3.2804,-3.3696,-3.429,-3.455,-3.416,-3.3949,-3.416,-3.2794,-3.0911,-2.8554,0.0,0.0,0.0,0.0,0.0,0.0,0.0,0.0,0.0,0.0,0.0,0.0,0.0,0.0,0.0,0.0,0.0,0.0,0.0,0.0,0.0,0.0,0.0,0.0,0.0,0.0,0.0,-1.182,0.0,0.0,-1.0635,0.0,0.0,0.0,0.0,0.0,0.0,0.0,0.0,0.0,0.0,0.0,0.0,0.0,0.0,0.0,0.0,0.0,0.0,0.0,0.0,0.0,0.0,-1.9757,-2.4587,-2.6351,-2.8012,-2.9626,-2.9701,-2.8913,-2.7279,-2.6462,-2.4452,-2.109,0.0,0.0,0.0,0.0,0.0,0.0,0.0,0.0,0.0,0.0,0.0,0.0,0.0,0.0,0.0,0.0,0.0,0.0,0.0,0.0,0.0,0.0,0.0,0.0,0.0,0.0,-1.4743,-1.4134,-1.3067,0.0,0.0,0.0,0.0,0.0,0.0,0.0,0.0,0.0,-2.6739,-2.9712,-3.2109,-3.2946,-3.3726,-3.4569,-3.5398,-3.4135,-3.3336,-3.416,-3.4183,-3.2829,0.0,0.0,0.0,0.0,0.0,0.0,0.0,0.0,0.0,0.0,0.0,0.0,0.0,0.0,0.0,0.0,0.0,0.0,0.0,0.0,0.0,0.0,0.0,0.0,0.0,0.0,0.0,-1.6924,-1.5644,0.0,0.0,0.0,0.0,0.0,0.0,0.0,0.0,0.0,0.0,0.0,-2.3314,-2.4291,0.0,0.0,0.0,0.0,0.0,0.0,0.0,0.0,0.0,0.0,0.0,0.0,-2.0856,-2.5086,-2.6981,-2.8409,-2.9455,-2.9636,-2.9157,-2.804,-2.7204,-2.4978,-2.1128,0.0,0.0,0.0,0.0,0.0,0.0,0.0,0.0,0.0,0.0,0.0,0.0,0.0,0.0,0.0,0.0,0.0,0.0,0.0,0.0,0.0,0.0,0.0,0.0,0.0,-1.4724,0.0,0.0,0.0,0.0,0.0,0.0,0.0,0.0,0.0,0.0,-2.4501,-2.7706,-2.988,-3.2518,-3.4544,-3.5361,-3.5683,-3.616,0.0,0.0,0.0,0.0,0.0,0.0,0.0,0.0,0.0,0.0,0.0,0.0,0.0,0.0,-3.2229,-2.5749,-2.3884,-2.3327,-2.3292,0.0,0.0,0.0,0.0,0.0,0.0,0.0,0.0,0.0,0.0,0.0,0.0,0.0,0.0,-2.0731,-1.9909,-1.8582,0.0,0.0,0.0,0.0,0.0,0.0,0.0,0.0,-2.5332,-2.6907,-2.6994,-2.7926,-2.7867,-2.694,-2.6141,-2.3408,0.0,0.0,0.0,0.0,0.0,0.0,0.0,0.0,-2.1703,-2.5383,-2.721,-2.8523,-2.9346,-2.9531,-2.9214,-2.8407,-2.7355,-2.5364,-2.2379,-2.0959,-1.9469,0.0,0.0,0.0,0.0,0.0,0.0,0.0,0.0,0.0,0.0,0.0,0.0,0.0,0.0,0.0,0.0,0.0,0.0,0.0,0.0,0.0,0.0,0.0,-1.5718,0.0,0.0,0.0,0.0,0.0,0.0,0.0,0.0,0.0,-2.4492,-2.7584,-3.0623,-3.2797,-3.4729,-3.6092,-3.6643,0.0,0.0,0.0,0.0,0.0,0.0,0.0,-3.4561,-3.5045,-3.4548,-3.4144,-3.4386,-3.6186,-3.7413,-3.6868,0.0,0.0,-3.0734,-2.9136,-2.8746,-2.8756,-2.9826,-3.0573,-3.006,-3.1502,-3.2817,0.0,0.0,0.0,0.0,-2.192,0.0,0.0,0.0,-2.3833,-2.4117,0.0,-2.2302,0.0,0.0,0.0,0.0,-1.9497,-2.3892,0.0,0.0,-3.0294,-3.2092,-3.0728,-3.0724,-3.0724,-3.0638,-2.9851,-2.8201,-2.5709,-2.1409,-1.8323,0.0,0.0,0.0,0.0,0.0,-2.2332,-2.553,-2.719,-2.8447,-2.9345,-2.9412,-2.909,-2.8407,-2.6904,-2.571,-2.4801,-2.3964,-2.2067,-1.8868,-1.8574,0.0,0.0,0.0,0.0,0.0,0.0,0.0,0.0,0.0,0.0,0.0,0.0,0.0,0.0,0.0,0.0,0.0,0.0,0.0,0.0,-1.6743,0.0,0.0,0.0,0.0,0.0,0.0,0.0,0.0,0.0,-2.8868,-2.7538,-3.0679,-3.3707,-3.5306,0.0,0.0,0.0,0.0,-3.7076,-3.7949,-3.7373,-3.7169,-3.7931,-3.8581,-3.8525,-3.7108,0.0,0.0,-3.7368,-3.8228,-3.8822,-3.7275,-3.8395,-3.925,-3.9101,-3.7498,-3.6463,-3.6458,-3.59,-3.5659,-3.5677,-3.6174,-3.7105,-3.0395,0.0,0.0,0.0,0.0,-2.7905,-2.9165,-3.1574,-3.0395,-2.9485,-2.8685,-2.7331,0.0,0.0,0.0,0.0,0.0,0.0,-2.8349,-2.9686,-3.1977,-3.3031,-3.3046,-3.3779,-3.3727,-3.2993,-3.2208,-3.0846,-2.8971,-2.7102,-2.4047,-1.9917,0.0,0.0,0.0,0.0,-2.5255,-2.6861,-2.8665,-2.9466,-2.9198,-2.9463,-2.9214,-2.8426,-2.7965,-2.7327,-2.6529,-2.571,-2.4565,-2.2961,-2.0683,0.0,0.0,0.0,0.0,0.0,0.0,0.0,0.0,0.0,0.0,0.0,0.0,0.0,0.0,0.0,0.0,0.0,0.0,0.0,-1.6657,-1.7529,-1.7894,0.0,0.0,0.0,0.0,0.0,0.0,0.0,0.0,0.0,-3.367,-3.4878,-3.5813,0.0,0.0,-3.7764,-3.8321,-3.8395,-3.8934,-4.0327,-4.0346,0.0,-4.0513,-3.9733,-3.9342,-4.0067,-4.1274,-4.2054,-4.1924,-4.2296,-4.2445,-4.1943,-4.2277,-4.2593,-4.2445,-4.029,-3.8562,-3.8414,-3.8692,-3.8998,-3.9109,-3.9759,-4.0429,-3.6218,-3.4354,-3.1653,-3.1477,-3.2879,-3.2228,-3.342,-3.5702,-3.4076,-3.323,-3.2996,-3.1449,-2.9872,-2.8243,-2.692,0.0,0.0,0.0,-3.0866,-3.2509,-3.3725,-3.4542,-3.4973,-3.5574,-3.5539,-3.4938,-3.4135,-3.3198,-3.2095,-3.1333,-2.9057,-2.5298,0.0,-2.3832,-2.498,-2.6291,-2.7414,-2.8377,-2.9813,-3.0252,-2.9603,-2.966,-2.9457,-2.8941,-2.8904,-2.8528,-2.7703,-2.7204,-2.6424,-2.526,-2.2999,-2.1065,0.0,0.0,0.0,0.0,0.0,0.0,0.0,0.0,0.0,0.0,0.0,-1.3227,-1.1301,0.0,0.0,0.0,-1.5208,-1.7268,-1.9383,-2.0291,0.0,0.0,0.0,0.0,0.0,0.0,0.0,-3.1366,-3.3522,-3.5566,-3.7856,-3.8432,-3.8637,-3.865,-3.9045,-3.9528,-4.0011,0.0,-4.055,-4.1887,-4.2073,-4.2184,-4.2482,-4.1702,-4.1404,-4.237,-4.2927,-4.341,-4.3893,-4.4005,-4.4005,-4.4005,-4.4005,-4.4005,-4.4005,-4.2352,-4.1051,-4.1051,-4.146,-4.1842,-4.1949,-4.2383,-4.2777,-4.0558,-4.0498,-3.6272,-3.4924,-3.5581,-3.6128,-3.6779,-3.7307,-3.5764,-3.5848,-3.6939,-3.4847,-3.3935,-3.3881,-3.1854,0.0,-3.1991,-3.2593,-3.3334,-3.4199,-3.558,-3.6291,-3.6435,-3.6453,-3.6453,-3.6417,-3.5633,-3.5155,-3.4907,-3.4199,-3.3104,-3.1621,-2.8723,-2.7658,-2.8443,-2.8595,-2.9053,-2.9867,-3.0704,-3.0883,-3.0434,-2.9995,-2.9786,-2.9777,-2.972,-2.9288,-2.8453,-2.8407,-2.7665,-2.6086,-2.5177,-2.3637,-2.1297,0.0,0.0,0.0,0.0,0.0,0.0,0.0,0.0,0.0,0.0,0.0,0.0,0.0,0.0,-1.6988,-1.9435,0.0,-2.324,-2.4119,0.0,0.0,0.0,-2.6423,-2.7464,-3.027,-3.3057,-3.551,0.0,0.0,-4.0476,-4.1233,-4.172,-4.1776,-4.1683,-4.1609,-4.1683,-4.1664,-4.198,-4.2779,-4.289,-4.315,-4.3726,-4.3782,-4.3726,-4.3838,-4.4005,-4.3986,-4.3986,-4.4005,-4.4005,-4.4005,-4.4005,-4.4005,-4.4005,-4.3856,-4.4005,-4.3838,-4.389,-4.3996,-4.3998,-4.408,-4.4106,-4.1471,-4.1305,-4.0236,-3.957,-3.9183,-3.8737,-3.8998,-3.9596,-3.8658,-3.8156,-3.8031,-3.7521,-3.7087,-3.6631,-3.59,-3.6004,-3.6728,-3.6303,-3.644,-3.7066,-3.7026,-3.6957,-3.6863,-3.7013,-3.6995,-3.6791,-3.6049,-3.5642,-3.5552,-3.4849,-3.4304,-3.3864,-3.2699,-3.1093,-2.9208,-3.029,-3.0772,-3.0498,-3.1588,-3.1929,-3.1437,-3.0762,-3.0455,-3.0612,-3.0021,-2.9288,-2.8444,-2.8407,-2.7665,-2.6094,-2.5177,-2.4144,-2.2931,-1.9939,0.0,0.0,0.0,0.0,0.0,0.0,0.0,0.0,0.0,-1.7571,-1.4259,0.0,-1.9321,0.0,-2.1053,-2.3295,-2.4937,-2.529,0.0,0.0,-2.8653,-2.9834,-3.3076,-3.4153,-3.5547,-3.7968,-3.9338,-4.0639,-4.2054,-4.2389,-4.2742,-4.3318,-4.237,-4.1813,-4.2389,-4.25,-4.2779,-4.3522,-4.3689,-4.3782,-4.3968,-4.4005,-4.4005,-4.4005,-4.4005,-4.4005,-4.4005,-4.4005,-4.4005,-4.4005,-4.4005,-4.4005,-4.4005,-4.4005,-4.4005,-4.4005,-4.407,-4.4165,-4.4255,-4.4314,-4.4387,-4.1784,-4.1604,-4.1604,-4.1358,-4.0976,-4.0516,-4.0569,-4.0924,-4.0165,-3.9648,-3.9312,-3.8997,-3.8669,-3.8343,-3.8205,-3.8375,-3.8745,-3.834,-3.8315,-3.862,-3.832,-3.793,-3.7499,-3.7598,-3.7439,-3.6989,-3.6531,-3.6338,-3.6303,-3.5936,-3.5548,-3.5197,-3.485,-3.3688,-3.1811,-3.2121,-3.2194,-3.1906,-3.2293,-3.2362,-3.2077,-3.1117,-3.0485,-3.0232,-2.9889,-2.9119,-2.7928,-2.8201,-2.7843,-2.6593,-2.5729,-2.5072,-2.4584,-2.1784,-2.0157,0.0,0.0,0.0,0.0,0.0,0.0,0.0,0.0,0.0,0.0,0.0,-2.1451,-2.1889,-2.4691,-2.7027,-2.83,-2.9396,-3.079,-3.2593,-3.302,-3.4228,-3.6835,-3.7442,-3.8451,-4.0494,-4.1163,-4.1924,-4.3169,-4.3336,-4.3485,-4.3949,-4.3225,-4.2816,-4.3225,-4.3336,-4.3503,-4.3931,-4.4005,-4.4005,-4.4005,-4.4005,-4.4005,-4.4005,-4.4005,-4.4005,-4.4005,-4.4005,-4.4005,-4.4005,-4.4005,-4.4005,-4.4005,-4.4005,-4.4005,-4.4039,-4.4119,-4.4214,-4.4304,-4.434,-4.4411,-4.1762,-4.1604,-4.1604,-4.1604,-4.1604,-4.1604,-4.1604,-4.1552,-4.0902,-4.0643,-4.0612,-3.9901,-3.9603,-3.9624,-3.9621,-3.9599,-3.9582,-3.9515,-3.9463,-3.9445,-3.9336,-3.8936,-3.8251,-3.8269,-3.7865,-3.7145,-3.7148,-3.7077,-3.7007,-3.6989,-3.6636,-3.5968,-3.5864,-3.5515,-3.4848,-3.3868,-3.3363,-3.3364,-3.2875,-3.2615,-3.2642,-3.1492,-3.0504,-2.9754,-2.971,-2.8903,-2.7317,-2.7872,-2.7872,-2.7092,-2.648,-2.6105,-2.5955,-2.3889,-2.2585,0.0,-2.0919,0.0,0.0,0.0,0.0,0.0,0.0,0.0,0.0,-2.3163,-2.4194,-2.6106,-2.9169,-3.1385,-3.2191,-3.4321,-3.5733,-3.5993,-3.7318,-3.8562,-3.9472,-4.0253,-4.1274,-4.2779,-4.2946,-4.3225,-4.3856,-4.4005,-4.4005,-4.4005,-4.3931,-4.3875,-4.3968,-4.3968,-4.3968,-4.4005,-4.4005,-4.4005,-4.4005,-4.4005,-4.4005,-4.4005,-4.4005,-4.4005,-4.4005,-4.4005,-4.4005,-4.4005,-4.4005,-4.4005,-4.4005,-4.4005,-4.4005,-4.4005,-4.4101,-4.4214,-4.4285,-4.4358,-4.4411,-4.1609,-4.1604,-4.1604,-4.1604,-4.1604,-4.1604,-4.1604,-4.1587,-4.1446,-4.1503,-4.1619,-4.1301,-4.1235,-4.1386,-4.1231,-4.1165,-4.113,-4.0533,-4.0291,-4.0239,-3.9582,-3.9196,-3.9073,-3.9073,-3.8655,-3.7918,-3.7883,-3.7584,-3.6989,-3.6989,-3.6919,-3.6761,-3.628,-3.5966,-3.5826,0.0,0.0,0.0,-3.3219,-3.332,-3.3442,-3.2753,-3.2043,-3.1347,-3.0272,0.0,-2.7317,-2.7355,-2.7054,-2.6293,-2.6706,0.0,0.0,0.0,0.0,0.0,0.0,0.0,0.0,0.0,0.0,0.0,-2.7097,-2.5925,-2.4689,-2.7697,-3.0257,-3.1462,-3.2743,-3.3875,-3.4729,-3.5789,-3.7015,-3.8284,-3.9338,-4.0494,-4.1887,-4.224,-4.2723,-4.3633,-4.3763,-4.3819,-4.3968,-4.4005,-4.4005,-4.4005,-4.4005,-4.4005,-4.4005,-4.4005,-4.4005,-4.4005,-4.4005,-4.4005,-4.4005,-4.4005,-4.4005,-4.4005,-4.4005,-4.4005,-4.4005,-4.4005,-4.4005,-4.4005,-4.4005,-4.4005,-4.4005,-4.4005,-4.4005,-4.4005,-4.4085,-4.4214,-4.4285,-4.4358,-4.4411,-4.1604,-4.1604,-4.1604,-4.1604,0.0,-4.1604,-4.1604,-4.1604,-4.1604,-4.167,-4.174,-4.1631,-4.167,-4.174,-4.1648,-4.1604,-4.1587,-4.12,-4.1042,-4.1007,-4.0621,-4.0253,-3.9884,-3.9884,-3.948,-3.8725,-3.869,-3.8284,-3.7567,-3.7552,-3.7376,-3.7007,-3.6717,-3.6544,-3.6509,-3.5952,-3.5009,-3.3712,-3.39,-3.3851,-3.3549,-3.2957,-3.2324,-3.1665,-3.0671,0.0,0.0,0.0,0.0,0.0,0.0,0.0,0.0,0.0,0.0,-2.6755,-2.6559,-2.6833,-2.7651,-2.7803,-2.8856,-3.1044,-3.149,-3.0779,-2.8711,-3.1587,-3.3623,-3.4036,-3.5582,-3.6811,-3.7257,-3.8395,-3.9617,-4.0773,-4.133,-4.2073,-4.315,-4.3392,-4.354,-4.3912,-4.4005,-4.4005,-4.4005,-4.4005,-4.4005,-4.4005,-4.4005,-4.4005,-4.4005,-4.4005,-4.4005,-4.4005,-4.4005,-4.4005,-4.4005,-4.4005,-4.4005,-4.4005,-4.4005,-4.4005,-4.4005,-4.4005,-4.4005,-4.4005,-4.4005,-4.4005,-4.4005,-4.4005,-4.4005,-4.4005,-4.4036,-4.4135,-4.4244,-4.43,-4.4354,-4.1604,-4.1604,-4.1604,-4.1604,-4.1604,-4.1604,-4.1604,-4.1604,-4.1604,0.0,0.0,-4.1604,-4.1604,-4.1604,-4.1604,-4.1604,-4.1604,-4.1604,-4.1604,-4.1604,-4.1604,-4.1271,-4.0713,-4.0695,-4.027,-3.9533,-3.9515,-3.9111,-3.8339,-3.8322,-3.7935,-3.7271,-3.72,-3.7148,-3.6992,-3.6529,-3.5741,-3.4693,-3.4722,-3.4467,-3.3828,-3.3227,-3.2625,-3.1955,-3.1218,-3.018,-2.8904,-2.8838,-2.8547,-2.7882,-2.7921,-2.8259,-2.8876,-2.8704,-2.9198,-3.046,-3.0384,-3.0686,-3.1633,-3.225,-3.2791,-3.3172,-3.4959,-3.5239,-3.3346,-3.5019,-3.612,-3.6025,-3.8174,-3.9528,-3.9565,-4.0884,-4.2073,-4.2723,-4.2927,-4.328,-4.3893,-4.4005,-4.3986,-4.4005,-4.4005,-4.4005,-4.4005,-4.4005,-4.4005,-4.4005,-4.4005,-4.4005,-4.4005,-4.4005,-4.4005,-4.4005,-4.4005,-4.4005,-4.4005,-4.4005,-4.4005,-4.4005,-4.4005,-4.4005,-4.4005,-4.4005,-4.4005,-4.4005,-4.4005,-4.4005,-4.4005,-4.4005,-4.4005,-4.4005,-4.4005,-4.4039,-4.4135,-4.4195,-4.4237,-4.1604,-4.1604,-4.1604,-4.1604,-4.1604,-4.1604,-4.1604,-4.1604,-4.1604,-4.1604,-4.1604,-4.1604,-4.1604,-4.1604,-4.1604,-4.1604,-4.1604,-4.1604,-4.1604,-4.1604,-4.1604,-4.1552,-4.1446,-4.1446,-4.106,-4.0379,-4.0344,-3.9901,-3.9217,-3.9108,-3.8722,-3.8041,-3.7953,-3.7619,-3.7062,-3.7078,-3.6713,-3.5864,-3.5537,-3.5407,-3.546,-3.4885,-3.4275,-3.3627,-3.2331,-3.131,-3.0583,-3.0546,-3.047,-3.0309,-3.073,-3.1114,-3.1382,-3.1489,-3.1772,-3.2234,-3.257,-3.3245,-3.4251,-3.4251,-3.4906,-3.6586,-3.8514,-3.883,-3.6919,-3.7859,-3.8897,-3.956,-4.0573,-4.1237,-4.1293,-4.2073,-4.2667,-4.2835,-4.3429,-4.3875,-4.4005,-4.4005,-4.4005,-4.4005,-4.4005,-4.4005,-4.4005,-4.4005,-4.4005,-4.4005,-4.4005,-4.4005,-4.4005,-4.4005,-4.4005,-4.4005,-4.4005,-4.4005,-4.4005,-4.4005,-4.4005,-4.4005,-4.4005,-4.4005,-4.4005,-4.4005,-4.4005,-4.4005,-4.4005,-4.4005,-4.4005,-4.4005,-4.4005,-4.4005,-4.4005,-4.4039,-4.4055,-4.4051,-4.4116,-4.1604,-4.1604,-4.1604,-4.1604,-4.1604,-4.1604,-4.1604,-4.1604,-4.1604,-4.1604,-4.1604,-4.1604,-4.1604,-4.1604,-4.1604,-4.1604,-4.1604,-4.1604,-4.1604,-4.1604,-4.1604,-4.1604,-4.1604,-4.1604,-4.1429,-4.1113,-4.1078,-4.0691,-4.0007,-3.9937,-3.955,-3.8778,-3.8322,-3.7935,-3.7604,-3.7296,-3.7006,-3.6729,-3.6344,-3.599,-3.5658,-3.5356,-3.5145,-3.4964,-3.3957,-3.3364,-3.3175,-3.2926,-3.2786,-3.2764,-3.2989,-3.3364,-3.3864,-3.3823,-3.4005,-3.4504,-3.4601,-3.5136,-3.6182,-3.7173,-3.8254,-3.9582,-4.0514,-4.0692,-3.9764,-4.0144,-4.0606,-4.1033,-4.1809,-4.2259,-4.2277,-4.2965,-4.3448,-4.3466,-4.3782,-4.4005,-4.4005,-4.4005,-4.4005,-4.4005,-4.4005,-4.4005,-4.4005,-4.4005,-4.4005,-4.4005,-4.4005,-4.4005,-4.4005,-4.4005,-4.4005,-4.4005,-4.4005,-4.4005,-4.4005,-4.4005,-4.4005,-4.4005,-4.4005,-4.4005,-4.4005,-4.4005,-4.4005,-4.4005,-4.4005,-4.4005,-4.4005,-4.4005,-4.4005,-4.4005,-4.4005,-4.4005,-4.4005,-4.4005,-4.4036,-4.1604,-4.1604,-4.1604,-4.1604,-4.1604,-4.1604,-4.1604,-4.1604,-4.1604,-4.1604,-4.1604,-4.1604,-4.1604,-4.1604,-4.1604,-4.1604,-4.1604,-4.1604,-4.1604,-4.1604,-4.1604,-4.1604,-4.1604,-4.1604,-4.1604,-4.1604,-4.1604,-4.1306,-4.0818,-4.0748,-4.034,-3.9568,-3.8778,-3.8392,-3.8336,-3.7795,-3.7576,-3.7697,-3.7308,-3.67,-3.5998,-3.5884,-3.5921,-3.6069,-3.5517,-3.5312,-3.546,-3.5138,-3.4941,-3.493,-3.487,-3.5225,-3.6031,-3.573,-3.5862,-3.66,-3.6638,-3.7062,-3.8172,-3.9737,-4.0921,-4.1534,-4.1776,-4.185,-4.1887,-4.2036,-4.2054,-4.198,-4.2612,-4.3058,-4.3132,-4.3596,-4.4005,-4.4005,-4.4005,-4.4005,-4.4005,-4.4005,-4.4005,-4.4005,-4.4005,-4.4005,-4.4005,-4.4005,-4.4005,-4.4005,-4.4005,-4.4005,-4.4005,-4.4005,-4.4005,-4.4005,-4.4005,-4.4005,-4.4005,-4.4005,-4.4005,-4.4005,-4.4005,-4.4005,-4.4005,-4.4005,-4.4005,-4.4005,-4.4005,-4.4005,-4.4005,-4.4005,-4.4005,-4.4005,-4.4005,-4.4005,-4.4005,-4.4005,-4.4005,-4.1604,-4.1604,-4.1604,-4.1604,-4.1604,-4.1604,-4.1604,-4.1604,-4.1604,-4.1604,-4.1604,-4.1604,-4.1604,-4.1604,-4.1604,-4.1604,-4.1604,-4.1604,-4.1604,-4.1604,-4.1604,-4.1604,-4.1604,-4.1604,-4.1604,-4.1604,-4.1604,-4.1552,-4.1446,-4.1464,-4.1135,-4.0379,-3.9585,-3.9217,-3.9182,-3.9091,-3.9076,-3.9097,-3.8565,-3.798,-3.7417,-3.6978,-3.6876,-3.7058,-3.6652,-3.6536,-3.6702,-3.6708,-3.6646,-3.6565,-3.6327,-3.6638,-3.7506,-3.7088,-3.7255,-3.8322,-3.8751,-3.9483,-4.054,-4.1166,-4.1534,-4.1627,-4.2314,-4.2686,-4.2723,-4.3318,-4.3448,-4.3002,-4.3429,-4.3819,-4.3893,-4.3968,-4.4005,-4.4005,-4.4005,-4.4005,-4.4005,-4.4005,-4.4005,-4.4005,-4.4005,-4.4005,-4.4005,-4.4005,-4.4005,-4.4005,-4.4005,-4.4005,-4.4005,-4.4005,-4.4005,-4.4005,-4.4005,-4.4005,-4.4005,-4.4005,-4.4005,-4.4005,-4.4005,-4.4005,-4.4005,-4.4005,-4.4005,-4.4005,-4.4005,-4.4005,-4.4005,-4.4005,-4.4005,-4.4005,-4.4005,-4.4005,-4.4005,-4.4005,-4.4005,-4.1604,-4.1604,-4.1604,-4.1604,-4.1604,-4.1604,-4.1604,-4.1604,-4.1604,-4.1604,-4.1604,-4.1604,-4.1604,-4.1604,-4.1604,-4.1604,-4.1604,-4.1604,-4.1604,-4.1604,-4.1604,-4.1604,-4.1604,-4.1604,-4.1604,-4.1604,-4.1604,-4.1604,-4.1604,-4.1604,-4.1446,-4.1095,-4.0375,-4.0007,-3.9972,-3.955,-3.9322,-3.9266,-3.9071,-3.8818,-3.8514,-3.7627,-3.7166,-3.7254,-3.7168,-3.728,-3.7594,-3.78,-3.797,-3.8181,-3.8493,-3.8924,-3.9342,-3.9571,-3.9884,-4.034,-4.0548,-4.1067,-4.202,-4.2217,-4.25,-4.2965,-4.3318,-4.3503,-4.3503,-4.3801,-4.3856,-4.3633,-4.3819,-4.4005,-4.4005,-4.4005,-4.4005,-4.4005,-4.4005,-4.4005,-4.4005,-4.4005,-4.4005,-4.4005,-4.4005,-4.4005,-4.4005,-4.4005,-4.4005,-4.4005,-4.4005,-4.4005,-4.4005,-4.4005,-4.4005,-4.4005,-4.4005,-4.4005,-4.4005,-4.4005,-4.4005,-4.4005,-4.4005,-4.4005,-4.4005,-4.4005,-4.4005,-4.4005,-4.4005,-4.4005,-4.4005,-4.4005,-4.4005,-4.4005,-4.4005,-4.4005,-4.4005,-4.4005,-4.4005,-4.1604,-4.1604,-4.1604,-4.1604,-4.1604,-4.1604,-4.1604,-4.1604,-4.1604,-4.1604,-4.1604,-4.1604,-4.1604,-4.1604,-4.1604,-4.1604,-4.1604,-4.1604,-4.1604,-4.1604,-4.1604,-4.1604,-4.1604,-4.1604,-4.1604,-4.1604,-4.1604,-4.1604,-4.1604,-4.1604,-4.1604,-4.1516,-4.106,-4.0818,-4.0748,-4.02,-3.9954,-3.9937,-3.9761,-3.9638,-3.9466,-3.8463,-3.7895,-3.7993,-3.8184,-3.8438,-3.8701,-3.9083,-3.9366,-3.9612,-4.034,-4.0717,-4.0769,-4.1289,-4.1702,-4.1887,-4.1924,-4.2296,-4.3058,-4.3113,-4.3373,-4.3931,-4.4005,-4.4005,-4.4005,-4.4005,-4.4005,-4.3986,-4.4005,-4.4005,-4.4005,-4.4005,-4.4005,-4.4005,-4.4005,-4.4005,-4.4005,-4.4005,-4.4005,-4.4005,-4.4005,-4.4005,-4.4005,-4.4005,-4.4005,-4.4005,-4.4005,-4.4005,-4.4005,-4.4005,-4.4005,-4.4005,-4.4005,-4.4005,-4.4005,-4.4005,-4.4005,-4.4005,-4.4005,-4.4005,-4.4005,-4.4005,-4.4005,-4.4005,-4.4005,-4.4005,-4.4005,-4.4005,-4.4005,-4.4005,-4.4005,-4.4005,-4.4005,-4.4005,-4.4005,-4.1604,-4.1604,-4.1604,-4.1604,-4.1604,-4.1604,-4.1604,-4.1604,-4.1604,-4.1604,-4.1604,-4.1604,-4.1604,-4.1604,-4.1604,-4.1604,-4.1604,-4.1604,-4.1604,-4.1604,-4.1604,-4.1604,-4.1604,-4.1604,-4.1604,-4.1604,-4.1604,-4.1604,-4.1604,-4.1604,-4.1604,-4.1587,-4.1516,-4.1516,-4.1481,-4.1394,-4.1464,-4.1271,-4.0727,-4.045,-4.0362,-3.9638,-3.9388,-3.9656,-4.002,-4.0095,-4.0221,-4.0641,-4.0822,-4.0891,-4.1265,-4.152,-4.1553,-4.1609,-4.2036,-4.2649,-4.2742,-4.3095,-4.3763,-4.3875,-4.3931,-4.3986,-4.4005,-4.4005,-4.4005,-4.4005,-4.4005,-4.4005,-4.4005,-4.4005,-4.4005,-4.4005,-4.4005,-4.4005,-4.4005,-4.4005,-4.4005,-4.4005,-4.4005,-4.4005,-4.4005,-4.4005,-4.4005,-4.4005,-4.4005,-4.4005,-4.4005,-4.4005,-4.4005,-4.4005,-4.4005,-4.4005,-4.4005,-4.4005,-4.4005,-4.4005,-4.4005,-4.4005,-4.4005,-4.4005,-4.4005,-4.4005,-4.4005,-4.4005,-4.4005,-4.4005,-4.4005,-4.4005,-4.4005,-4.4005,-4.4005,-4.4005,-4.4005,-4.4005,-4.4005,-4.1604,-4.1604,-4.1604,-4.1604,-4.1604,-4.1604,-4.1604,-4.1604,-4.1604,-4.1604,-4.1604,-4.1604,-4.1604,-4.1604,-4.1604,-4.1604,-4.1604,-4.1604,-4.1604,-4.1604,-4.1604,-4.1604,-4.1604,-4.1604,-4.1604,-4.1604,-4.1604,-4.1604,-4.1604,-4.1604,-4.1604,-4.1604,-4.1604,-4.1604,-4.1604,-4.1604,-4.1604,-4.1587,-4.1306,-4.12,-4.1183,-4.092,-4.0826,-4.0888,-4.0114,-3.98,-4.0015,-4.0165,-4.0366,-4.0597,-4.148,-4.1988,-4.206,-4.2727,-4.3262,-4.3522,-4.3578,-4.3689,-4.3949,-4.4005,-4.4005,-4.4005,-4.4005,-4.4005,-4.4005,-4.4005,-4.4005,-4.4005,-4.4005,-4.4005,-4.4005,-4.4005,-4.4005,-4.4005,-4.4005,-4.4005,-4.4005,-4.4005,-4.4005,-4.4005,-4.4005,-4.4005,-4.4098,-4.4023,-4.4005,-4.4005,-4.4023,-4.4061,-4.4042,-4.4023,-4.4098,-4.4042,-4.4005,-4.4005,-4.4005,-4.4005,-4.4005,-4.4005,-4.4005,-4.4005,-4.4005,-4.4005,-4.4005,-4.4005,-4.4005,-4.4005,-4.4023,-4.4153,-4.4116,-4.4005,-4.4005,-4.4191,-4.4005,-4.4191,-4.4135,-4.1604,-4.1604,-4.1604,-4.1604,-4.1604,-4.1604,-4.1604,-4.1604,-4.1604,-4.1604,-4.1604,-4.1604,-4.1604,-4.1604,-4.1604,-4.1604,-4.1604,-4.1604,-4.1604,-4.1604,-4.1604,-4.1604,-4.1604,-4.1604,-4.1604,-4.1604,-4.1604,-4.1604,-4.1604,-4.1604,-4.1604,-4.1604,-4.1604,-4.1604,-4.1604,-4.1604,-4.1604,-4.1604,-4.1604,-4.1587,-4.1604,-4.1604,-4.1604,-4.1464,-4.0569,-4.0151,-4.0387,-4.0511,-4.067,-4.1067,-4.1905,-4.2443,-4.2653,-4.3481,-4.4005,-4.4005,-4.4005,-4.4005,-4.4005,-4.4005,-4.4005,-4.4005,-4.4005,-4.4005,-4.4005,-4.4005,-4.4005,-4.4005,-4.4005,-4.4005,-4.4005,-4.4005,-4.4005,-4.4005,-4.4005,-4.4005,-4.4005,-4.3974,-4.4088,-4.4292,-4.4156,-4.4246,-4.4655,-4.4544,-4.4618,-4.4729,-4.4804,-4.4804,-4.4804,-4.4822,-4.4804,-4.4804,-4.4915,-4.4971,-4.5045,-4.5138,-4.4451,-4.4302,-4.4228,-4.4172,-4.4209,-4.4153,-4.4135,-4.4079,-4.4042,-4.4023,-4.4098,-4.4265,-4.4246,-4.4135,-4.4376,-4.4674,-4.4562,-4.4488,-4.4655,-4.1604,-4.1604,-4.1604,-4.1604,-4.1604,-4.1604,-4.1604,-4.1604,-4.1604,-4.1604,-4.1604,-4.1604,-4.1604,-4.1604,-4.1604,-4.1604,-4.1604,-4.1604,-4.1604,-4.1604,-4.1604,-4.1604,-4.1604,-4.1604,-4.1604,-4.1604,-4.1604,-4.1604,-4.1604,-4.1604,-4.1604,-4.1604,-4.1604,-4.1604,-4.1604,-4.1604,-4.1604,-4.1604,-4.1604,-4.1604,-4.1604,-4.1604,-4.1604,-4.1604,-4.1464,-4.1411,-4.1486,-4.1842,-4.1961,-4.2098,-4.251,-4.2959,-4.3313,-4.3775,-4.4005,-4.4005,-4.4005,-4.4005,-4.4005,-4.4005,-4.4005,-4.4005,-4.4005,-4.4005,-4.4005,-4.4005,-4.4005,-4.4005,-4.4005,-4.4023,-4.4079,-4.4135,-4.4098,-4.4023,-4.4079,-4.4172,-4.4101,-4.4019,-4.4249,-4.4874,-4.4681,-4.4822,-4.5769,-4.5732,-4.5528,-4.6011,-4.6197,-4.616,-4.6085,-4.6085,-4.6345,-4.6345,-4.6085,-4.5881,-4.6178,-4.6382,-4.5398,-4.4636,-4.4562,-4.4506,-4.4674,-4.4711,-4.4785,-4.4748,-4.4785,-4.4785,-4.4859,-4.4989,-4.4952,-4.4915,-4.5101,-4.5268,-4.5287,-4.5342,-4.5584,-4.1604,-4.1604,-4.1604,-4.1604,-4.1604,-4.1604,-4.1604,-4.1604,-4.1604,-4.1604,-4.1604,-4.1604,-4.1604,-4.1604,-4.1604,-4.1604,-4.1604,-4.1604,-4.1604,-4.1604,-4.1604,-4.1604,-4.1604,-4.1604,-4.1604,-4.1604,-4.1604,-4.1604,-4.1604,-4.1604,-4.1604,-4.1604,-4.1604,-4.1604,-4.1604,-4.1604,-4.1604,-4.1604,-4.1604,-4.1604,-4.1604,-4.1604,-4.1604,-4.1604,-4.1604,-4.1604,-4.1604,-4.1719,-4.192,-4.2177,-4.258,-4.3105,-4.3677,-4.3923,-4.4005,-4.4005,-4.4005,-4.4005,-4.4005,-4.4005,-4.4005,-4.4005,-4.4005,-4.4005,-4.4005,-4.4042,-4.4061,-4.4042,-4.4023,-4.4191,-4.4729,-4.4896,-4.4674,-4.4079,-4.4506,-4.4896,-4.4934,-4.5291,-4.5755,-4.5978,-4.5846,-4.6011,-4.6308,-4.6197,-4.6271,-4.6531,-4.6605,-4.6605,-4.6568,-4.668,-4.6513,-4.6513,-4.6513,-4.6735,-4.6884,-4.6995,-4.6494,-4.5807,-4.5547,-4.5212,-4.5287,-4.5342,-4.5417,-4.5435,-4.5472,-4.5528,-4.5621,-4.5751,-4.5751,-4.5788,-4.5992,-4.6085,-4.6122,-4.6252,-4.6438,-4.1604,-4.1604,-4.1604,-4.1604,-4.1604,-4.1604,-4.1604,-4.1604,-4.1604,-4.1604,-4.1604,-4.1604,-4.1797,-4.2008,-4.2043,-4.2043,-4.2043,-4.2061,-4.1885,-4.1639,-4.1604,-4.1604,-4.1604,-4.1604,-4.1604,-4.1604,-4.1604,-4.1604,-4.1604,-4.1604,-4.1604,-4.1604,-4.1604,-4.1604,-4.1604,-4.1604,-4.1604,-4.1604,-4.1604,-4.1604,-4.1604,-4.1604,-4.1604,-4.1604,-4.1604,-4.1604,-4.1587,-4.174,-4.1941,-4.2239,-4.2715,-4.3265,-4.3744,-4.3908,-4.4005,-4.4005,-4.4005,-4.4005,-4.4005,-4.4005,-4.4005,-4.4005,-4.4005,-4.4191,-4.4376,-4.4488,-4.4562,-4.4878,-4.4989,-4.5157,-4.5621,-4.5732,-4.5472,-4.5026,-4.5417,-4.5698,-4.5774,-4.6143,-4.6607,-4.6721,-4.6626,-4.681,-4.72,-4.7051,-4.7125,-4.7274,-4.7386,-4.7386,-4.7386,-4.746,-4.7367,-4.7367,-4.7571,-4.7646,-4.7497,-4.7497,-4.7478,-4.7088,-4.6735,-4.6327,-4.6104,-4.6104,-4.6122,-4.6085,-4.6104,-4.6048,-4.6141,-4.6643,-4.6828,-4.6884,-4.6824,-4.6903,-4.694,-4.694,-4.7125,-4.1604,-4.1604,-4.1604,-4.1604,-4.1604,-4.1604,-4.1604,-4.1604,-4.1604,-4.1657,-4.171,-4.1797,-4.2166,-4.2745,-4.2868,-4.2851,-4.2868,-4.2851,-4.2535,-4.2078,-4.192,-4.1885,-4.1639,-4.1604,-4.1604,-4.1604,-4.1604,-4.1604,-4.1604,-4.1604,-4.1604,-4.1604,-4.1604,-4.1604,-4.1604,-4.1604,-4.1604,-4.1604,-4.1604,-4.1604,-4.1604,-4.1604,-4.1604,-4.1604,-4.1604,-4.1604,-4.1631,-4.1987,-4.2239,-4.2362,-4.3051,-4.3457,-4.3543,-4.3793,-4.4005,-4.4005,-4.4005,-4.4005,-4.4005,-4.4191,-4.4209,-4.4209,-4.4376,-4.4451,-4.5231,-4.5361,-4.5565,-4.6122,-4.6252,-4.6401,-4.6494,-4.6568,-4.6531,-4.6643,-4.6605,-4.6554,-4.6505,-4.6684,-4.7111,-4.7448,-4.7149,-4.7144,-4.8481,-4.8091,-4.8184,-4.8481,-4.8649,-4.8574,-4.8574,-4.8481,-4.876,-4.8686,-4.8426,-4.8351,-4.8147,-4.8147,-4.8129,-4.798,-4.7683,-4.7404,-4.7088,-4.7051,-4.707,-4.6995,-4.6847,-4.6754,-4.6903,-4.7478,-4.7657,-4.7553,-4.7593,-4.7715,-4.7837,-4.7949,-4.8005,-4.1604,-4.1604,-4.1604,-4.1604,-4.1604,-4.1604,-4.1604,-4.1604,-4.1604,-4.1973,-4.2377,-4.25,-4.2903,-4.3553,-4.3623,-4.3605,-4.3605,-4.3605,-4.3553,-4.3342,-4.3289,-4.2587,-4.1797,-4.1622,-4.1657,-4.1674,-4.1745,-4.1604,-4.1604,-4.171,-4.1692,-4.1604,-4.1674,-4.1639,-4.1604,-4.1622,-4.1604,-4.1604,-4.1604,-4.1604,-4.1604,-4.1604,-4.1604,-4.1604,-4.1604,-4.1622,-4.1692,-4.2279,-4.2791,-4.3105,-4.3542,-4.3841,-4.3844,-4.3976,-4.4098,-4.4098,-4.4079,-4.4042,-4.4172,-4.4636,-4.4915,-4.5026,-4.5379,-4.5937,-4.6122,-4.6178,-4.629,-4.6513,-4.6513,-4.6791,-4.7237,-4.7386,-4.7627,-4.8091,-4.772,-4.7554,-4.7964,-4.8241,-4.8353,-4.8484,-4.8297,-4.8481,-4.863,-4.8723,-4.8612,-4.8816,-4.889,-4.889,-4.889,-4.889,-4.889,-4.889,-4.876,-4.8816,-4.8816,-4.8816,-4.8779,-4.8704,-4.8574,-4.8463,-4.8277,-4.824,-4.8296,-4.8333,-4.7999,-4.7831,-4.8091,-4.8519,-4.8396,-4.8189,-4.8496,-4.8701,-4.9051,-4.9249,-4.9135,-4.1604,-4.1604,-4.1604,-4.1604,-4.1604,-4.1604,-4.1604,-4.1674,-4.199,-4.2342,-4.2798,-4.3149,-4.3693,-4.436,-4.4395,-4.4395,-4.4413,-4.4395,-4.4202,-4.3869,-4.3834,-4.3342,-4.2728,-4.257,-4.257,-4.257,-4.2552,-4.2587,-4.2605,-4.257,-4.257,-4.2552,-4.2254,-4.2113,-4.2113,-4.1745,-4.1604,-4.1604,-4.1604,-4.1604,-4.1604,-4.1604,-4.1604,-4.1604,-4.1604,-4.1776,-4.2341,-4.2965,-4.336,-4.3498,-4.3761,-4.4005,-4.4061,-4.4376,-4.4525,-4.4562,-4.4859,-4.5082,-4.5119,-4.5547,-4.5769,-4.5862,-4.629,-4.6643,-4.6903,-4.7014,-4.7051,-4.7516,-4.7497,-4.7738,-4.8054,-4.8203,-4.8426,-4.8667,-4.8481,-4.8407,-4.8872,-4.8834,-4.889,-4.889,-4.889,-4.889,-4.889,-4.889,-4.889,-4.889,-4.889,-4.889,-4.889,-4.889,-4.889,-4.889,-4.889,-4.889,-4.889,-4.889,-4.889,-4.8872,-4.8872,-4.889,-4.889,-4.889,-4.8853,-4.8797,-4.8853,-4.8907,-4.8925,-4.8976,-4.8911,-4.8894,-4.9299,-4.9533,-4.974,-4.9936,-4.9897,-4.1604,-4.1604,-4.1604,-4.1604,-4.1622,-4.1692,-4.1815,-4.1903,-4.2587,-4.3009,-4.3272,-4.3781,-4.4466,-4.5203,-4.5203,-4.5203,-4.522,-4.522,-4.4817,-4.4501,-4.4343,-4.4202,-4.4167,-4.3711,-4.3641,-4.3658,-4.3834,-4.3763,-4.3623,-4.3711,-4.3799,-4.3553,-4.3131,-4.2956,-4.2816,-4.2306,-4.1903,-4.2026,-4.2113,-4.2131,-4.2113,-4.2113,-4.2131,-4.2131,-4.2131,-4.2564,-4.333,-4.3879,-4.4033,-4.3719,-4.4036,-4.44,-4.4488,-4.5082,-4.5361,-4.5491,-4.5918,-4.629,-4.6457,-4.642,-4.6624,-4.6643,-4.6735,-4.7014,-4.7664,-4.7831,-4.8036,-4.8556,-4.8872,-4.8723,-4.876,-4.8834,-4.8834,-4.889,-4.8853,-4.8872,-4.889,-4.889,-4.889,-4.889,-4.889,-4.889,-4.889,-4.889,-4.889,-4.889,-4.889,-4.889,-4.889,-4.889,-4.889,-4.889,-4.889,-4.889,-4.889,-4.889,-4.889,-4.889,-4.889,-4.889,-4.889,-4.889,-4.889,-4.889,-4.889,-4.8959,-4.9044,-4.9094,-4.916,-4.9423,-4.9684,-4.9781,-4.9889,-5.0081,-5.0142,-4.1604,-4.1604,-4.1604,-4.1604,-4.171,-4.2249,-4.2552,-4.2587,-4.3342,-4.3992,-4.4518,-4.4782,-4.5273,-4.5933,-4.5898,-4.5951,-4.5881,-4.5898,-4.5828,-4.5758,-4.5705,-4.5705,-4.5389,-4.4589,-4.3974,-4.3992,-4.3921,-4.3921,-4.3957,-4.4079,-4.3904,-4.3921,-4.3869,-4.3676,-4.3605,-4.3412,-4.3395,-4.3395,-4.3342,-4.3272,-4.3237,-4.3254,-4.3237,-4.3254,-4.3312,-4.3668,-4.425,-4.4743,-4.5069,-4.5388,-4.5719,-4.5937,-4.5862,-4.6067,-4.6234,-4.6308,-4.6401,-4.6587,-4.6643,-4.7125,-4.7441,-4.7478,-4.7887,-4.8444,-4.8574,-4.8593,-4.8686,-4.889,-4.889,-4.889,-4.889,-4.889,-4.889,-4.889,-4.8946,-4.8964,-4.8909,-4.8909,-4.889,-4.889,-4.889,-4.889,-4.889,-4.889,-4.889,-4.889,-4.889,-4.889,-4.889,-4.889,-4.889,-4.889,-4.889,-4.889,-4.889,-4.889,-4.889,-4.889,-4.889,-4.889,-4.889,-4.889,-4.889,-4.889,-4.889,-4.8976,-4.9061,-4.919,-4.9255,-4.9655,-4.9962,-5.0038,-5.013,-5.0291,-5.0302,-4.1604,-4.1604,-4.1604,-4.1604,-4.1727,-4.2447,-4.2775,-4.3026,-4.3992,-4.4694,-4.5133,-4.5449,-4.5828,-4.6179,-4.6214,-4.6196,-4.6214,-4.6214,-4.6196,-4.6161,-4.6179,-4.613,-4.6052,-4.5453,-4.4992,-4.4933,-4.501,-4.4992,-4.4992,-4.4916,-4.5062,-4.4898,-4.4641,-4.4483,-4.4343,-4.4132,-4.3834,-4.3816,-4.3886,-4.3886,-4.3886,-4.3886,-4.3886,-4.3979,-4.4135,-4.4516,-4.5132,-4.58,-4.639,-4.6948,-4.7365,-4.7218,-4.6735,-4.6847,-4.7051,-4.7088,-4.7478,-4.759,-4.7794,-4.798,-4.8277,-4.824,-4.8686,-4.8816,-4.889,-4.889,-4.889,-4.889,-4.889,-4.889,-4.889,-4.889,-4.8909,-4.8983,-4.928,-4.9447,-4.941,-4.915,-4.889,-4.889,-4.889,-4.889,-4.889,-4.8946,-4.889,-4.889,-4.889,-4.889,-4.889,-4.889,-4.889,-4.889,-4.889,-4.889,-4.889,-4.889,-4.889,-4.889,-4.889,-4.889,-4.889,-4.889,-4.889,-4.889,-4.889,-4.8925,-4.901,-4.9174,-4.9334,-4.9544,-4.979,-5.0099,-5.0336,-5.041,-5.0369,-4.1604,-4.1604,-4.1604,-4.1604,-4.1727,-4.2464,-4.2886,-4.3219,-4.4483,-4.5133,-4.5378,-4.5951,-4.6126,-4.6214,-4.6214,-4.6196,-4.6172,-4.6165,-4.6147,-4.6147,-4.6097,-4.6073,-4.5978,-4.5957,-4.5919,-4.6172,-4.6039,-4.6039,-4.6014,-4.6179,-4.5898,-4.6003,-4.5607,-4.5291,-4.5098,-4.4676,-4.4431,-4.4501,-4.4518,-4.4466,-4.4431,-4.4431,-4.4431,-4.4519,-4.4888,-4.5432,-4.6148,-4.6833,-4.7573,-4.8328,-4.8714,-4.8131,-4.7478,-4.7423,-4.7887,-4.7906,-4.8407,-4.8593,-4.8593,-4.876,-4.8816,-4.889,-4.889,-4.889,-4.889,-4.889,-4.889,-4.8983,-4.9039,-4.9187,-4.9094,-4.9447,-4.9429,-4.9485,-4.9968,-5.0246,-5.019,-4.967,-4.9522,-4.9429,-4.9429,-4.9336,-4.9169,-4.9113,-4.9002,-4.8927,-4.8946,-4.8946,-4.8983,-4.8927,-4.8946,-4.8909,-4.889,-4.889,-4.889,-4.889,-4.889,-4.889,-4.889,-4.889,-4.889,-4.889,-4.889,-4.889,-4.889,-4.8942,-4.901,-4.9176,-4.9318,-4.9427,-4.9712,-5.0099,-5.0325,-5.0493,-5.0453,-4.1604,-4.1604,-4.1604,-4.1604,-4.1727,-4.2464,-4.3149,-4.3816,-4.4676,-4.5449,-4.5986,-4.6144,-4.6214,-4.6214,-4.6214,-4.6122,-4.609,-4.6048,-4.6048,-4.6023,-4.5972,-4.5922,-4.5998,-4.6048,-4.6048,-4.6048,-4.6122,-4.6165,-4.6115,-4.6122,-4.6214,-4.6161,-4.6039,-4.5951,-4.5898,-4.5828,-4.5582,-4.5495,-4.5547,-4.5565,-4.5565,-4.5582,-4.5582,-4.5613,-4.5975,-4.6551,-4.7142,-4.7758,-4.8329,-4.875,-4.8855,-4.8742,-4.8444,-4.8519,-4.8593,-4.8649,-4.876,-4.889,-4.889,-4.889,-4.889,-4.889,-4.889,-4.8927,-4.8946,-4.8964,-4.9113,-4.9262,-4.9596,-4.9912,-4.993,-5.0358,-5.0841,-5.0971,-5.1008,-5.1175,-5.1138,-5.1082,-5.0971,-5.0952,-5.0469,-4.9912,-4.9819,-4.967,-4.9577,-4.9559,-4.9522,-4.9485,-4.9447,-4.9243,-4.9039,-4.8964,-4.889,-4.889,-4.889,-4.889,-4.889,-4.889,-4.889,-4.889,-4.889,-4.889,-4.889,-4.889,-4.8925,-4.8976,-4.9094,-4.9176,-4.9349,-4.9499,-4.9803,-5.0123,-5.0283,-5.0442,-5.0614,-4.1604,-4.1604,-4.1604,-4.1604,-4.1745,-4.2464,-4.3219,-4.3974,-4.4746,-4.5495,-4.6039,-4.6214,-4.6214,-4.6214,-4.6214,-4.6122,-4.6023,-4.5998,-4.5972,-4.5897,-4.5947,-4.5922,-4.5947,-4.6023,-4.5998,-4.5998,-4.6073,-4.6172,-4.6115,-4.6189,-4.6214,-4.6214,-4.6214,-4.6214,-4.6214,-4.6161,-4.6214,-4.6214,-4.6214,-4.6214,-4.6214,-4.6214,-4.6214,-4.6319,-4.6649,-4.7115,-4.7591,-4.8073,-4.8476,-4.8803,-4.889,-4.889,-4.889,-4.889,-4.8909,-4.8927,-4.8909,-4.889,-4.889,-4.889,-4.889,-4.889,-4.8927,-4.9132,-4.9392,-4.9577,-4.9707,-5.0153,-5.0376,-5.0766,-5.0785,-5.1231,-5.1342,-5.1472,-5.1751,-5.1992,-5.2104,-5.2382,-5.2457,-5.2364,-5.1546,-5.0952,-5.0729,-5.0562,-5.032,-5.019,-5.0135,-5.006,-5.0005,-4.9782,-4.9522,-4.9466,-4.9429,-4.9262,-4.928,-4.9299,-4.9317,-4.9243,-4.9206,-4.9187,-4.9113,-4.9224,-4.9057,-4.889,-4.8942,-4.9123,-4.8993,-4.9027,-4.9299,-4.9539,-4.9735,-4.9962,-5.0195,-5.0391,-5.0554,-4.1604,-4.1604,-4.1604,-4.1604,-4.171,-4.2271,-4.3061,-4.3904,-4.4553,-4.5337,-4.6144,-4.6214,-4.6214,-4.6189,-4.6165,-4.609,-4.599,-4.5947,-4.5897,-4.5922,-4.5972,-4.5972,-4.5947,-4.5998,-4.6048,-4.5965,-4.6073,-4.6189,-4.614,-4.6189,-4.6214,-4.6214,-4.6214,-4.6214,-4.6214,-4.6214,-4.6214,-4.6214,-4.6214,-4.6214,-4.6214,-4.6214,-4.6214,-4.6295,-4.6742,-4.7266,-4.7611,-4.8192,-4.8569,-4.8803,-4.889,-4.889,-4.889,-4.889,-4.8983,-4.9094,-4.9002,-4.8909,-4.8927,-4.9169,-4.9262,-4.928,-4.9373,-4.9782,-5.0135,-5.0432,-5.0618,-5.1268,-5.1602,-5.1621,-5.1639,-5.1844,-5.1936,-5.2085,-5.2531,-5.2865,-5.2977,-5.3181,-5.3404,-5.3088,-5.2382,-5.1955,-5.1676,-5.1138,-5.0841,-5.0822,-5.0766,-5.0803,-5.0729,-5.0543,-5.0339,-5.0228,-5.0079,-4.9819,-4.98,-4.9912,-4.9968,-5.0042,-5.0005,-5.0005,-4.9837,-4.9689,-4.9522,-4.9429,-4.9299,-4.9427,-4.915,-4.8927,-4.9092,-4.9315,-4.9554,-4.9754,-4.987,-5.0178,-5.0432,-4.1604,-4.1604,-4.1604,-4.1604,-4.1622,-4.1745,-4.2605,-4.3834,-4.4044,-4.4904,-4.6214,-4.6214,-4.6214,-4.6165,-4.6073,-4.5965,-4.5871,-4.5846,-4.5914,-4.5922,-4.5922,-4.5947,-4.5965,-4.5972,-4.6048,-4.6015,-4.6122,-4.614,-4.6115,-4.6165,-4.6214,-4.6214,-4.6214,-4.6214,-4.6214,-4.6214,-4.6214,-4.6214,-4.6214,-4.6214,-4.6214,-4.6214,-4.6214,-4.6405,-4.6908,-4.7442,-4.7632,-4.8212,-4.8714,-4.8855,-4.889,-4.889,-4.889,-4.889,-4.9317,-4.9522,-4.9392,-4.8909,-4.9169,-4.9633,-4.9968,-5.0098,-5.0506,-5.1045,-5.1231,-5.1361,-5.1454,-5.1342,-5.2011,-5.2438,-5.2587,-5.3051,-5.3348,-5.3367,-5.3348,-5.3534,-5.3627,-5.3478,-5.3757,-5.3775,-5.307,-5.2791,-5.2549,-5.1899,-5.1361,-5.1379,-5.1416,-5.1509,-5.1491,-5.1379,-5.0989,-5.0822,-5.0748,-5.0506,-5.0376,-5.0488,-5.058,-5.0729,-5.0729,-5.0729,-5.058,-5.0395,-5.0395,-5.0283,-5.0098,-4.9819,-4.9615,-4.9373,-4.9092,-4.9127,-4.9423,-4.9488,-4.9457,-4.9836,-5.0287,-4.1604,-4.1604,-4.1604,-4.1604,-4.1604,-4.1604,-4.2482,-4.3676,-4.3904,-4.4764,-4.6003,-4.6214,-4.6165,-4.6073,-4.5947,-4.5871,-4.5821,-4.5871,-4.5871,-4.5965,-4.5972,-4.6005,-4.6023,-4.6073,-4.6097,-4.6122,-4.6147,-4.6172,-4.6147,-4.6147,-4.6214,-4.6214,-4.6214,-4.6214,-4.6214,-4.6214,-4.6214,-4.6214,-4.6214,-4.6214,-4.6214,-4.6214,-4.6214,-4.6214,-4.6666,-4.7111,-4.7611,-4.7879,-4.8458,-4.8713,-4.889,-4.889,-4.9039,-4.9317,-4.98,-5.0005,-5.032,-5.0339,-5.0413,-5.0673,-5.0785,-5.0878,-5.1249,-5.1509,-5.1974,-5.2457,-5.2698,-5.2791,-5.307,-5.3237,-5.3255,-5.359,-5.372,-5.3813,-5.3813,-5.3813,-5.3813,-5.3813,-5.3813,-5.3813,-5.3775,-5.3441,-5.32,-5.2902,-5.2494,-5.2549,-5.2605,-5.2698,-5.2587,-5.2364,-5.1881,-5.1286,-5.1249,-5.1193,-5.1119,-5.1119,-5.1138,-5.1231,-5.1231,-5.1231,-5.1231,-5.1175,-5.1212,-5.1119,-5.0915,-5.0599,-5.019,-4.9706,-4.9332,-4.9278,-4.9305,-4.9559,-4.9771,-4.9773,-5.0304,-4.1363,-4.1453,-4.1542,-4.1604,-4.1604,-4.1604,-4.2482,-4.3799,-4.3886,-4.4764,-4.5881,-4.6214,-4.6122,-4.5998,-4.5939,-4.5889,-4.5871,-4.5947,-4.5947,-4.5998,-4.6073,-4.6122,-4.6122,-4.6147,-4.6189,-4.6214,-4.6189,-4.6189,-4.6214,-4.6214,-4.6214,-4.6214,-4.6214,-4.6214,-4.6214,-4.6214,-4.6214,-4.6214,-4.6214,-4.6214,-4.6214,-4.6214,-4.6214,-4.627,-4.6495,-4.6886,-4.7467,-4.7939,-4.8402,-4.9065,-4.928,-4.941,-4.9745,-5.019,-5.0636,-5.0933,-5.1342,-5.1751,-5.1788,-5.1881,-5.1751,-5.1751,-5.1974,-5.2419,-5.2828,-5.3515,-5.3794,-5.3608,-5.3664,-5.3738,-5.3794,-5.3794,-5.3794,-5.3813,-5.3813,-5.3813,-5.3813,-5.3813,-5.3813,-5.3813,-5.3813,-5.3813,-5.3645,-5.372,-5.3683,-5.372,-5.3794,-5.3813,-5.3534,-5.3144,-5.2828,-5.2234,-5.2271,-5.2271,-5.2215,-5.2104,-5.1992,-5.1881,-5.1862,-5.1992,-5.2159,-5.2159,-5.2159,-5.1992,-5.1732,-5.1342,-5.0933,-5.0226,-4.9629,-4.9994,-5.0264,-5.0183,-5.0213,-5.0193,-5.0559,-4.0707,-4.1071,-4.1453,-4.1604,-4.1604,-4.1604,-4.2482,-4.3781,-4.3851,-4.4782,-4.6091,-4.6189,-4.6115,-4.6023,-4.5972,-4.5947,-4.5972,-4.5998,-4.6048,-4.6122,-4.6214,-4.6189,-4.6189,-4.6189,-4.6214,-4.6214,-4.6214,-4.6214,-4.6214,-4.6214,-4.6214,-4.6214,-4.6214,-4.6214,-4.6214,-4.6214,-4.6214,-4.6214,-4.6214,-4.6214,-4.6214,-4.6214,-4.6214,-4.6398,-4.6954,-4.7548,-4.7653,-4.8357,-4.9196,-4.9969,-5.0042,-5.0283,-5.0729,-5.1101,-5.1509,-5.1936,-5.2308,-5.2754,-5.3014,-5.281,-5.2549,-5.2717,-5.3014,-5.333,-5.3497,-5.3664,-5.3813,-5.3813,-5.3813,-5.3813,-5.3813,-5.3813,-5.3813,-5.3813,-5.3813,-5.3813,-5.3813,-5.3813,-5.3813,-5.3813,-5.3813,-5.3813,-5.3813,-5.3813,-5.3813,-5.3813,-5.3813,-5.3813,-5.3813,-5.3534,-5.3608,-5.3404,-5.346,-5.3497,-5.3534,-5.3348,-5.2977,-5.2902,-5.2921,-5.3125,-5.3367,-5.3292,-5.2921,-5.2754,-5.2475,-5.2067,-5.1769,-5.1453,-5.123,-5.123,-5.1172,-5.0863,-5.1047,-5.1293,-5.1717,-4.0866,-4.103,-4.1448,-4.1604,-4.1604,-4.1604,-4.2219,-4.3202,-4.3711,-4.4782,-4.6214,-4.614,-4.6048,-4.6023,-4.5998,-4.5998,-4.5998,-4.6097,-4.6165,-4.6189,-4.6214,-4.6214,-4.6214,-4.6214,-4.6214,-4.6214,-4.6214,-4.6214,-4.6214,-4.6214,-4.6214,-4.6214,-4.6214,-4.6214,-4.6214,-4.6214,-4.6232,-4.6232,-4.6214,-4.6214,-4.6214,-4.6214,-4.6214,-4.627,-4.7005,-4.7792,-4.8323,-4.9136,-5.0002,-5.0657,-5.0878,-5.1193,-5.1546,-5.1918,-5.2289,-5.2679,-5.3014,-5.3441,-5.3664,-5.3497,-5.3367,-5.3367,-5.3627,-5.3813,-5.3813,-5.3813,-5.3813,-5.3813,-5.3813,-5.3813,-5.3813,-5.3813,-5.3813,-5.3813,-5.3813,-5.3813,-5.3813,-5.3813,-5.3813,-5.3813,-5.3813,-5.3813,-5.3813,-5.3813,-5.3813,-5.3813,-5.3813,-5.3813,-5.3813,-5.3813,-5.3813,-5.3813,-5.3813,-5.3813,-5.3813,-5.3813,-5.3813,-5.3813,-5.3813,-5.3813,-5.3813,-5.3757,-5.346,-5.3348,-5.3255,-5.2995,-5.2847,-5.2884,-5.2605,-5.2029,-5.1621,-5.1304,-5.1684,-5.2296,-5.2802,-4.089,-4.1047,-4.1448,-4.1604,-4.1604,-4.1604,-4.2061,-4.2851,-4.3588,-4.4764,-4.6179,-4.6097,-4.6048,-4.6073,-4.6073,-4.6073,-4.6097,-4.6147,-4.6189,-4.6214,-4.6214,-4.6214,-4.6214,-4.6214,-4.6214,-4.6214,-4.6214,-4.6214,-4.6214,-4.6214,-4.6214,-4.6214,-4.6214,-4.6214,-4.6214,-4.6232,-4.6319,-4.6477,-4.6284,-4.66,-4.6758,-4.6688,-4.6828,-4.6983,-4.7735,-4.8407,-4.9111,-4.9846,-5.0694,-5.1379,-5.1788,-5.1918,-5.2252,-5.2587,-5.2902,-5.3162,-5.3404,-5.3794,-5.3813,-5.3813,-5.3813,-5.372,-5.3738,-5.3813,-5.3813,-5.3813,-5.3813,-5.3813,-5.3813,-5.3813,-5.3813,-5.3813,-5.3813,-5.3813,-5.3813,-5.3813,-5.3813,-5.3813,-5.3813,-5.3813,-5.3813,-5.3813,-5.3813,-5.3813,-5.3813,-5.3813,-5.3813,-5.3813,-5.3813,-5.3813,-5.3813,-5.3813,-5.3813,-5.3813,-5.3813,-5.3813,-5.3813,-5.3813,-5.3813,-5.3813,-5.3813,-5.3813,-5.3813,-5.3627,-5.3627,-5.3814,-5.374,-5.3516,-5.3014,-5.2457,-5.2271,-5.227,-5.2708,-5.3318,-5.3709,-4.0659,-4.1047,-4.1431,-4.1604,-4.1604,-4.1604,-4.2043,-4.2745,-4.357,-4.4782,-4.6109,-4.6172,-4.6172,-4.6189,-4.6172,-4.6147,-4.6165,-4.6189,-4.6214,-4.6214,-4.6214,-4.6214,-4.6214,-4.6214,-4.6214,-4.6214,-4.6214,-4.6214,-4.6214,-4.6214,-4.6214,-4.6267,-4.6319,-4.6389,-4.6249,-4.6249,-4.6618,-4.7151,-4.6635,-4.7232,-4.7758,-4.7608,-4.7713,-4.8186,-4.8763,-4.9376,-5.0083,-5.0681,-5.1547,-5.2362,-5.2587,-5.2847,-5.3348,-5.3403,-5.3532,-5.3587,-5.3624,-5.3756,-5.3793,-5.3813,-5.3813,-5.3813,-5.3813,-5.3813,-5.3813,-5.3813,-5.3813,-5.3813,-5.3813,-5.3813,-5.3813,-5.3813,-5.3813,-5.3813,-5.3813,-5.3813,-5.3813,-5.3813,-5.3813,-5.3813,-5.3813,-5.3813,-5.3813,-5.3813,-5.3813,-5.3813,-5.3813,-5.3813,-5.3813,-5.3813,-5.3813,-5.3813,-5.3813,-5.3813,-5.3813,-5.3813,-5.3813,-5.3813,-5.3813,-5.3813,-5.3813,-5.3813,-5.3813,-5.3813,-5.3832,-5.387,-5.3963,-5.3979,-5.3641,-5.3358,-5.3479,-5.3572,-5.3955,-5.4239,-5.4484,-4.0635,-4.1024,-4.1431,-4.1604,-4.1604,-4.1604,-4.1797,-4.2201,-4.336,-4.4782,-4.5986,-4.6214,-4.6214,-4.6214,-4.6214,-4.6214,-4.6214,-4.6214,-4.6214,-4.6214,-4.6214,-4.6214,-4.6214,-4.6214,-4.6214,-4.6214,-4.6214,-4.6214,-4.6214,-4.6214,-4.6214,-4.6267,-4.6705,-4.6993,-4.7187,-4.7397,-4.7933,-4.8064,-4.7898,-4.8004,-4.8407,-4.8328,-4.8428,-4.9054,-4.9659,-5.0329,-5.106,-5.1606,-5.2334,-5.3046,-5.3159,-5.3383,-5.3602,-5.3542,-5.3343,-5.3324,-5.3324,-5.3484,-5.3698,-5.3813,-5.3813,-5.3813,-5.3813,-5.3813,-5.3813,-5.3813,-5.3813,-5.3813,-5.3813,-5.3813,-5.3813,-5.3813,-5.3813,-5.3813,-5.3813,-5.3813,-5.3813,-5.3813,-5.3813,-5.3813,-5.3813,-5.3813,-5.3813,-5.3813,-5.3813,-5.3813,-5.3813,-5.3813,-5.3813,-5.3813,-5.3813,-5.3813,-5.3813,-5.3813,-5.3813,-5.3813,-5.3813,-5.3813,-5.3813,-5.3813,-5.3813,-5.3813,-5.3851,-5.387,-5.387,-5.387,-5.4124,-5.433,-5.4463,-5.4425,-5.4315,-5.4212,-5.4307,-5.4621,-5.5002,-4.0458,-4.0802,-4.1076,-4.1277,-4.1408,-4.1538,-4.1745,-4.2201,-4.336,-4.4641,-4.5653,-4.6056,-4.6214,-4.6214,-4.6214,-4.6214,-4.6214,-4.6214,-4.6214,-4.6214,-4.6214,-4.6214,-4.6214,-4.6214,-4.6214,-4.6214,-4.6214,-4.6214,-4.6214,-4.6214,-4.6214,-4.646,-4.7239,-4.7696,-4.7941,-4.824,-4.8608,-4.8661,-4.8661,-4.8749,-4.9118,-4.9214,-4.9238,-4.9804,-5.0385,-5.0932,-5.1678,-5.2324,-5.2824,-5.3182,-5.3306,-5.3306,-5.3203,-5.3038,-5.2824,-5.2824,-5.3057,-5.3304,-5.3678,-5.3813,-5.3813,-5.3813,-5.3813,-5.3813,-5.3813,-5.3813,-5.3813,-5.3813,-5.3813,-5.3813,-5.3813,-5.3813,-5.3813,-5.3813,-5.3813,-5.3813,-5.3813,-5.3813,-5.3813,-5.3813,-5.3813,-5.3813,-5.3813,-5.3813,-5.3813,-5.3813,-5.3813,-5.3813,-5.3813,-5.3813,-5.3813,-5.3813,-5.3813,-5.3813,-5.3813,-5.3813,-5.3813,-5.3813,-5.3813,-5.3813,-5.3889,-5.3926,-5.3926,-5.3999,-5.4177,-5.433,-5.4495,-5.4654,-5.4806,-5.4836,-5.4746,-5.4685,-5.4654,-5.4938,-5.5314,-4.0104,-4.0392,-4.04,-4.0659,-4.1047,-4.1431,-4.2026,-4.2833,-4.357,-4.436,-4.5168,-4.5916,-4.6196,-4.6214,-4.6214,-4.6214,-4.6214,-4.6214,-4.6214,-4.6214,-4.6214,-4.6214,-4.6214,-4.6214,-4.6214,-4.6214,-4.6214,-4.6214,-4.6214,-4.6214,-4.6214,-4.6547,-4.7635,-4.817,-4.8433,-4.8854,-4.9223,-4.9469,-4.9381,-4.9644,-5.0083,-5.0039,-5.018,-5.0602,-5.0971,-5.1272,-5.1687,-5.197,-5.2131,-5.234,-5.2436,-5.2391,-5.2345,-5.2281,-5.2299,-5.2436,-5.2824,-5.3203,-5.3698,-5.3813,-5.3813,-5.3813,-5.3813,-5.3813,-5.3813,-5.3813,-5.3813,-5.3813,-5.3813,-5.3813,-5.3813,-5.3813,-5.3813,-5.3813,-5.3813,-5.3813,-5.3813,-5.3813,-5.3813,-5.3813,-5.3813,-5.3813,-5.3813,-5.3813,-5.3813,-5.3813,-5.3813,-5.3813,-5.3813,-5.3813,-5.3813,-5.3813,-5.3813,-5.3813,-5.3813,-5.3813,-5.3813,-5.3813,-5.3813,-5.3832,-5.3926,-5.4036,-5.4107,-5.4245,-5.4591,-5.4791,-5.4866,-5.4981,-5.5151,-5.5151,-5.5119,-5.5069,-5.5009,-5.5145,-5.5456,-4.0079,-4.0375,-4.04,-4.0635,-4.1024,-4.1431,-4.2061,-4.2828,-4.3588,-4.4343,-4.515,-4.5863,-4.6144,-4.6214,-4.6214,-4.6214,-4.6214,-4.6214,-4.6214,-4.6214,-4.6214,-4.6214,-4.6214,-4.6214,-4.6214,-4.6214,-4.6214,-4.6214,-4.6214,-4.6214,-4.6214,-4.646,-4.7836,-4.8398,-4.8977,-4.9644,-5.0101,-5.0311,-5.0101,-5.0399,-5.0697,-5.0575,-5.0841,-5.1114,-5.1245,-5.1518,-5.1788,-5.1916,-5.2107,-5.2183,-5.2276,-5.2299,-5.2299,-5.2036,-5.1861,-5.2276,-5.2567,-5.2871,-5.3601,-5.3813,-5.3813,-5.3813,-5.3813,-5.3813,-5.3813,-5.3813,-5.3813,-5.3813,-5.3813,-5.3813,-5.3887,-5.3905,-5.3868,-5.3813,-5.3868,-5.3943,-5.3924,-5.3813,-5.3813,-5.3813,-5.3813,-5.3813,-5.3813,-5.3813,-5.3813,-5.3813,-5.3813,-5.3813,-5.3813,-5.3813,-5.3813,-5.3813,-5.3813,-5.3813,-5.3813,-5.3813,-5.3813,-5.3813,-5.3813,-5.3832,-5.3944,-5.4072,-5.4229,-5.4509,-5.489,-5.5064,-5.5151,-5.5301,-5.5413,-5.5508,-5.5508,-5.5437,-5.5408,-5.548,-5.5539,-3.9807,-3.9944,-3.9978,-4.0204,-4.0621,-4.1134,-4.1677,-4.2207,-4.3062,-4.3904,-4.4676,-4.5414,-4.5916,-4.6196,-4.6214,-4.6214,-4.6214,-4.6214,-4.6214,-4.6214,-4.6214,-4.6214,-4.6214,-4.6214,-4.6214,-4.6214,-4.6214,-4.6214,-4.6214,-4.6249,-4.6267,-4.6828,-4.8047,-4.8608,-4.9258,-5.0101,-5.0715,-5.0838,-5.0838,-5.0891,-5.0891,-5.0891,-5.1097,-5.1245,-5.1349,-5.1525,-5.1714,-5.1788,-5.1764,-5.1764,-5.1739,-5.1739,-5.1806,-5.1601,-5.1813,-5.2229,-5.2611,-5.3059,-5.3678,-5.3813,-5.3813,-5.3813,-5.3813,-5.3813,-5.3813,-5.3813,-5.3813,-5.3813,-5.3813,-5.3831,-5.3943,-5.4035,-5.3943,-5.385,-5.398,-5.4128,-5.3998,-5.3831,-5.3813,-5.3813,-5.3813,-5.3813,-5.3813,-5.3813,-5.3813,-5.3813,-5.3813,-5.3813,-5.3813,-5.3813,-5.3813,-5.3813,-5.3813,-5.3813,-5.3813,-5.3813,-5.3813,-5.3813,-5.3813,-5.3851,-5.3981,-5.4298,-5.4604,-5.49,-5.5205,-5.5332,-5.5413,-5.552,-5.564,-5.5684,-5.5684,-5.5607,-5.5551,-5.5604,-5.566,-3.9315,-3.9309,-3.9352,-3.9625,-3.9986,-4.0669,-4.0995,-4.1093,-4.212,-4.3097,-4.3951,-4.4782,-4.5547,-4.6091,-4.6214,-4.6214,-4.6214,-4.6214,-4.6214,-4.6214,-4.6214,-4.6214,-4.6214,-4.6214,-4.6214,-4.6214,-4.6214,-4.6214,-4.6214,-4.6267,-4.6582,-4.7415,-4.8135,-4.8802,-4.9574,-5.0399,-5.0873,-5.0891,-5.0891,-5.0891,-5.0891,-5.0891,-5.0891,-5.0918,-5.0945,-5.0981,-5.0972,-5.0945,-5.0891,-5.0918,-5.0945,-5.1008,-5.1132,-5.128,-5.169,-5.2183,-5.2589,-5.3162,-5.3601,-5.3813,-5.3813,-5.3813,-5.3813,-5.3813,-5.3813,-5.3813,-5.3813,-5.3813,-5.3813,-5.4054,-5.4221,-5.4481,-5.4518,-5.4667,-5.489,-5.4927,-5.4797,-5.4481,-5.4073,-5.3998,-5.3813,-5.3813,-5.3813,-5.3813,-5.3813,-5.3813,-5.3813,-5.3813,-5.3813,-5.3813,-5.3813,-5.3813,-5.3813,-5.3813,-5.3813,-5.3813,-5.3813,-5.3813,-5.3813,-5.3944,-5.4125,-5.4541,-5.5037,-5.5263,-5.5466,-5.5566,-5.5651,-5.5684,-5.5684,-5.5684,-5.5684,-5.5684,-5.5703,-5.5692,-5.5703,-3.9315,-3.9342,-3.9642,-3.9824,-3.9935,-4.036,-4.0724,-4.0995,-4.0944,-4.2094,-4.3781,-4.4688,-4.5495,-4.6077,-4.6189,-4.6214,-4.6214,-4.6214,-4.6214,-4.6214,-4.6214,-4.6214,-4.6214,-4.6214,-4.6214,-4.6214,-4.6214,-4.6214,-4.6214,-4.6302,-4.6618,-4.7432,-4.8187,-4.896,-4.9802,-5.0575,-5.0873,-5.0891,-5.0891,-5.0891,-5.0891,-5.0891,-5.0891,-5.0891,-5.0891,-5.0891,-5.0891,-5.0891,-5.0891,-5.0918,-5.0891,-5.0918,-5.0918,-5.1061,-5.15,-5.2154,-5.2544,-5.3101,-5.3543,-5.3813,-5.3813,-5.3813,-5.3813,-5.3813,-5.3813,-5.3813,-5.3813,-5.3813,-5.3961,-5.4258,-5.4593,-5.489,-5.5206,-5.5522,-5.5819,-5.5744,-5.5633,-5.5076,-5.4481,-5.4221,-5.398,-5.3868,-5.3887,-5.3813,-5.3813,-5.3813,-5.3813,-5.3813,-5.3813,-5.3813,-5.3813,-5.3813,-5.3813,-5.3813,-5.3813,-5.3813,-5.3813,-5.3813,-5.3813,-5.3999,-5.4245,-5.4802,-5.5307,-5.5497,-5.5673,-5.5684,-5.5684,-5.5684,-5.5684,-5.5684,-5.5684,-5.5684,-5.5684,-5.5703,-5.5703,-3.9315,-3.9325,-3.9537,-3.9642,-3.972,-4.0028,-4.0303,-4.0476,-4.0417,-4.1312,-4.2864,-4.3885,-4.4907,-4.584,-4.6097,-4.6189,-4.6189,-4.6214,-4.6214,-4.6214,-4.6214,-4.6214,-4.6214,-4.6214,-4.6214,-4.6214,-4.6214,-4.6214,-4.6214,-4.6319,-4.667,-4.7696,-4.8451,-4.91,-5.0039,-5.068,-5.0891,-5.0891,-5.0891,-5.0891,-5.0891,-5.0891,-5.0891,-5.0891,-5.0891,-5.0891,-5.0891,-5.0891,-5.0891,-5.0891,-5.0891,-5.0891,-5.1061,-5.1408,-5.1788,-5.2299,-5.2747,-5.3205,-5.3621,-5.3813,-5.3813,-5.3813,-5.3813,-5.3813,-5.3813,-5.3813,-5.3813,-5.385,-5.4388,-5.4723,-5.5187,-5.554,-5.5837,-5.6153,-5.6469,-5.6599,-5.6265,-5.5763,-5.5466,-5.5354,-5.4983,-5.45,-5.437,-5.3943,-5.3905,-5.3831,-5.3831,-5.3868,-5.3868,-5.3924,-5.3887,-5.3813,-5.3813,-5.3813,-5.3813,-5.3813,-5.3813,-5.3813,-5.3813,-5.4125,-5.4446,-5.5059,-5.5531,-5.5618,-5.5662,-5.5684,-5.5684,-5.5684,-5.5684,-5.5684,-5.5684,-5.5684,-5.5684,-5.5684,-5.5684,-3.9315,-3.9315,-3.9315,-3.9315,-3.9352,-3.9668,-3.9833,-3.9867,-4.0087,-4.0603,-4.1537,-4.261,-4.3966,-4.5077,-4.5854,-4.6005,-4.6097,-4.6023,-4.6073,-4.6189,-4.6214,-4.6214,-4.6214,-4.6214,-4.6214,-4.6214,-4.6214,-4.6214,-4.6214,-4.6302,-4.6828,-4.8091,-4.8784,-4.9276,-5.0329,-5.0855,-5.0891,-5.0891,-5.0891,-5.0891,-5.0891,-5.0891,-5.0891,-5.0891,-5.0891,-5.0891,-5.0891,-5.0891,-5.0891,-5.0891,-5.0918,-5.1008,-5.1184,-5.1601,-5.2101,-5.2544,-5.302,-5.3445,-5.3756,-5.3813,-5.3813,-5.3813,-5.3813,-5.3813,-5.3813,-5.3813,-5.3813,-5.4073,-5.4593,-5.5206,-5.567,-5.6227,-5.6543,-5.6896,-5.723,-5.7342,-5.6896,-5.6469,-5.6413,-5.6339,-5.58,-5.5243,-5.489,-5.4444,-5.4184,-5.4073,-5.3998,-5.398,-5.4017,-5.4147,-5.4184,-5.398,-5.3813,-5.3813,-5.3813,-5.3813,-5.3813,-5.3813,-5.3851,-5.4231,-5.4607,-5.5091,-5.5425,-5.5554,-5.5618,-5.5673,-5.5684,-5.5684,-5.5684,-5.5684,-5.5684,-5.5684,-5.5684,-5.5684,-5.5684,-3.9315,-3.9315,-3.9315,-3.9315,-3.9299,-3.9379,-3.9451,-3.9428,-3.9222,-3.9576,-4.045,-4.1462,-4.276,-4.4171,-4.4875,-4.5311,-4.5709,-4.5752,-4.5998,-4.6147,-4.6172,-4.6214,-4.6214,-4.6214,-4.6214,-4.6214,-4.6214,-4.6214,-4.6214,-4.6249,-4.6635,-4.7643,-4.8355,-4.9012,-4.982,-5.0382,-5.0891,-5.0891,-5.0891,-5.0891,-5.0891,-5.0891,-5.0891,-5.0891,-5.0891,-5.0891,-5.0891,-5.0891,-5.0891,-5.0891,-5.0918,-5.1097,-5.1408,-5.175,-5.2196,-5.274,-5.3244,-5.3504,-5.3698,-5.3793,-5.3813,-5.3813,-5.3813,-5.3813,-5.3813,-5.3813,-5.385,-5.398,-5.4556,-5.541,-5.6023,-5.6915,-5.7398,-5.7862,-5.8252,-5.7918,-5.7509,-5.7268,-5.7138,-5.6803,-5.6339,-5.6079,-5.5967,-5.554,-5.5169,-5.5057,-5.4946,-5.4909,-5.4797,-5.4686,-5.4574,-5.4333,-5.4073,-5.3813,-5.3813,-5.3813,-5.3813,-5.3813,-5.3889,-5.4178,-5.4528,-5.4966,-5.5269,-5.5437,-5.5596,-5.5684,-5.5684,-5.5684,-5.5684,-5.5684,-5.5684,-5.5684,-5.5684,-5.5695,-5.5714]},{"header":{"parameterUnit":"m.s-1","parameterCategory":1,"la1":31.0,"la2":29.5877,"lo1":-88.7671,"lo2":-86.6584,"dy":0.0162,"dx":0.0185,"nx":115,"ny":88,"refTime":"2025-11-06T12:00:00:Z","depth":0,"parameterNumber":3,"parameterNumberName":"V-component_of_WINDS"},"data":[0.0,0.0,0.0,0.0,0.0,0.0,0.0,0.0,0.0,0.0,0.0,0.0,0.0,0.0,0.0,0.0,0.0,0.0,0.0,0.0,0.0,0.0,0.0,0.0,0.0,0.0,0.0,0.0,0.0,0.0,0.0,0.0,0.0,0.0,0.0,0.0,0.0,0.0,0.0,0.0,0.0,0.0,0.0,0.0,0.0,0.0,0.0,0.0,0.0,0.0,0.0,0.0,0.0,0.0,0.0,0.0,0.0,0.0,0.0,0.0,0.0,0.0,0.0,0.0,0.0,0.0,0.0,0.0,0.0,0.0,0.0,0.0,0.0,0.0,0.0,0.0,0.0,0.0,0.0,0.0,0.0,0.0,0.0,0.0,0.0,0.0,0.0,0.0,0.0,0.0,0.0,0.0,0.0,0.0,0.0,0.0,0.0,0.0,0.0,0.0,0.0,0.0,0.0,0.0,0.0,0.0,0.0,0.0,0.0,0.0,0.0,0.0,0.0,0.0,0.0,0.0,0.0,0.0,0.0,0.0,0.0,0.0,0.0,0.0,0.0,0.0,0.0,0.0,0.0,0.0,0.0,0.0,0.0,0.0,0.0,0.0,0.0,0.0,0.0,0.0,0.0,0.0,0.0,0.0,0.0,0.0,0.0,0.0,0.0,0.0,0.0,0.0,0.0,0.0,0.0,0.0,0.0,0.0,0.0,0.0,0.0,0.0,0.0,0.0,0.0,0.0,0.0,0.0,0.0,0.0,0.0,0.0,0.0,0.0,0.0,0.0,0.0,0.0,0.0,0.0,0.0,0.0,0.0,0.0,0.0,0.0,0.0,0.0,0.0,0.0,0.0,0.0,0.0,0.0,0.0,0.0,0.0,0.0,0.0,0.0,0.0,0.0,0.0,0.0,0.0,0.0,0.0,0.0,0.0,0.0,0.0,0.0,0.0,0.0,0.0,0.0,0.0,0.0,0.0,0.0,0.0,0.0,0.0,0.0,0.0,0.0,0.0,0.0,0.0,0.0,0.0,0.0,0.0,0.0,0.0,0.0,0.0,0.0,0.0,0.0,0.0,0.0,0.0,0.0,0.0,0.0,0.0,0.0,0.0,0.0,0.0,0.0,0.0,0.0,0.0,0.0,0.0,0.0,0.0,0.0,0.0,0.0,0.0,0.0,0.0,0.0,0.0,0.0,0.0,0.0,0.0,0.0,0.0,0.0,0.0,0.0,0.0,0.0,0.0,0.0,0.0,0.0,0.0,0.0,0.0,0.0,0.0,0.0,0.0,0.0,0.0,0.0,0.0,0.0,0.0,0.0,0.0,0.0,0.0,0.0,0.0,0.0,0.0,0.0,0.0,0.0,0.0,0.0,0.0,0.0,0.0,0.0,0.0,0.0,0.0,0.0,0.0,0.0,0.0,0.0,0.0,0.0,0.0,0.0,0.0,0.0,0.0,0.0,0.0,0.0,0.0,0.0,0.0,0.0,0.0,0.0,0.0,0.0,0.0,0.0,0.0,0.0,0.0,0.0,0.0,0.0,0.0,0.0,0.0,0.0,0.0,0.0,0.0,0.0,0.0,0.0,0.0,0.0,0.0,0.0,0.0,0.0,0.0,0.0,0.0,0.0,0.0,0.0,0.0,0.0,0.0,0.0,0.0,0.0,0.0,0.0,0.0,0.0,0.0,0.0,0.0,0.0,0.0,0.0,0.0,0.0,0.0,0.0,0.0,0.0,0.0,0.0,0.0,0.0,0.0,0.0,0.0,0.0,0.0,0.0,0.0,0.0,0.0,0.0,0.0,0.0,0.0,0.0,0.0,0.0,0.0,0.0,0.0,0.0,0.0,0.0,0.0,0.0,0.0,0.0,0.0,0.0,0.0,0.0,0.0,0.0,0.0,0.0,0.0,0.0,0.0,0.0,0.0,0.0,0.0,0.0,0.0,0.0,0.0,0.0,0.0,0.0,0.0,0.0,0.0,0.0,0.0,0.0,0.0,0.0,0.0,0.0,0.0,0.0,0.0,0.0,0.0,0.0,0.0,0.0,0.0,0.0,0.0,0.0,0.0,0.0,0.0,0.0,0.0,0.0,0.0,0.0,0.0,0.0,0.0,0.0,0.0,0.0,0.0,0.0,0.0,0.0,0.0,0.0,0.0,0.0,0.0,0.0,0.0,0.0,0.0,0.0,0.0,0.0,0.0,0.0,0.0,0.0,0.0,0.0,0.0,0.0,0.0,0.0,0.0,0.0,0.0,0.0,0.0,0.0,0.0,0.0,0.0,0.0,0.0,0.0,0.0,0.0,0.0,0.0,0.0,0.0,0.0,0.0,0.0,0.0,0.0,0.0,0.0,0.0,0.0,0.0,0.0,0.0,0.0,0.0,0.0,0.0,0.0,0.0,0.0,0.0,0.0,0.0,0.0,0.0,0.0,0.0,0.0,0.0,0.0,0.0,0.0,0.0,0.0,0.0,0.0,0.0,0.0,0.0,0.0,0.0,0.0,0.0,0.0,0.0,0.0,0.0,0.0,0.0,0.0,0.0,0.0,0.0,0.0,0.0,0.0,0.0,0.0,0.0,0.0,0.0,0.0,0.0,0.0,0.0,0.0,0.0,0.0,0.0,0.0,0.0,0.0,0.0,0.0,0.0,0.0,0.0,0.0,0.0,0.0,0.0,0.0,0.0,0.0,0.0,0.0,0.0,0.0,0.0,0.0,0.0,0.0,0.0,0.0,0.0,0.0,0.0,0.0,0.0,0.0,0.0,0.0,0.0,0.0,0.0,0.0,0.0,0.0,0.0,0.0,0.0,0.0,0.0,0.0,0.0,0.0,0.0,0.0,0.0,0.0,0.0,0.0,0.0,0.0,0.0,0.0,0.0,0.0,0.0,0.0,0.0,0.0,0.0,0.0,0.0,0.0,0.0,0.0,0.0,0.0,0.0,0.0,0.0,0.0,0.0,0.0,0.0,0.0,0.0,0.0,0.0,0.0,0.0,0.0,0.0,0.0,0.0,0.0,0.0,0.0,0.0,0.0,0.0,0.0,0.0,0.0,0.0,0.0,0.0,0.0,0.0,0.0,0.0,0.0,0.0,0.0,0.0,0.0,0.0,0.0,0.0,0.0,0.0,0.0,0.0,0.0,0.0,0.0,0.0,0.0,0.0,0.0,0.0,0.0,0.0,0.0,0.0,0.0,0.0,0.0,0.0,0.0,0.0,0.0,0.0,0.0,0.0,0.0,0.0,0.0,0.0,0.0,0.0,0.0,0.0,0.0,0.0,0.0,0.0,0.0,0.0,0.0,0.0,0.0,0.0,0.0,0.0,0.0,0.0,0.0,0.0,0.0,0.0,0.0,0.0,0.0,0.0,0.0,0.0,0.0,0.0,0.0,0.0,0.0,0.0,0.0,0.0,0.0,0.0,0.0,0.0,0.0,0.0,0.0,0.0,0.0,0.0,0.0,0.0,0.0,0.0,0.0,0.0,0.0,0.0,0.0,0.0,0.0,0.0,0.0,0.0,0.0,0.0,0.0,0.0,0.0,0.0,0.0,0.0,0.0,0.0,0.0,0.0,0.0,0.0,0.0,0.0,0.0,0.0,0.0,0.0,0.0,0.0,0.0,0.0,0.0,0.0,0.0,0.0,0.0,0.0,0.0,0.0,0.0,0.0,0.0,0.0,0.0,0.0,0.0,0.0,0.0,0.0,0.0,0.0,0.0,0.0,0.0,0.0,0.0,0.0,0.0,0.0,0.0,0.0,0.0,0.0,0.0,0.0,0.0,0.0,0.0,0.0,0.0,0.0,0.0,0.0,0.0,0.0,0.0,0.0,0.0,0.0,0.0,0.0,0.0,0.0,0.0,0.0,0.0,0.0,0.0,0.0,0.0,0.0,0.0,0.0,0.0,0.0,0.0,0.0,0.0,0.0,0.0,0.0,0.0,0.0,0.0,0.0,0.0,0.0,0.0,0.0,0.0,0.0,0.0,0.0,0.0,0.0,0.0,0.0,0.0,0.0,0.0,0.0,0.0,0.0,0.0,0.0,0.0,0.0,0.0,0.0,0.0,0.0,0.0,0.0,0.0,0.0,0.0,0.0,0.0,0.0,0.0,0.0,0.0,0.0,0.0,0.0,0.0,0.0,0.0,0.0,0.0,0.0,0.0,0.0,0.0,0.0,0.0,0.0,0.0,0.0,0.0,0.0,0.0,0.0,0.0,0.0,0.0,0.0,0.0,0.0,0.0,0.0,0.0,0.0,0.0,0.0,0.0,0.0,0.0,0.0,0.0,0.0,-0.2097,0.0,0.0,0.0,0.0,0.0,0.0,0.0,0.0,0.0,0.0,0.0,0.0,0.0,0.0,0.0,0.0,0.0,0.0,0.0,0.0,0.0,0.0,0.0,0.0,0.0,0.0,0.0,0.0,0.0,0.0,0.0,0.0,0.0,0.0,0.0,0.0,0.0,0.0,0.0,0.0,0.0,0.0,0.0,0.0,0.0,0.0,0.0,0.0,0.0,0.0,0.0,0.0,0.0,0.0,0.0,0.0,0.0,0.0,0.0,0.0,0.0,0.0,0.0,0.0,0.0,0.0,0.0,0.0,0.0,0.0,0.0,0.0,0.0,0.0,0.0,0.0,0.0,0.0,0.0,0.0,0.0,0.0,0.0,0.0,0.0,0.0,0.0,0.0,0.0,0.0,0.0,0.0,0.0,0.0,0.0,0.0,0.0,0.0,0.0,0.0,0.0,0.0,0.0,0.0,0.0,0.0,0.0,0.0,0.0,0.0,-0.2097,-0.2097,-0.2097,-0.2097,-0.2097,0.0,0.0,0.0,0.0,0.0,0.0,0.0,0.0,0.0,0.0,0.0,0.0,0.0,0.0,0.0,0.0,0.0,0.0,0.0,0.0,0.0,0.0,0.0,0.0,0.0,0.0,0.0,0.0,0.0,0.0,0.0,0.0,0.0,0.0,0.0,0.0,0.0,0.0,0.0,0.0,0.0,0.0,0.0,0.0,0.0,0.0,0.0,0.0,0.0,0.0,0.0,0.0,0.0,0.0,0.0,0.0,0.0,0.0,0.0,0.0,0.0,0.0,0.0,0.0,0.0,0.0,0.0,0.0,0.0,0.0,0.0,0.0,0.0,0.0,0.0,0.0,0.0,0.0,0.0,0.0,0.0,0.0,0.0,0.0,0.0,0.0,0.0,0.0,0.0,0.0,0.0,0.0,0.0,0.0,0.0,0.0,0.0,0.0,0.0,0.0,0.0,0.0,0.0,0.0,0.0,0.0,0.0,0.0,0.0,0.0,0.0,0.0,-0.2194,-0.2194,-0.2194,0.0,0.0,0.0,0.0,0.0,0.0,0.0,0.0,0.0,0.0,0.0,0.0,0.0,0.0,0.0,0.0,0.0,0.0,0.0,0.0,0.0,0.0,0.0,0.0,0.0,0.0,0.0,0.0,0.0,0.0,0.0,0.0,0.0,0.0,0.0,0.0,0.0,0.0,0.0,0.0,0.0,0.0,0.0,0.0,0.0,0.0,0.0,0.0,0.0,0.0,0.0,0.0,0.0,0.0,0.0,0.0,0.0,0.0,0.0,0.0,0.0,0.0,0.0,0.0,0.0,0.0,0.0,0.0,0.0,0.0,0.0,0.0,0.0,0.0,0.0,0.0,0.0,0.0,0.0,0.0,0.0,0.0,0.0,0.0,0.0,0.0,0.0,0.0,0.0,0.0,0.0,0.0,0.0,0.0,0.0,0.0,0.0,0.0,0.0,0.0,0.0,0.0,0.0,0.0,0.0,0.0,0.0,0.0,0.0,0.0,-0.2582,-0.2463,-0.2446,0.0,-0.2452,0.0,0.0,0.0,0.0,0.0,0.0,0.0,0.0,0.0,0.0,0.0,0.0,0.0,0.0,0.0,0.0,0.0,0.0,0.0,0.0,0.0,0.0,0.0,0.0,0.0,0.0,0.0,0.0,0.0,0.0,0.0,0.0,0.0,0.0,0.0,0.0,0.0,0.0,0.0,0.0,0.0,0.0,0.0,0.0,0.0,0.0,0.0,0.0,0.0,0.0,0.0,0.0,0.0,0.0,0.0,0.0,0.0,0.0,0.0,0.0,0.0,0.0,0.0,0.0,0.0,0.0,0.0,0.0,0.0,0.0,0.0,0.0,0.0,0.0,0.0,0.0,0.0,0.0,0.0,0.0,0.0,0.0,0.0,0.0,0.0,0.0,0.0,0.0,0.0,0.0,0.0,0.0,0.0,0.0,0.0,0.0,0.0,0.0,0.0,0.0,0.0,0.0,0.0,0.0,0.0,0.0,0.0,0.0,0.0,0.0,-0.2757,-0.2498,-0.2438,-0.2382,0.0,0.0,0.0,0.0,0.0,0.0,0.0,0.0,0.0,0.0,0.0,0.0,0.0,0.0,0.0,0.0,0.0,0.0,0.0,0.0,0.0,0.0,0.0,0.0,0.0,0.0,0.0,0.0,0.0,0.0,0.0,0.0,0.0,0.0,0.0,0.0,0.0,0.0,0.0,0.0,0.0,0.0,0.0,0.0,0.0,0.0,0.0,0.0,0.0,0.0,0.0,0.0,0.0,0.0,0.0,0.0,0.0,0.0,0.0,0.0,0.0,0.0,0.0,0.0,0.0,0.0,0.0,0.0,0.0,0.0,0.0,0.0,0.0,0.0,0.0,0.0,0.0,0.0,0.0,0.0,0.0,0.0,0.0,0.0,0.0,0.0,0.0,0.0,0.0,0.0,0.0,0.0,0.0,0.0,0.0,0.0,0.0,0.0,0.0,0.0,0.0,0.0,0.0,0.0,0.0,0.0,0.0,0.0,0.0,0.0,-0.301,-0.2844,-0.2584,-0.2474,-0.2365,-0.2251,0.0,0.0,0.0,0.0,0.0,0.0,0.0,0.0,0.0,0.0,0.0,0.0,0.0,0.0,0.0,0.0,0.0,0.0,0.0,0.0,0.0,0.0,0.0,0.0,0.0,0.0,0.0,0.0,0.0,0.0,0.0,0.0,0.0,0.0,0.0,0.0,0.0,0.0,0.0,0.0,0.0,0.0,0.0,0.0,0.0,0.0,0.0,0.0,0.0,0.0,0.0,0.0,0.0,0.0,0.0,0.0,0.0,0.0,0.0,0.0,0.0,0.0,0.0,0.0,0.0,0.0,0.0,0.0,0.0,0.0,0.0,0.0,0.0,0.0,0.0,0.0,0.0,0.0,0.0,0.0,0.0,0.0,0.0,0.0,0.0,0.0,0.0,0.0,0.0,0.0,0.0,0.0,0.0,0.0,0.0,0.0,0.0,0.0,0.0,0.0,0.0,0.0,0.0,0.0,0.0,0.0,0.0,0.0,-0.2719,-0.2832,-0.2835,-0.2693,-0.269,-0.2509,0.0,0.0,0.0,0.0,0.0,0.0,0.0,0.0,0.0,0.0,0.0,0.0,0.0,0.0,0.0,0.0,0.0,0.0,0.0,0.0,0.0,0.0,0.0,0.0,0.0,0.0,0.0,0.0,0.0,0.0,0.0,0.0,0.0,0.0,0.0,0.0,0.0,0.0,0.0,0.0,0.0,0.0,0.0,0.0,0.0,0.0,0.0,0.0,0.0,0.0,0.0,0.0,0.0,0.0,0.0,0.0,0.0,0.0,0.0,0.0,0.0,0.0,0.0,0.0,0.0,0.0,0.0,0.0,0.0,0.0,0.0,0.0,0.0,0.0,0.0,0.0,0.0,0.0,0.0,0.0,0.0,0.0,0.0,0.0,0.0,0.0,0.0,0.0,0.0,0.0,0.0,0.0,0.0,0.0,0.0,0.0,0.0,0.0,0.0,0.0,0.0,0.0,0.0,0.0,0.0,0.0,0.0,0.0,0.0,-0.2459,-0.2391,-0.2549,-0.2856,-0.2471,-0.229,0.0,0.0,0.0,0.0,0.0,0.0,0.0,0.0,0.0,0.0,0.0,0.0,0.0,0.0,0.0,0.0,0.0,0.0,0.0,0.0,0.0,0.0,0.0,0.0,0.0,0.0,0.0,0.0,0.0,0.0,0.0,0.0,0.0,0.0,0.0,0.0,0.0,0.0,0.0,0.0,0.0,0.0,0.0,0.0,0.0,0.0,0.0,0.0,0.0,0.0,0.0,0.0,0.0,0.0,0.0,0.0,0.0,0.0,0.0,0.0,0.0,0.0,0.0,0.0,0.0,0.0,0.0,0.0,0.0,0.0,0.0,0.0,0.0,0.0,0.0,0.0,0.0,0.0,0.0,0.0,0.0,0.0,0.0,0.0,0.0,0.0,0.0,0.0,0.0,0.0,0.0,0.0,0.0,0.0,0.0,0.0,0.0,0.0,0.0,0.0,0.0,0.0,0.0,0.0,0.0,0.0,0.0,0.0,0.0,-0.2373,0.0,-0.254,-0.2813,-0.2419,-0.2161,0.0,0.0,0.0,0.0,0.0,0.0,0.0,0.0,0.0,0.0,0.0,0.0,0.0,0.0,0.0,0.0,0.0,0.0,0.0,0.0,0.0,0.0,0.0,0.0,0.0,0.0,0.0,0.0,0.0,0.0,0.0,0.0,0.0,0.0,0.0,0.0,0.0,0.0,0.0,0.0,0.0,0.0,0.0,0.0,0.0,0.0,0.0,0.0,0.0,0.0,0.0,0.0,0.0,0.0,0.0,0.0,0.0,0.0,0.0,0.0,0.0,0.0,0.0,0.0,0.0,0.0,0.0,0.0,0.0,0.0,0.0,0.0,0.0,0.0,0.0,0.0,0.0,0.0,0.0,0.0,0.0,0.0,0.0,0.0,0.0,0.0,0.0,0.0,0.0,0.0,0.0,0.0,0.0,0.0,0.0,0.0,0.0,0.0,0.0,0.0,0.0,0.0,0.0,0.0,0.0,0.0,0.0,0.0,-0.2499,-0.2506,-0.2794,-0.2788,-0.2508,-0.249,-0.2144,0.0,0.0,0.0,0.0,0.0,0.0,0.0,0.0,0.0,0.0,0.0,0.0,0.0,0.0,0.0,0.0,0.0,0.0,0.0,0.0,0.0,0.0,0.0,0.0,0.0,0.0,0.0,0.0,0.0,0.0,0.0,0.0,0.0,0.0,0.0,0.0,0.0,0.0,0.0,0.0,0.0,0.0,0.0,0.0,0.0,0.0,0.0,0.0,0.0,0.0,0.0,0.0,0.0,0.0,0.0,0.0,0.0,0.0,0.0,0.0,0.0,0.0,0.0,0.0,0.0,0.0,0.0,0.0,0.0,0.0,0.0,0.0,0.0,0.0,0.0,0.0,0.0,0.0,0.0,0.0,0.0,0.0,0.0,0.0,0.0,0.0,0.0,0.0,0.0,0.0,0.0,0.0,0.0,0.0,0.0,0.0,0.0,0.0,0.0,0.0,0.0,0.0,0.0,0.0,0.0,0.0,0.0,0.0,0.0,-0.2244,-0.2411,-0.2638,-0.2829,-0.2392,-0.2161,0.0,0.0,0.0,0.0,0.0,0.0,0.0,0.0,0.0,0.0,0.0,0.0,0.0,0.0,0.0,0.0,0.0,0.0,0.0,0.0,0.0,0.0,0.0,0.0,0.0,0.0,0.0,0.0,0.0,0.0,0.0,0.0,0.0,0.0,0.0,0.0,0.0,0.0,0.0,0.0,0.0,0.0,0.0,0.0,0.0,0.0,0.0,0.0,0.0,0.0,0.0,0.0,0.0,0.0,0.0,0.0,0.0,0.0,0.0,0.0,0.0,0.0,0.0,0.0,0.0,0.0,0.0,0.0,0.0,0.0,0.0,0.0,0.0,0.0,0.0,0.0,0.0,0.0,0.0,0.0,0.0,0.0,0.0,0.0,0.0,0.0,0.0,0.0,0.0,0.0,0.0,0.0,0.0,0.0,0.0,0.0,0.0,0.0,0.0,0.0,0.0,0.0,0.0,0.0,0.0,0.0,0.0,0.0,0.0,-0.2939,-0.2841,-0.2856,-0.2997,-0.2517,-0.2296,-0.2354,0.0,0.0,0.0,0.0,0.0,0.0,0.0,0.0,0.0,0.0,0.0,0.0,0.0,0.0,0.0,0.0,0.0,0.0,0.0,0.0,0.0,0.0,0.0,0.0,0.0,0.0,0.0,0.0,0.0,0.0,0.0,0.0,0.0,0.0,0.0,0.0,0.0,0.0,0.0,0.0,0.0,0.0,0.0,0.0,0.0,0.0,0.0,0.0,0.0,0.0,0.0,0.0,0.0,0.0,0.0,0.0,0.0,0.0,0.0,0.0,0.0,0.0,0.0,0.0,0.0,0.0,0.0,0.0,0.0,0.0,0.0,0.0,0.0,0.0,0.0,0.0,0.0,0.0,0.0,0.0,0.0,0.0,0.0,0.0,0.0,0.0,0.0,0.0,0.0,0.0,0.0,0.0,0.0,0.0,0.0,0.0,0.0,0.0,0.0,0.0,0.0,0.0,0.0,0.0,0.0,0.0,0.0,0.0,-0.4315,-0.3862,-0.3409,-0.3059,-0.2818,-0.2539,0.0,0.0,0.0,0.0,0.0,0.0,0.0,0.0,0.0,0.0,0.0,0.0,0.0,0.0,0.0,0.0,0.0,0.0,0.0,0.0,0.0,0.0,0.0,0.0,0.0,0.0,0.0,0.0,0.0,0.0,0.0,0.0,0.0,0.0,0.0,0.0,0.0,0.0,0.0,0.0,0.0,0.0,0.0,0.0,0.0,0.0,0.0,0.0,0.0,0.0,0.0,0.0,0.0,0.0,0.0,0.0,0.0,0.0,0.0,0.0,0.0,0.0,0.0,0.0,0.0,0.0,0.0,0.0,0.0,0.0,0.0,0.0,0.0,0.0,0.0,0.0,0.0,0.0,0.0,0.0,0.0,0.0,0.0,0.0,0.0,0.0,0.0,0.0,0.0,0.0,0.0,0.0,0.0,0.0,0.0,0.0,0.0,0.0,0.0,0.0,0.0,0.0,0.0,0.0,0.0,0.0,0.0,0.0,0.0,-0.4409,-0.4024,-0.3727,-0.3597,-0.3145,-0.2802,0.0,0.0,0.0,0.0,0.0,0.0,0.0,0.0,0.0,0.0,0.0,0.0,0.0,0.0,0.0,0.0,0.0,0.0,0.0,0.0,0.0,0.0,0.0,0.0,0.0,0.0,0.0,0.0,0.0,0.0,0.0,0.0,0.0,0.0,0.0,0.0,0.0,0.0,0.0,0.0,0.0,0.0,0.0,0.0,0.0,0.0,0.0,0.0,0.0,0.0,0.0,0.0,0.0,0.0,0.0,0.0,0.0,0.0,0.0,0.0,0.0,0.0,0.0,0.0,0.0,0.0,0.0,0.0,0.0,0.0,0.0,0.0,0.0,0.0,0.0,0.0,0.0,0.0,0.0,0.0,0.0,0.0,0.0,0.0,0.0,0.0,0.0,0.0,0.0,0.0,0.0,0.0,0.0,0.0,0.0,0.0,0.0,0.0,0.0,0.0,0.0,0.0,0.0,0.0,0.0,0.0,0.0,0.0,-0.4741,-0.5001,-0.4874,-0.4498,-0.3967,-0.3496,-0.3206,0.0,0.0,0.0,0.0,0.0,0.0,0.0,0.0,0.0,0.0,0.0,0.0,0.0,0.0,0.0,0.0,0.0,0.0,0.0,0.0,0.0,0.0,0.0,0.0,0.0,0.0,0.0,0.0,0.0,0.0,0.0,0.0,0.0,0.0,0.0,0.0,0.0,0.0,0.0,0.0,0.0,0.0,0.0,0.0,0.0,0.0,0.0,0.0,0.0,0.0,0.0,0.0,0.0,0.0,0.0,0.0,0.0,0.0,0.0,0.0,0.0,0.0,0.0,0.0,0.0,0.0,0.0,0.0,0.0,0.0,0.0,0.0,0.0,0.0,0.0,0.0,0.0,0.0,0.0,0.0,0.0,0.0,0.0,0.0,0.0,0.0,0.0,0.0,0.0,0.0,0.0,0.0,0.0,0.0,0.0,0.0,0.0,0.0,0.0,0.0,0.0,0.0,0.0,0.0,0.0,0.0,0.0,0.0,-0.588,-0.5813,-0.5872,-0.5392,-0.433,-0.384,-0.3644,0.0,0.0,0.0,0.0,0.0,0.0,0.0,0.0,0.0,0.0,0.0,0.0,0.0,0.0,0.0,0.0,0.0,0.0,0.0,0.0,0.0,0.0,0.0,0.0,0.0,0.0,0.0,0.0,0.0,0.0,0.0,0.0,0.0,0.0,0.0,0.0,0.0,0.0,0.0,0.0,0.0,0.0,0.0,0.0,0.0,0.0,0.0,0.0,0.0,0.0,0.0,0.0,0.0,0.0,0.0,0.0,0.0,0.0,0.0,0.0,0.0,0.0,0.0,0.0,0.0,0.0,0.0,0.0,0.0,0.0,0.0,0.0,0.0,0.0,0.0,0.0,0.0,0.0,0.0,0.0,0.0,0.0,0.0,0.0,0.0,0.0,0.0,0.0,0.0,0.0,0.0,0.0,0.0,0.0,0.0,0.0,0.0,0.0,0.0,0.0,0.0,0.0,0.0,0.0,0.0,0.0,0.0,0.0,-0.6147,-0.6451,-0.5796,-0.5499,-0.5572,-0.4392,-0.3619,0.0,0.0,0.0,0.0,0.0,0.0,0.0,0.0,0.0,0.0,0.0,0.0,0.0,0.0,0.0,0.0,0.0,0.0,0.0,0.0,0.0,0.0,0.0,0.0,0.0,0.0,0.0,0.0,0.0,0.0,0.0,0.0,0.0,0.0,0.0,0.0,0.0,0.0,0.0,0.0,0.0,0.0,0.0,0.0,0.0,0.0,0.0,0.0,-0.3256,0.0,0.0,0.0,0.0,0.0,0.0,0.0,0.0,0.0,0.0,0.0,0.0,0.0,0.0,0.0,0.0,0.0,0.0,0.0,0.0,0.0,0.0,0.0,0.0,0.0,0.0,0.0,0.0,0.0,0.0,0.0,0.0,0.0,0.0,0.0,0.0,0.0,0.0,0.0,0.0,0.0,0.0,0.0,0.0,0.0,0.0,0.0,0.0,0.0,0.0,0.0,0.0,0.0,0.0,0.0,0.0,0.0,0.0,0.0,-0.6677,-0.6674,-0.6464,-0.629,-0.6153,-0.5304,-0.4541,0.0,0.0,0.0,0.0,0.0,0.0,0.0,0.0,0.0,0.0,0.0,0.0,0.0,0.0,0.0,0.0,0.0,0.0,0.0,0.0,0.0,0.0,0.0,0.0,0.0,0.0,0.0,0.0,0.0,0.0,0.0,0.0,0.0,0.0,0.0,0.0,0.0,0.0,0.0,0.0,0.0,0.0,0.0,0.0,0.0,0.0,0.0,0.0,0.0,0.0,0.0,0.0,0.0,0.0,0.0,0.0,0.0,0.0,0.0,0.0,0.0,0.0,0.0,0.0,0.0,0.0,0.0,0.0,0.0,0.0,0.0,0.0,0.0,0.0,0.0,0.0,0.0,0.0,0.0,0.0,0.0,0.0,0.0,0.0,0.0,0.0,0.0,0.0,0.0,0.0,0.0,0.0,0.0,0.0,0.0,0.0,0.0,0.0,0.0,0.0,0.0,0.0,0.0,0.0,0.0,0.0,0.0,-0.6715,-0.7206,-0.6892,-0.727,-0.7177,-0.6518,-0.61,-0.5563,-0.4882,0.0,0.0,0.0,0.0,0.0,0.0,0.0,0.0,0.0,0.0,0.0,0.0,0.0,0.0,0.0,0.0,0.0,0.0,0.0,0.0,0.0,0.0,0.0,0.0,0.0,0.0,0.0,0.0,0.0,0.0,0.0,0.0,0.0,0.0,0.0,0.0,0.0,0.0,-0.3308,-0.3791,0.0,0.0,0.0,0.0,0.0,0.0,0.0,0.0,-0.449,0.0,0.0,0.0,0.0,0.0,0.0,0.0,0.0,0.0,0.0,0.0,0.0,0.0,0.0,0.0,0.0,0.0,0.0,0.0,0.0,0.0,0.0,0.0,0.0,0.0,0.0,0.0,0.0,0.0,0.0,0.0,0.0,0.0,0.0,0.0,0.0,0.0,0.0,0.0,0.0,0.0,0.0,0.0,0.0,0.0,0.0,0.0,0.0,0.0,0.0,0.0,0.0,0.0,0.0,0.0,0.0,-0.6196,-0.6826,-0.7326,-0.7612,-0.756,-0.7343,-0.698,-0.6284,-0.5673,-0.5233,0.0,0.0,0.0,0.0,0.0,0.0,0.0,0.0,0.0,0.0,0.0,0.0,0.0,0.0,0.0,0.0,0.0,0.0,0.0,0.0,0.0,0.0,0.0,0.0,0.0,0.0,0.0,0.0,0.0,0.0,0.0,0.0,0.0,0.0,0.0,0.0,0.0,0.0,0.0,-0.4999,-0.5338,0.0,0.0,0.0,0.0,0.0,0.0,0.0,0.0,-0.4816,0.0,0.0,0.0,0.0,0.0,0.0,0.0,0.0,0.0,0.0,0.0,0.0,0.0,0.0,0.0,0.0,0.0,0.0,0.0,0.0,0.0,0.0,0.0,0.0,0.0,0.0,0.0,0.0,0.0,0.0,0.0,0.0,0.0,0.0,0.0,0.0,0.0,0.0,0.0,0.0,0.0,0.0,0.0,0.0,0.0,0.0,0.0,0.0,0.0,0.0,0.0,0.0,0.0,0.0,0.0,-0.6019,-0.6966,-0.7564,-0.7801,-0.7944,-0.7913,-0.7648,-0.6939,-0.6337,0.0,0.0,0.0,0.0,0.0,0.0,0.0,0.0,0.0,0.0,0.0,0.0,0.0,0.0,0.0,0.0,0.0,0.0,0.0,0.0,0.0,0.0,0.0,0.0,0.0,0.0,0.0,0.0,0.0,0.0,0.0,0.0,0.0,0.0,0.0,0.0,0.0,0.0,0.0,0.0,-0.5497,-0.5828,-0.6142,0.0,0.0,0.0,0.0,0.0,0.0,-0.5707,-0.5238,0.0,0.0,0.0,0.0,0.0,0.0,0.0,0.0,0.0,0.0,0.0,0.0,0.0,0.0,0.0,0.0,0.0,0.0,0.0,0.0,0.0,0.0,0.0,0.0,0.0,0.0,0.0,0.0,0.0,0.0,0.0,0.0,0.0,0.0,0.0,0.0,0.0,0.0,0.0,0.0,0.0,0.0,0.0,0.0,0.0,0.0,0.0,0.0,0.0,0.0,0.0,0.0,0.0,0.0,0.0,-0.5723,-0.6982,-0.7704,-0.7812,-0.8269,-0.8377,-0.8117,-0.7555,-0.6923,0.0,0.0,0.0,0.0,0.0,0.0,0.0,0.0,0.0,0.0,0.0,0.0,0.0,0.0,0.0,0.0,0.0,0.0,0.0,0.0,0.0,0.0,0.0,0.0,0.0,0.0,0.0,0.0,0.0,0.0,0.0,0.0,0.0,0.0,0.0,0.0,0.0,0.0,0.0,0.0,0.0,-0.6318,-0.6501,-0.6534,0.0,0.0,0.0,0.0,-0.6706,-0.6455,0.0,0.0,0.0,0.0,0.0,0.0,0.0,0.0,0.0,0.0,0.0,0.0,0.0,0.0,0.0,0.0,0.0,0.0,0.0,0.0,0.0,0.0,0.0,0.0,0.0,0.0,0.0,0.0,0.0,0.0,0.0,0.0,0.0,0.0,0.0,0.0,0.0,0.0,0.0,0.0,0.0,0.0,0.0,0.0,0.0,0.0,0.0,0.0,0.0,0.0,0.0,0.0,0.0,0.0,0.0,0.0,-0.5701,-0.6685,-0.737,-0.7795,-0.8269,-0.8301,-0.7855,-0.7758,-0.7133,0.0,0.0,0.0,0.0,0.0,0.0,0.0,0.0,0.0,0.0,0.0,0.0,0.0,0.0,0.0,0.0,0.0,0.0,0.0,0.0,0.0,0.0,0.0,0.0,0.0,0.0,0.0,0.0,0.0,0.0,0.0,0.0,0.0,0.0,0.0,0.0,0.0,0.0,0.0,0.0,0.0,-0.7362,-0.6982,-0.6951,-0.7039,0.0,0.0,-0.7214,-0.7954,-0.7931,0.0,0.0,0.0,0.0,0.0,0.0,0.0,0.0,0.0,0.0,0.0,0.0,0.0,0.0,0.0,0.0,0.0,0.0,0.0,0.0,0.0,0.0,0.0,0.0,0.0,0.0,0.0,0.0,0.0,0.0,0.0,0.0,0.0,0.0,0.0,0.0,0.0,0.0,0.0,0.0,0.0,0.0,0.0,0.0,0.0,0.0,0.0,0.0,0.0,0.0,0.0,0.0,0.0,0.0,0.0,-0.5074,-0.5873,-0.6939,-0.7655,-0.8025,-0.8339,-0.8285,-0.7812,-0.7542,-0.6853,0.0,0.0,0.0,0.0,0.0,0.0,0.0,0.0,0.0,0.0,0.0,0.0,0.0,0.0,0.0,0.0,0.0,0.0,0.0,0.0,0.0,0.0,0.0,0.0,0.0,0.0,0.0,0.0,0.0,0.0,0.0,0.0,0.0,0.0,0.0,0.0,0.0,0.0,0.0,0.0,0.0,0.0,-0.7755,-0.7875,0.0,0.0,0.0,-0.8232,-0.8701,0.0,0.0,0.0,0.0,0.0,0.0,0.0,0.0,0.0,0.0,0.0,0.0,0.0,0.0,0.0,0.0,0.0,0.0,0.0,0.0,0.0,0.0,0.0,0.0,0.0,0.0,0.0,0.0,0.0,0.0,0.0,0.0,0.0,0.0,0.0,0.0,0.0,0.0,0.0,0.0,0.0,0.0,0.0,0.0,0.0,0.0,0.0,0.0,0.0,0.0,0.0,0.0,0.0,0.0,0.0,0.0,0.0,-0.6087,-0.723,-0.7938,-0.8207,-0.8388,-0.8291,-0.7812,-0.7392,0.0,0.0,0.0,0.0,0.0,0.0,0.0,0.0,0.0,0.0,0.0,0.0,0.0,0.0,0.0,0.0,0.0,0.0,0.0,0.0,0.0,0.0,0.0,0.0,0.0,0.0,0.0,-0.2906,0.0,0.0,0.0,0.0,0.0,0.0,0.0,0.0,0.0,0.0,0.0,0.0,0.0,0.0,-0.8213,-0.8369,-0.8717,-0.8989,0.0,0.0,-0.9157,-0.9466,-0.9168,-0.8607,0.0,0.0,0.0,0.0,0.0,0.0,0.0,0.0,0.0,0.0,0.0,0.0,0.0,0.0,0.0,0.0,0.0,0.0,0.0,0.0,0.0,0.0,0.0,0.0,0.0,0.0,0.0,0.0,0.0,0.0,0.0,0.0,0.0,0.0,0.0,0.0,0.0,0.0,0.0,0.0,0.0,0.0,0.0,0.0,0.0,0.0,0.0,0.0,0.0,0.0,0.0,0.0,0.0,0.0,-0.5468,-0.6363,-0.7311,-0.7944,-0.8207,-0.8419,-0.8254,-0.7812,-0.753,-0.6849,0.0,0.0,0.0,0.0,0.0,0.0,0.0,0.0,0.0,0.0,0.0,0.0,0.0,0.0,0.0,0.0,0.0,0.0,0.0,0.0,0.0,0.0,0.0,0.0,0.0,0.0,0.0,0.0,0.0,0.0,0.0,0.0,0.0,0.0,0.0,0.0,0.0,0.0,0.0,0.0,0.0,-0.8757,-0.861,-0.917,-0.9758,0.0,-0.9915,-0.9933,-1.0491,-1.0446,-0.9863,-0.8461,0.0,0.0,0.0,0.0,0.0,0.0,0.0,0.0,0.0,0.0,0.0,0.0,0.0,0.0,0.0,0.0,0.0,0.0,0.0,0.0,0.0,0.0,0.0,0.0,0.0,0.0,0.0,0.0,-0.3911,0.0,0.0,0.0,0.0,0.0,0.0,0.0,0.0,0.0,0.0,0.0,0.0,0.0,0.0,0.0,0.0,0.0,0.0,0.0,0.0,0.0,0.0,0.0,0.0,-0.5523,-0.6564,-0.7392,-0.7984,-0.8355,-0.8468,-0.8291,-0.7812,-0.7685,-0.7079,0.0,0.0,0.0,0.0,0.0,0.0,0.0,0.0,0.0,0.0,0.0,0.0,0.0,0.0,0.0,0.0,0.0,0.0,0.0,0.0,0.0,0.0,0.0,0.0,0.0,0.0,0.0,0.0,-0.3994,-0.3999,-0.3824,0.0,0.0,0.0,0.0,0.0,0.0,0.0,0.0,0.0,0.0,-0.9613,-0.9868,-1.0293,0.0,0.0,-1.0664,-1.0664,-1.0912,-1.0414,-0.9688,-0.8817,-0.7899,0.0,0.0,0.0,0.0,0.0,0.0,0.0,0.0,0.0,0.0,0.0,0.0,0.0,0.0,0.0,0.0,0.0,0.0,0.0,0.0,0.0,0.0,0.0,0.0,0.0,0.0,-0.4156,-0.4053,0.0,0.0,0.0,0.0,0.0,0.0,0.0,0.0,0.0,0.0,0.0,0.0,0.0,0.0,0.0,0.0,0.0,0.0,0.0,0.0,0.0,0.0,0.0,0.0,-0.5604,-0.6806,-0.7449,-0.8032,-0.8474,-0.8517,-0.8285,-0.7822,-0.7707,-0.7171,0.0,0.0,0.0,0.0,0.0,0.0,0.0,0.0,0.0,0.0,0.0,0.0,0.0,0.0,0.0,0.0,0.0,0.0,0.0,0.0,0.0,0.0,0.0,0.0,0.0,0.0,0.0,0.0,-0.4372,-0.4263,-0.3861,0.0,0.0,0.0,0.0,0.0,0.0,0.0,0.0,0.0,0.0,-1.0184,-1.0659,-1.0948,-1.1141,-1.1226,-1.1099,-1.099,-1.1099,-1.0498,-0.9783,-0.9072,0.0,0.0,0.0,0.0,0.0,0.0,0.0,0.0,0.0,0.0,0.0,0.0,0.0,0.0,0.0,0.0,0.0,0.0,0.0,0.0,0.0,0.0,0.0,0.0,0.0,0.0,0.0,-0.4791,0.0,0.0,-0.4283,0.0,0.0,0.0,0.0,0.0,0.0,0.0,0.0,0.0,0.0,0.0,0.0,0.0,0.0,0.0,0.0,0.0,0.0,0.0,0.0,0.0,0.0,-0.5712,-0.7079,-0.7587,-0.8032,-0.8495,-0.8517,-0.8291,-0.7822,-0.7557,-0.6983,-0.6023,0.0,0.0,0.0,0.0,0.0,0.0,0.0,0.0,0.0,0.0,0.0,0.0,0.0,0.0,0.0,0.0,0.0,0.0,0.0,0.0,0.0,0.0,0.0,0.0,0.0,0.0,-0.428,-0.4136,-0.3886,0.0,0.0,0.0,0.0,0.0,0.0,0.0,0.0,0.0,-0.8656,-0.9618,-1.0394,-1.0665,-1.0918,-1.1232,-1.1459,-1.105,-1.0791,-1.1099,-1.0901,-1.039,0.0,0.0,0.0,0.0,0.0,0.0,0.0,0.0,0.0,0.0,0.0,0.0,0.0,0.0,0.0,0.0,0.0,0.0,0.0,0.0,0.0,0.0,0.0,0.0,0.0,0.0,0.0,-0.7315,-0.6782,0.0,0.0,0.0,0.0,0.0,0.0,0.0,0.0,0.0,0.0,0.0,-0.9806,-1.0405,0.0,0.0,0.0,0.0,0.0,0.0,0.0,0.0,0.0,0.0,0.0,0.0,-0.6852,-0.8181,-0.841,-0.8685,-0.9005,-0.8673,-0.8361,-0.8074,-0.7801,-0.7133,-0.6033,0.0,0.0,0.0,0.0,0.0,0.0,0.0,0.0,0.0,0.0,0.0,0.0,0.0,0.0,0.0,0.0,0.0,0.0,0.0,0.0,0.0,0.0,0.0,0.0,0.0,-0.4344,0.0,0.0,0.0,0.0,0.0,0.0,0.0,0.0,0.0,0.0,-0.7961,-0.8969,-0.9672,-1.0527,-1.1182,-1.1447,-1.1594,-1.1706,0.0,0.0,0.0,0.0,0.0,0.0,0.0,0.0,0.0,0.0,0.0,0.0,0.0,0.0,-1.0084,-0.7965,-0.7387,-0.7271,-0.7316,0.0,0.0,0.0,0.0,0.0,0.0,0.0,0.0,0.0,0.0,0.0,0.0,0.0,0.0,-0.9284,-0.8968,-0.8395,0.0,0.0,0.0,0.0,0.0,0.0,0.0,0.0,-1.0851,-1.1491,-1.1285,-1.189,-1.1829,-1.1262,-1.0895,-0.9936,0.0,0.0,0.0,0.0,0.0,0.0,0.0,0.0,-0.7579,-0.8771,-0.9038,-0.9233,-0.9288,-0.8958,-0.8584,-0.8213,-0.7844,-0.7273,-0.6417,-0.5985,-0.5583,0.0,0.0,0.0,0.0,0.0,0.0,0.0,0.0,0.0,0.0,0.0,0.0,0.0,0.0,0.0,0.0,0.0,0.0,0.0,0.0,0.0,0.0,0.0,-0.4768,0.0,0.0,0.0,0.0,0.0,0.0,0.0,0.0,0.0,-0.7988,-0.8963,-0.9913,-1.0617,-1.1242,-1.1727,-1.1862,0.0,0.0,0.0,0.0,0.0,0.0,0.0,-1.1063,-1.1218,-1.0976,-1.0765,-1.0842,-1.1496,-1.2021,-1.1802,0.0,0.0,-0.9949,-0.9432,-0.9306,-0.9274,-0.9583,-0.975,-0.9622,-0.9857,-1.0033,0.0,0.0,0.0,0.0,-0.9192,0.0,0.0,0.0,-1.0767,-1.1086,0.0,-1.0311,0.0,0.0,0.0,0.0,-0.8452,-1.0296,0.0,0.0,-1.3448,-1.4163,-1.348,-1.3439,-1.3439,-1.3441,-1.3096,-1.2482,-1.1547,-0.9392,-0.7919,0.0,0.0,0.0,0.0,0.0,-0.7908,-0.8884,-0.9462,-0.9587,-0.9358,-0.9274,-0.8928,-0.8213,-0.7715,-0.7342,-0.7112,-0.6843,-0.6302,-0.541,-0.5304,0.0,0.0,0.0,0.0,0.0,0.0,0.0,0.0,0.0,0.0,0.0,0.0,0.0,0.0,0.0,0.0,0.0,0.0,0.0,0.0,-0.5159,0.0,0.0,0.0,0.0,0.0,0.0,0.0,0.0,0.0,-0.931,-0.8915,-0.9931,-1.0912,-1.1429,0.0,0.0,0.0,0.0,-1.2047,-1.233,-1.2143,-1.2077,-1.2324,-1.2536,-1.2518,-1.2012,0.0,0.0,-1.2097,-1.2421,-1.2614,-1.2067,-1.2475,-1.2753,-1.2705,-1.2139,-1.1848,-1.1802,-1.1621,-1.1543,-1.1549,-1.1536,-1.1699,-1.3216,0.0,0.0,0.0,0.0,-1.257,-1.3291,-1.4598,-1.4214,-1.3671,-1.3073,-1.2745,0.0,0.0,0.0,0.0,0.0,0.0,-1.2437,-1.3372,-1.3987,-1.4405,-1.4756,-1.4644,-1.4665,-1.4733,-1.4382,-1.3935,-1.3433,-1.2494,-1.0864,-0.866,0.0,0.0,0.0,0.0,-1.0172,-1.0412,-1.0327,-1.011,-0.9805,-0.9113,-0.8584,-0.8218,-0.8052,-0.7868,-0.7607,-0.7342,-0.7015,-0.6584,-0.5955,0.0,0.0,0.0,0.0,0.0,0.0,0.0,0.0,0.0,0.0,0.0,0.0,0.0,0.0,0.0,0.0,0.0,0.0,0.0,-0.5172,-0.559,-0.5793,0.0,0.0,0.0,0.0,0.0,0.0,0.0,0.0,0.0,-1.09,-1.1291,-1.1636,0.0,0.0,-1.227,-1.2451,-1.2475,-1.265,-1.3103,-1.3109,0.0,-1.3163,-1.291,-1.2783,-1.3019,-1.3411,-1.3664,-1.3622,-1.3743,-1.3791,-1.3628,-1.3737,-1.3839,-1.3791,-1.3091,-1.253,-1.2481,-1.2572,-1.2577,-1.2425,-1.2441,-1.2457,-1.5842,-1.5611,-1.4093,-1.4056,-1.4984,-1.4857,-1.5584,-1.679,-1.6253,-1.5805,-1.543,-1.5001,-1.4088,-1.2723,-1.195,0.0,0.0,0.0,-1.3985,-1.4901,-1.5104,-1.5334,-1.5663,-1.556,-1.5591,-1.5647,-1.5287,-1.5085,-1.5052,-1.4652,-1.3434,-1.1462,0.0,-1.0673,-1.0379,-1.1092,-1.1496,-1.1465,-1.1332,-1.0936,-1.0193,-0.9068,-0.8447,-0.8333,-0.8322,-0.8214,-0.7976,-0.7801,-0.7546,-0.7213,-0.6595,-0.604,0.0,0.0,0.0,0.0,0.0,0.0,0.0,0.0,0.0,0.0,0.0,-0.511,-0.4183,0.0,0.0,0.0,-0.496,-0.5507,-0.6204,-0.6569,0.0,0.0,0.0,0.0,0.0,0.0,0.0,-1.0154,-1.0851,-1.1513,-1.23,-1.2487,-1.2554,-1.2512,-1.2687,-1.2843,-1.3,0.0,-1.3175,-1.361,-1.367,-1.3707,-1.3803,-1.355,-1.3453,-1.3767,-1.3948,-1.4105,-1.4262,-1.4298,-1.4298,-1.4298,-1.4298,-1.4298,-1.4298,-1.3761,-1.3338,-1.3338,-1.3471,-1.3495,-1.3226,-1.3211,-1.3129,-1.8005,-1.8938,-1.6722,-1.5962,-1.6262,-1.6895,-1.7346,-1.7645,-1.725,-1.7436,-1.7917,-1.6949,-1.6323,-1.5889,-1.4643,0.0,-1.5088,-1.5415,-1.5721,-1.6038,-1.6591,-1.6682,-1.6365,-1.6325,-1.6325,-1.6357,-1.6052,-1.6067,-1.637,-1.6038,-1.5569,-1.4913,-1.3547,-1.2641,-1.222,-1.2212,-1.2183,-1.2105,-1.2327,-1.1816,-1.0479,-0.9242,-0.8576,-0.8538,-0.8522,-0.8398,-0.8192,-0.8213,-0.7966,-0.7449,-0.7219,-0.6778,-0.6082,0.0,0.0,0.0,0.0,0.0,0.0,0.0,0.0,0.0,0.0,0.0,0.0,0.0,0.0,-0.6373,-0.6668,0.0,-0.7607,-0.7808,0.0,0.0,0.0,-0.8554,-0.889,-0.9799,-1.0701,-1.1495,0.0,0.0,-1.3151,-1.3348,-1.3556,-1.3574,-1.3544,-1.3519,-1.3544,-1.3538,-1.364,-1.39,-1.3936,-1.402,-1.4208,-1.4226,-1.4208,-1.4244,-1.4298,-1.4292,-1.4292,-1.4298,-1.4298,-1.4298,-1.4298,-1.4298,-1.4298,-1.425,-1.4298,-1.4244,-1.4208,-1.4136,-1.3872,-1.374,-1.359,-1.9393,-1.9923,-1.9353,-1.898,-1.8794,-1.8684,-1.8863,-1.9152,-1.8803,-1.8404,-1.7987,-1.7696,-1.7147,-1.6501,-1.6597,-1.6837,-1.7224,-1.7073,-1.7332,-1.7878,-1.7463,-1.7381,-1.7533,-1.726,-1.73,-1.7548,-1.7243,-1.7144,-1.7196,-1.6809,-1.6546,-1.638,-1.5465,-1.4334,-1.3004,-1.3407,-1.338,-1.2828,-1.2483,-1.1582,-1.0252,-0.9736,-0.9275,-0.8814,-0.8608,-0.8398,-0.8224,-0.8213,-0.7966,-0.7421,-0.7219,-0.6923,-0.6548,-0.5717,0.0,0.0,0.0,0.0,0.0,0.0,0.0,0.0,0.0,-0.7188,-0.5635,0.0,-0.7272,0.0,-0.7249,-0.7625,-0.8072,-0.8187,0.0,0.0,-0.9275,-0.9622,-1.0707,-1.1056,-1.1507,-1.2337,-1.2734,-1.3155,-1.3664,-1.3773,-1.3888,-1.4075,-1.3767,-1.3586,-1.3773,-1.3809,-1.39,-1.4141,-1.4195,-1.4226,-1.4286,-1.4298,-1.4298,-1.4298,-1.4298,-1.4298,-1.4298,-1.4298,-1.4298,-1.4298,-1.4298,-1.4298,-1.4298,-1.4298,-1.4298,-1.4298,-1.416,-1.3925,-1.3636,-1.3443,-1.3201,-1.9874,-2.0292,-2.0292,-2.0172,-1.993,-1.9761,-1.9787,-1.9905,-1.959,-1.9177,-1.8751,-1.8548,-1.8237,-1.7829,-1.8121,-1.8355,-1.8532,-1.8339,-1.8481,-1.8836,-1.838,-1.8244,-1.8239,-1.8034,-1.7958,-1.7991,-1.7817,-1.7723,-1.7706,-1.7478,-1.7338,-1.7167,-1.6763,-1.5978,-1.4876,-1.4385,-1.3831,-1.3257,-1.2558,-1.1819,-1.1045,-1.0223,-0.9575,-0.9135,-0.8712,-0.835,-0.8041,-0.8153,-0.7984,-0.7594,-0.7347,-0.716,-0.702,-0.6298,-0.5875,0.0,0.0,0.0,0.0,0.0,0.0,0.0,0.0,0.0,0.0,0.0,-0.8585,-0.8157,-0.8441,-0.8782,-0.9161,-0.9516,-0.9967,-1.0551,-1.0689,-1.108,-1.1968,-1.2121,-1.2493,-1.3157,-1.3375,-1.3622,-1.4026,-1.4081,-1.4129,-1.428,-1.4045,-1.3912,-1.4045,-1.4081,-1.4135,-1.4274,-1.4298,-1.4298,-1.4298,-1.4298,-1.4298,-1.4298,-1.4298,-1.4298,-1.4298,-1.4298,-1.4298,-1.4298,-1.4298,-1.4298,-1.4298,-1.4298,-1.4298,-1.4256,-1.407,-1.3835,-1.3545,-1.3292,-1.305,-1.992,-2.0292,-2.0292,-2.0292,-2.0292,-2.0292,-2.0292,-2.0266,-1.9949,-1.9768,-1.9698,-1.9461,-1.9316,-1.9272,-1.9324,-1.9367,-1.9359,-1.9273,-1.9247,-1.9239,-1.9239,-1.899,-1.8656,-1.8665,-1.8468,-1.8117,-1.8068,-1.8034,-1.8,-1.7991,-1.7869,-1.7591,-1.7492,-1.7226,-1.6856,-1.5168,-1.4076,-1.3564,-1.2784,-1.2316,-1.2245,-1.0767,-0.9838,-0.9489,-0.8836,-0.8254,-0.7833,-0.8025,-0.8025,-0.7768,-0.7562,-0.7455,-0.7412,-0.6963,-0.669,0.0,-0.6396,0.0,0.0,0.0,0.0,0.0,0.0,0.0,0.0,-1.0012,-1.0083,-0.9534,-0.9831,-1.016,-1.0459,-1.111,-1.1567,-1.1651,-1.2125,-1.253,-1.2825,-1.3079,-1.3411,-1.39,-1.3954,-1.4045,-1.425,-1.4298,-1.4298,-1.4298,-1.4274,-1.4256,-1.4286,-1.4286,-1.4286,-1.4298,-1.4298,-1.4298,-1.4298,-1.4298,-1.4298,-1.4298,-1.4298,-1.4298,-1.4298,-1.4298,-1.4298,-1.4298,-1.4298,-1.4298,-1.4298,-1.4298,-1.4298,-1.4298,-1.4064,-1.3835,-1.3539,-1.3298,-1.305,-2.0238,-2.0292,-2.0292,-2.0292,-2.0292,-2.0292,-2.0292,-2.0283,-2.0215,-1.9963,-1.9629,-1.9977,-1.9889,-1.9574,-1.9943,-2.0078,-2.0061,-1.9769,-1.9597,-1.9571,-1.9359,-1.917,-1.911,-1.911,-1.8853,-1.8494,-1.8477,-1.8331,-1.7991,-1.7991,-1.7957,-1.788,-1.7304,-1.6963,-1.6849,0.0,0.0,0.0,-1.3506,-1.3041,-1.2503,-1.1598,-1.0721,-0.9959,-0.9003,0.0,-0.7833,-0.7844,-0.7758,-0.7508,-0.7626,0.0,0.0,0.0,0.0,0.0,0.0,0.0,0.0,0.0,0.0,0.0,-1.1086,-1.1105,-1.0163,-1.0632,-1.0863,-1.0489,-1.0718,-1.0966,-1.1242,-1.1585,-1.1982,-1.2439,-1.2734,-1.3157,-1.361,-1.3725,-1.3882,-1.4177,-1.422,-1.4238,-1.4286,-1.4298,-1.4298,-1.4298,-1.4298,-1.4298,-1.4298,-1.4298,-1.4298,-1.4298,-1.4298,-1.4298,-1.4298,-1.4298,-1.4298,-1.4298,-1.4298,-1.4298,-1.4298,-1.4298,-1.4298,-1.4298,-1.4298,-1.4298,-1.4298,-1.4298,-1.4298,-1.4298,-1.4112,-1.3835,-1.3539,-1.3298,-1.305,-2.0292,-2.0292,-2.0292,-2.0292,0.0,-2.0292,-2.0292,-2.0292,-2.0292,-2.0155,-1.9965,-2.0192,-2.0155,-1.9965,-2.0201,-2.0292,-2.0283,-2.0095,-2.0018,-2.0001,-1.9812,-1.9632,-1.9453,-1.9453,-1.9256,-1.8888,-1.887,-1.8724,-1.8323,-1.8264,-1.8179,-1.8,-1.7612,-1.7431,-1.7414,-1.6717,-1.5679,-1.4353,-1.3955,-1.3505,-1.3046,-1.224,-1.1407,-1.0557,-0.9634,0.0,0.0,0.0,0.0,0.0,0.0,0.0,0.0,0.0,0.0,-0.892,-0.9372,-0.9766,-1.003,-1.0847,-1.1476,-1.1723,-1.2088,-1.2085,-1.1418,-1.138,-1.1414,-1.1595,-1.1776,-1.1916,-1.206,-1.2475,-1.2824,-1.3248,-1.3429,-1.367,-1.402,-1.4099,-1.4147,-1.4268,-1.4298,-1.4298,-1.4298,-1.4298,-1.4298,-1.4298,-1.4298,-1.4298,-1.4298,-1.4298,-1.4298,-1.4298,-1.4298,-1.4298,-1.4298,-1.4298,-1.4298,-1.4298,-1.4298,-1.4298,-1.4298,-1.4298,-1.4298,-1.4298,-1.4298,-1.4298,-1.4298,-1.4298,-1.4298,-1.4298,-1.4202,-1.4022,-1.3738,-1.3491,-1.3244,-2.0292,-2.0292,-2.0292,-2.0292,-2.0292,-2.0292,-2.0292,-2.0292,-2.0292,0.0,0.0,-2.0292,-2.0292,-2.0292,-2.0292,-2.0292,-2.0292,-2.0292,-2.0292,-2.0292,-2.0292,-2.0129,-1.9802,-1.9794,-1.9641,-1.9281,-1.9273,-1.9076,-1.8699,-1.8691,-1.8502,-1.8128,-1.8094,-1.8068,-1.7942,-1.7326,-1.6335,-1.504,-1.4471,-1.4013,-1.3667,-1.2796,-1.1955,-1.1159,-1.0294,-0.9371,-0.8391,-0.8337,-0.8219,-0.8061,-0.8204,-0.8438,-0.876,-0.9744,-1.0519,-1.1049,-1.1969,-1.2476,-1.2421,-1.2826,-1.2999,-1.2775,-1.2681,-1.2652,-1.2758,-1.2101,-1.1954,-1.2537,-1.2773,-1.2843,-1.2856,-1.3284,-1.367,-1.3882,-1.3948,-1.4063,-1.4262,-1.4298,-1.4292,-1.4298,-1.4298,-1.4298,-1.4298,-1.4298,-1.4298,-1.4298,-1.4298,-1.4298,-1.4298,-1.4298,-1.4298,-1.4298,-1.4298,-1.4298,-1.4298,-1.4298,-1.4298,-1.4298,-1.4298,-1.4298,-1.4298,-1.4298,-1.4298,-1.4298,-1.4298,-1.4298,-1.4298,-1.4298,-1.4298,-1.4298,-1.4298,-1.4256,-1.4022,-1.3829,-1.363,-2.0292,-2.0292,-2.0292,-2.0292,-2.0292,-2.0292,-2.0292,-2.0292,-2.0292,-2.0292,-2.0292,-2.0292,-2.0292,-2.0292,-2.0292,-2.0292,-2.0292,-2.0292,-2.0292,-2.0292,-2.0292,-2.0266,-2.0215,-2.0215,-2.0026,-1.964,-1.9623,-1.9461,-1.9127,-1.9127,-1.8938,-1.8554,-1.8511,-1.8348,-1.7976,-1.7536,-1.7071,-1.6581,-1.5498,-1.4757,-1.4372,-1.3435,-1.256,-1.1702,-1.0661,-0.9685,-0.8842,-0.8831,-0.8881,-0.9014,-0.9837,-1.0109,-0.9782,-1.1306,-1.2117,-1.1772,-1.2707,-1.3179,-1.2849,-1.3449,-1.3706,-1.3407,-1.3168,-1.3087,-1.3346,-1.2851,-1.2638,-1.2997,-1.3232,-1.3399,-1.3417,-1.367,-1.3863,-1.3918,-1.4111,-1.4256,-1.4298,-1.4298,-1.4298,-1.4298,-1.4298,-1.4298,-1.4298,-1.4298,-1.4298,-1.4298,-1.4298,-1.4298,-1.4298,-1.4298,-1.4298,-1.4298,-1.4298,-1.4298,-1.4298,-1.4298,-1.4298,-1.4298,-1.4298,-1.4298,-1.4298,-1.4298,-1.4298,-1.4298,-1.4298,-1.4298,-1.4298,-1.4298,-1.4298,-1.4298,-1.4298,-1.4256,-1.4208,-1.4154,-1.4016,-2.0292,-2.0292,-2.0292,-2.0292,-2.0292,-2.0292,-2.0292,-2.0292,-2.0292,-2.0292,-2.0292,-2.0292,-2.0292,-2.0292,-2.0292,-2.0292,-2.0292,-2.0292,-2.0292,-2.0292,-2.0292,-2.0292,-2.0292,-2.0292,-2.0206,-2.0052,-2.0035,-1.9847,-1.9513,-1.9478,-1.929,-1.8913,-1.8691,-1.8502,-1.829,-1.794,-1.7552,-1.7176,-1.5992,-1.5184,-1.4816,-1.442,-1.3844,-1.3116,-1.2234,-1.1447,-1.0779,-1.0145,-0.9867,-0.9939,-1.0401,-1.064,-1.0677,-1.1853,-1.2503,-1.2559,-1.3412,-1.3708,-1.3259,-1.3392,-1.35,-1.3485,-1.3409,-1.3369,-1.3498,-1.3286,-1.3194,-1.3332,-1.3534,-1.3731,-1.3737,-1.396,-1.4117,-1.4123,-1.4226,-1.4298,-1.4298,-1.4298,-1.4298,-1.4298,-1.4298,-1.4298,-1.4298,-1.4298,-1.4298,-1.4298,-1.4298,-1.4298,-1.4298,-1.4298,-1.4298,-1.4298,-1.4298,-1.4298,-1.4298,-1.4298,-1.4298,-1.4298,-1.4298,-1.4298,-1.4298,-1.4298,-1.4298,-1.4298,-1.4298,-1.4298,-1.4298,-1.4298,-1.4298,-1.4298,-1.4298,-1.4298,-1.4298,-1.4298,-1.4202,-2.0292,-2.0292,-2.0292,-2.0292,-2.0292,-2.0292,-2.0292,-2.0292,-2.0292,-2.0292,-2.0292,-2.0292,-2.0292,-2.0292,-2.0292,-2.0292,-2.0292,-2.0292,-2.0292,-2.0292,-2.0292,-2.0292,-2.0292,-2.0292,-2.0292,-2.0292,-2.0292,-2.0146,-1.9853,-1.9819,-1.9675,-1.9299,-1.8913,-1.8725,-1.875,-1.8434,-1.8124,-1.7779,-1.6708,-1.591,-1.5466,-1.5186,-1.4741,-1.4163,-1.3368,-1.2678,-1.208,-1.1248,-1.0766,-1.0804,-1.0995,-1.1233,-1.1534,-1.2434,-1.3053,-1.3367,-1.4156,-1.4413,-1.3846,-1.3392,-1.3296,-1.3495,-1.3574,-1.3598,-1.361,-1.3658,-1.3664,-1.364,-1.3845,-1.399,-1.4014,-1.4165,-1.4298,-1.4298,-1.4298,-1.4298,-1.4298,-1.4298,-1.4298,-1.4298,-1.4298,-1.4298,-1.4298,-1.4298,-1.4298,-1.4298,-1.4298,-1.4298,-1.4298,-1.4298,-1.4298,-1.4298,-1.4298,-1.4298,-1.4298,-1.4298,-1.4298,-1.4298,-1.4298,-1.4298,-1.4298,-1.4298,-1.4298,-1.4298,-1.4298,-1.4298,-1.4298,-1.4298,-1.4298,-1.4298,-1.4298,-1.4298,-1.4298,-1.4298,-1.4298,-2.0292,-2.0292,-2.0292,-2.0292,-2.0292,-2.0292,-2.0292,-2.0292,-2.0292,-2.0292,-2.0292,-2.0292,-2.0292,-2.0292,-2.0292,-2.0292,-2.0292,-2.0292,-2.0292,-2.0292,-2.0292,-2.0292,-2.0292,-2.0292,-2.0292,-2.0292,-2.0292,-2.0266,-2.0215,-2.0223,-2.0007,-1.964,-1.9307,-1.9127,-1.911,-1.9119,-1.9059,-1.9016,-1.8137,-1.7309,-1.6561,-1.5506,-1.4619,-1.404,-1.2934,-1.2003,-1.1616,-1.1267,-1.1335,-1.1529,-1.2199,-1.2437,-1.2367,-1.3682,-1.4347,-1.3948,-1.4972,-1.5354,-1.4705,-1.3924,-1.3495,-1.3525,-1.3749,-1.387,-1.3882,-1.4075,-1.4117,-1.3972,-1.4111,-1.4238,-1.4262,-1.4286,-1.4298,-1.4298,-1.4298,-1.4298,-1.4298,-1.4298,-1.4298,-1.4298,-1.4298,-1.4298,-1.4298,-1.4298,-1.4298,-1.4298,-1.4298,-1.4298,-1.4298,-1.4298,-1.4298,-1.4298,-1.4298,-1.4298,-1.4298,-1.4298,-1.4298,-1.4298,-1.4298,-1.4298,-1.4298,-1.4298,-1.4298,-1.4298,-1.4298,-1.4298,-1.4298,-1.4298,-1.4298,-1.4298,-1.4298,-1.4298,-1.4298,-1.4298,-1.4298,-2.0292,-2.0292,-2.0292,-2.0292,-2.0292,-2.0292,-2.0292,-2.0292,-2.0292,-2.0292,-2.0292,-2.0292,-2.0292,-2.0292,-2.0292,-2.0292,-2.0292,-2.0292,-2.0292,-2.0292,-2.0292,-2.0292,-2.0292,-2.0292,-2.0292,-2.0292,-2.0292,-2.0292,-2.0292,-2.0292,-2.0215,-2.0043,-1.9692,-1.9513,-1.9495,-1.929,-1.9179,-1.9204,-1.8846,-1.8515,-1.8062,-1.6999,-1.6257,-1.5957,-1.5253,-1.4497,-1.3776,-1.32,-1.2705,-1.2314,-1.274,-1.293,-1.2783,-1.3577,-1.3928,-1.3743,-1.416,-1.4391,-1.4264,-1.3921,-1.3809,-1.396,-1.4075,-1.4135,-1.4135,-1.4232,-1.425,-1.4177,-1.4238,-1.4298,-1.4298,-1.4298,-1.4298,-1.4298,-1.4298,-1.4298,-1.4298,-1.4298,-1.4298,-1.4298,-1.4298,-1.4298,-1.4298,-1.4298,-1.4298,-1.4298,-1.4298,-1.4298,-1.4298,-1.4298,-1.4298,-1.4298,-1.4298,-1.4298,-1.4298,-1.4298,-1.4298,-1.4298,-1.4298,-1.4298,-1.4298,-1.4298,-1.4298,-1.4298,-1.4298,-1.4298,-1.4298,-1.4298,-1.4298,-1.4298,-1.4298,-1.4298,-1.4298,-1.4298,-1.4298,-2.0292,-2.0292,-2.0292,-2.0292,-2.0292,-2.0292,-2.0292,-2.0292,-2.0292,-2.0292,-2.0292,-2.0292,-2.0292,-2.0292,-2.0292,-2.0292,-2.0292,-2.0292,-2.0292,-2.0292,-2.0292,-2.0292,-2.0292,-2.0292,-2.0292,-2.0292,-2.0292,-2.0292,-2.0292,-2.0292,-2.0292,-2.0249,-2.0026,-1.9853,-1.9819,-1.9607,-1.9487,-1.9478,-1.9393,-1.9333,-1.9196,-1.8398,-1.7772,-1.7515,-1.6951,-1.6316,-1.5735,-1.4759,-1.3988,-1.3398,-1.3253,-1.323,-1.3197,-1.3366,-1.355,-1.361,-1.3622,-1.3743,-1.399,-1.4008,-1.4093,-1.4274,-1.4298,-1.4298,-1.4298,-1.4298,-1.4298,-1.4292,-1.4298,-1.4298,-1.4298,-1.4298,-1.4298,-1.4298,-1.4298,-1.4298,-1.4298,-1.4298,-1.4298,-1.4298,-1.4298,-1.4298,-1.4298,-1.4298,-1.4298,-1.4298,-1.4298,-1.4298,-1.4298,-1.4298,-1.4298,-1.4298,-1.4298,-1.4298,-1.4298,-1.4298,-1.4298,-1.4298,-1.4298,-1.4298,-1.4298,-1.4298,-1.4298,-1.4298,-1.4298,-1.4298,-1.4298,-1.4298,-1.4298,-1.4298,-1.4298,-1.4298,-1.4298,-1.4298,-1.4298,-2.0292,-2.0292,-2.0292,-2.0292,-2.0292,-2.0292,-2.0292,-2.0292,-2.0292,-2.0292,-2.0292,-2.0292,-2.0292,-2.0292,-2.0292,-2.0292,-2.0292,-2.0292,-2.0292,-2.0292,-2.0292,-2.0292,-2.0292,-2.0292,-2.0292,-2.0292,-2.0292,-2.0292,-2.0292,-2.0292,-2.0292,-2.0283,-2.0249,-2.0249,-2.0232,-2.0189,-2.0223,-2.0129,-1.9864,-1.9674,-1.9631,-1.9333,-1.8682,-1.7916,-1.6988,-1.6608,-1.6352,-1.5499,-1.4959,-1.4883,-1.4058,-1.3541,-1.3501,-1.3519,-1.3658,-1.3857,-1.3888,-1.4002,-1.422,-1.4256,-1.4274,-1.4292,-1.4298,-1.4298,-1.4298,-1.4298,-1.4298,-1.4298,-1.4298,-1.4298,-1.4298,-1.4298,-1.4298,-1.4298,-1.4298,-1.4298,-1.4298,-1.4298,-1.4298,-1.4298,-1.4298,-1.4298,-1.4298,-1.4298,-1.4298,-1.4298,-1.4298,-1.4298,-1.4298,-1.4298,-1.4298,-1.4298,-1.4298,-1.4298,-1.4298,-1.4298,-1.4298,-1.4298,-1.4298,-1.4298,-1.4298,-1.4298,-1.4298,-1.4298,-1.4298,-1.4298,-1.4298,-1.4298,-1.4298,-1.4298,-1.4298,-1.4298,-1.4298,-1.4298,-1.4298,-2.0292,-2.0292,-2.0292,-2.0292,-2.0292,-2.0292,-2.0292,-2.0292,-2.0292,-2.0292,-2.0292,-2.0292,-2.0292,-2.0292,-2.0292,-2.0292,-2.0292,-2.0292,-2.0292,-2.0292,-2.0292,-2.0292,-2.0292,-2.0292,-2.0292,-2.0292,-2.0292,-2.0292,-2.0292,-2.0292,-2.0292,-2.0292,-2.0292,-2.0292,-2.0292,-2.0292,-2.0292,-2.0283,-2.0146,-2.0095,-2.0086,-1.9958,-1.9747,-1.9393,-1.8652,-1.7929,-1.7347,-1.6997,-1.6514,-1.5991,-1.5149,-1.4714,-1.4688,-1.4244,-1.4057,-1.4141,-1.4159,-1.4195,-1.428,-1.4298,-1.4298,-1.4298,-1.4298,-1.4298,-1.4298,-1.4298,-1.4298,-1.4298,-1.4298,-1.4298,-1.4298,-1.4298,-1.4298,-1.4298,-1.4298,-1.4298,-1.4298,-1.4298,-1.4298,-1.4298,-1.4298,-1.4298,-1.4328,-1.4304,-1.4298,-1.4298,-1.4304,-1.4316,-1.431,-1.4304,-1.4328,-1.431,-1.4298,-1.4298,-1.4298,-1.4298,-1.4298,-1.4298,-1.4298,-1.4298,-1.4298,-1.4298,-1.4298,-1.4298,-1.4298,-1.4298,-1.4304,-1.4346,-1.4334,-1.4298,-1.4298,-1.4358,-1.4298,-1.4358,-1.434,-2.0292,-2.0292,-2.0292,-2.0292,-2.0292,-2.0292,-2.0292,-2.0292,-2.0292,-2.0292,-2.0292,-2.0292,-2.0292,-2.0292,-2.0292,-2.0292,-2.0292,-2.0292,-2.0292,-2.0292,-2.0292,-2.0292,-2.0292,-2.0292,-2.0292,-2.0292,-2.0292,-2.0292,-2.0292,-2.0292,-2.0292,-2.0292,-2.0292,-2.0292,-2.0292,-2.0292,-2.0292,-2.0292,-2.0292,-2.0283,-2.0292,-2.0292,-2.0292,-2.0223,-1.9787,-1.9259,-1.8619,-1.8302,-1.7895,-1.7221,-1.6454,-1.5869,-1.5524,-1.476,-1.4298,-1.4298,-1.4298,-1.4298,-1.4298,-1.4298,-1.4298,-1.4298,-1.4298,-1.4298,-1.4298,-1.4298,-1.4298,-1.4298,-1.4298,-1.4298,-1.4298,-1.4298,-1.4298,-1.4298,-1.4298,-1.4298,-1.4298,-1.4394,-1.4485,-1.4552,-1.4401,-1.4377,-1.4509,-1.4473,-1.4497,-1.4533,-1.4558,-1.4558,-1.4558,-1.4564,-1.4558,-1.4558,-1.4594,-1.4612,-1.4636,-1.4666,-1.4443,-1.4395,-1.437,-1.4352,-1.4364,-1.4346,-1.434,-1.4322,-1.431,-1.4304,-1.4328,-1.4383,-1.4377,-1.434,-1.4419,-1.4515,-1.4479,-1.4455,-1.4509,-2.0292,-2.0292,-2.0292,-2.0292,-2.0292,-2.0292,-2.0292,-2.0292,-2.0292,-2.0292,-2.0292,-2.0292,-2.0292,-2.0292,-2.0292,-2.0292,-2.0292,-2.0292,-2.0292,-2.0292,-2.0292,-2.0292,-2.0292,-2.0292,-2.0292,-2.0292,-2.0292,-2.0292,-2.0292,-2.0292,-2.0292,-2.0292,-2.0292,-2.0292,-2.0292,-2.0292,-2.0292,-2.0292,-2.0292,-2.0292,-2.0292,-2.0292,-2.0292,-2.0292,-2.0223,-2.0198,-2.0178,-1.9289,-1.8792,-1.8579,-1.7717,-1.6814,-1.5711,-1.4806,-1.4298,-1.4298,-1.4298,-1.4298,-1.4298,-1.4298,-1.4298,-1.4298,-1.4298,-1.4298,-1.4298,-1.4298,-1.4298,-1.4298,-1.4298,-1.4304,-1.4322,-1.434,-1.4328,-1.4304,-1.4322,-1.4352,-1.4382,-1.4569,-1.4805,-1.4906,-1.468,-1.4564,-1.4871,-1.4859,-1.4793,-1.495,-1.501,-1.4998,-1.4974,-1.4974,-1.5059,-1.5059,-1.4974,-1.4908,-1.5004,-1.5071,-1.4751,-1.4503,-1.4479,-1.4461,-1.4515,-1.4527,-1.4552,-1.4539,-1.4552,-1.4552,-1.4576,-1.4618,-1.4606,-1.4594,-1.4654,-1.4708,-1.4714,-1.4733,-1.4811,-2.0292,-2.0292,-2.0292,-2.0292,-2.0292,-2.0292,-2.0292,-2.0292,-2.0292,-2.0292,-2.0292,-2.0292,-2.0292,-2.0292,-2.0292,-2.0292,-2.0292,-2.0292,-2.0292,-2.0292,-2.0292,-2.0292,-2.0292,-2.0292,-2.0292,-2.0292,-2.0292,-2.0292,-2.0292,-2.0292,-2.0292,-2.0292,-2.0292,-2.0292,-2.0292,-2.0292,-2.0292,-2.0292,-2.0292,-2.0292,-2.0292,-2.0292,-2.0292,-2.0292,-2.0292,-2.0292,-2.0292,-2.0011,-1.9492,-1.8834,-1.7855,-1.6546,-1.5092,-1.4484,-1.4298,-1.4298,-1.4298,-1.4298,-1.4298,-1.4298,-1.4298,-1.4298,-1.4298,-1.4298,-1.4298,-1.431,-1.4316,-1.431,-1.4304,-1.4358,-1.4533,-1.4588,-1.4515,-1.4322,-1.4461,-1.4588,-1.46,-1.4825,-1.4977,-1.505,-1.4952,-1.495,-1.5046,-1.501,-1.5034,-1.5119,-1.5143,-1.5143,-1.5131,-1.5167,-1.5113,-1.5113,-1.5113,-1.5185,-1.5234,-1.527,-1.5107,-1.4883,-1.4799,-1.469,-1.4714,-1.4733,-1.4757,-1.4763,-1.4775,-1.4793,-1.4823,-1.4865,-1.4865,-1.4877,-1.4944,-1.4974,-1.4986,-1.5028,-1.5089,-2.0292,-2.0292,-2.0292,-2.0292,-2.0292,-2.0292,-2.0292,-2.0292,-2.0292,-2.0292,-2.0292,-2.0292,-2.0386,-2.0489,-2.0506,-2.0506,-2.0506,-2.0514,-2.0429,-2.0309,-2.0292,-2.0292,-2.0292,-2.0292,-2.0292,-2.0292,-2.0292,-2.0292,-2.0292,-2.0292,-2.0292,-2.0292,-2.0292,-2.0292,-2.0292,-2.0292,-2.0292,-2.0292,-2.0292,-2.0292,-2.0292,-2.0292,-2.0292,-2.0292,-2.0292,-2.0292,-2.0283,-1.9965,-1.9446,-1.8696,-1.7529,-1.6123,-1.4956,-1.4532,-1.4298,-1.4298,-1.4298,-1.4298,-1.4298,-1.4298,-1.4298,-1.4298,-1.4298,-1.4358,-1.4419,-1.4455,-1.4479,-1.4582,-1.4618,-1.4672,-1.4823,-1.4859,-1.4775,-1.463,-1.4757,-1.4903,-1.4983,-1.5048,-1.52,-1.5293,-1.5206,-1.5209,-1.5336,-1.5288,-1.5312,-1.536,-1.5396,-1.5396,-1.5396,-1.5421,-1.539,-1.539,-1.5457,-1.5481,-1.5433,-1.5433,-1.5427,-1.53,-1.5185,-1.5052,-1.498,-1.498,-1.4986,-1.4974,-1.498,-1.4962,-1.4992,-1.5155,-1.5215,-1.5234,-1.5101,-1.524,-1.5252,-1.5252,-1.5312,-2.0292,-2.0292,-2.0292,-2.0292,-2.0292,-2.0292,-2.0292,-2.0292,-2.0292,-2.0317,-2.0343,-2.0386,-2.0566,-2.0848,-2.0908,-2.09,-2.0908,-2.09,-2.0746,-2.0523,-2.0446,-2.0429,-2.0309,-2.0292,-2.0292,-2.0292,-2.0292,-2.0292,-2.0292,-2.0292,-2.0292,-2.0292,-2.0292,-2.0292,-2.0292,-2.0292,-2.0292,-2.0292,-2.0292,-2.0292,-2.0292,-2.0292,-2.0292,-2.0292,-2.0292,-2.0292,-2.0192,-1.9301,-1.8696,-1.8365,-1.6633,-1.5656,-1.5473,-1.4813,-1.4298,-1.4298,-1.4298,-1.4298,-1.4298,-1.4358,-1.4364,-1.4364,-1.4419,-1.4443,-1.4696,-1.4739,-1.4805,-1.4986,-1.5028,-1.5077,-1.5107,-1.5131,-1.5119,-1.5155,-1.5143,-1.5239,-1.5448,-1.5281,-1.5421,-1.5646,-1.5491,-1.5318,-1.5753,-1.5626,-1.5656,-1.5753,-1.5807,-1.5783,-1.5783,-1.5753,-1.5843,-1.5819,-1.5734,-1.571,-1.5644,-1.5644,-1.5638,-1.559,-1.5493,-1.5403,-1.53,-1.5288,-1.5294,-1.527,-1.5221,-1.5191,-1.524,-1.5427,-1.5255,-1.4936,-1.5006,-1.5331,-1.514,-1.4717,-1.4734,-2.0292,-2.0292,-2.0292,-2.0292,-2.0292,-2.0292,-2.0292,-2.0292,-2.0292,-2.0472,-2.0668,-2.0728,-2.0925,-2.1242,-2.1276,-2.1268,-2.1268,-2.1268,-2.1242,-2.1139,-2.1114,-2.0771,-2.0386,-2.03,-2.0317,-2.0326,-2.036,-2.0292,-2.0292,-2.0343,-2.0335,-2.0292,-2.0326,-2.0309,-2.0292,-2.03,-2.0292,-2.0292,-2.0292,-2.0292,-2.0292,-2.0292,-2.0292,-2.0292,-2.0292,-2.03,-2.011,-1.8603,-1.7343,-1.6546,-1.5419,-1.4669,-1.4723,-1.4448,-1.4328,-1.4328,-1.4322,-1.431,-1.4352,-1.4503,-1.4594,-1.463,-1.4745,-1.4926,-1.4986,-1.5004,-1.504,-1.5113,-1.5113,-1.5203,-1.5348,-1.5396,-1.5475,-1.5626,-1.5505,-1.5509,-1.57,-1.5733,-1.5769,-1.587,-1.5751,-1.5753,-1.5801,-1.5831,-1.5795,-1.5861,-1.5885,-1.5885,-1.5885,-1.5885,-1.5885,-1.5885,-1.5843,-1.5861,-1.5861,-1.5861,-1.5849,-1.5825,-1.5783,-1.5747,-1.5686,-1.5674,-1.5692,-1.5704,-1.5596,-1.5541,-1.5626,-1.5765,-1.5317,-1.4733,-1.4596,-1.4657,-1.3661,-1.3081,-1.3281,-2.0292,-2.0292,-2.0292,-2.0292,-2.0292,-2.0292,-2.0292,-2.0326,-2.048,-2.0651,-2.0874,-2.1045,-2.1311,-2.1636,-2.1653,-2.1653,-2.1662,-2.1653,-2.1559,-2.1396,-2.1379,-2.1139,-2.084,-2.0763,-2.0763,-2.0763,-2.0754,-2.0771,-2.078,-2.0763,-2.0763,-2.0754,-2.0609,-2.054,-2.054,-2.036,-2.0292,-2.0292,-2.0292,-2.0292,-2.0292,-2.0292,-2.0292,-2.0292,-2.0292,-2.0207,-1.9744,-1.8348,-1.6971,-1.5886,-1.4908,-1.4298,-1.4316,-1.4419,-1.4467,-1.4479,-1.4576,-1.4648,-1.466,-1.4799,-1.4871,-1.4902,-1.504,-1.5155,-1.524,-1.5276,-1.5288,-1.5439,-1.5433,-1.5511,-1.5614,-1.5662,-1.5734,-1.5813,-1.5753,-1.5728,-1.5879,-1.5867,-1.5885,-1.5885,-1.5885,-1.5885,-1.5885,-1.5885,-1.5885,-1.5885,-1.5885,-1.5885,-1.5885,-1.5885,-1.5885,-1.5885,-1.5885,-1.5885,-1.5885,-1.5885,-1.5885,-1.5879,-1.5879,-1.5885,-1.5885,-1.5885,-1.5873,-1.5855,-1.5873,-1.5832,-1.5779,-1.5618,-1.5304,-1.4832,-1.4428,-1.3678,-1.2748,-1.1873,-1.2037,-2.0292,-2.0292,-2.0292,-2.0292,-2.03,-2.0335,-2.0394,-2.0437,-2.0771,-2.0977,-2.1105,-2.1353,-2.1687,-2.2047,-2.2047,-2.2047,-2.2055,-2.2055,-2.1859,-2.1704,-2.1627,-2.1559,-2.1542,-2.1319,-2.1285,-2.1293,-2.1379,-2.1345,-2.1276,-2.1319,-2.1362,-2.1242,-2.1037,-2.0951,-2.0883,-2.0634,-2.0437,-2.0497,-2.054,-2.0549,-2.054,-2.054,-2.0549,-2.0549,-2.0549,-2.0188,-1.9462,-1.8344,-1.7234,-1.5966,-1.4948,-1.4534,-1.4455,-1.4648,-1.4739,-1.4781,-1.492,-1.504,-1.5095,-1.5083,-1.5149,-1.5155,-1.5185,-1.5276,-1.5487,-1.5541,-1.5608,-1.5777,-1.5879,-1.5831,-1.5843,-1.5867,-1.5867,-1.5885,-1.5873,-1.5879,-1.5885,-1.5885,-1.5885,-1.5885,-1.5885,-1.5885,-1.5885,-1.5885,-1.5885,-1.5885,-1.5885,-1.5885,-1.5885,-1.5885,-1.5885,-1.5885,-1.5885,-1.5885,-1.5885,-1.5885,-1.5885,-1.5885,-1.5885,-1.5885,-1.5885,-1.5885,-1.5885,-1.5885,-1.5885,-1.5672,-1.5405,-1.5244,-1.503,-1.3997,-1.2965,-1.2585,-1.215,-1.1332,-1.1059,-2.0292,-2.0292,-2.0292,-2.0292,-2.0343,-2.0663,-2.0754,-2.0771,-2.1139,-2.1456,-2.1713,-2.1841,-2.2081,-2.2465,-2.2448,-2.2474,-2.2439,-2.2448,-2.2414,-2.2379,-2.2354,-2.2354,-2.2199,-2.1747,-2.1448,-2.1456,-2.1422,-2.1422,-2.1439,-2.1499,-2.1413,-2.1422,-2.1396,-2.1302,-2.1268,-2.1174,-2.1165,-2.1165,-2.1139,-2.1105,-2.1088,-2.1097,-2.1088,-2.1097,-2.1066,-2.0595,-1.9701,-1.8705,-1.764,-1.652,-1.5519,-1.4926,-1.4902,-1.4968,-1.5022,-1.5046,-1.5077,-1.5137,-1.5155,-1.5312,-1.5415,-1.5427,-1.5559,-1.5741,-1.5783,-1.5789,-1.5819,-1.5885,-1.5885,-1.5885,-1.5885,-1.5885,-1.5885,-1.5885,-1.5903,-1.591,-1.5891,-1.5891,-1.5885,-1.5885,-1.5885,-1.5885,-1.5885,-1.5885,-1.5885,-1.5885,-1.5885,-1.5885,-1.5885,-1.5885,-1.5885,-1.5885,-1.5885,-1.5885,-1.5885,-1.5885,-1.5885,-1.5885,-1.5885,-1.5885,-1.5885,-1.5885,-1.5885,-1.5885,-1.5885,-1.5618,-1.5351,-1.4863,-1.4648,-1.3073,-1.1764,-1.1437,-1.1114,-1.046,-1.0406,-2.0292,-2.0292,-2.0292,-2.0292,-2.0352,-2.0703,-2.0921,-2.0985,-2.1456,-2.1799,-2.2013,-2.2167,-2.2414,-2.2585,-2.2603,-2.2594,-2.2603,-2.2603,-2.2594,-2.2577,-2.2585,-2.2686,-2.271,-2.2292,-2.1944,-2.1976,-2.1953,-2.1944,-2.1944,-2.1968,-2.1978,-2.1959,-2.1773,-2.1696,-2.1627,-2.1525,-2.1379,-2.1371,-2.1405,-2.1405,-2.1405,-2.1405,-2.1405,-2.1213,-2.0933,-2.0346,-1.9976,-1.8446,-1.7634,-1.6914,-1.6078,-1.5342,-1.5185,-1.5221,-1.5288,-1.53,-1.5427,-1.5463,-1.5529,-1.559,-1.5686,-1.5674,-1.5819,-1.5861,-1.5885,-1.5885,-1.5885,-1.5885,-1.5885,-1.5885,-1.5885,-1.5885,-1.5891,-1.5916,-1.6012,-1.6066,-1.6054,-1.597,-1.5885,-1.5885,-1.5885,-1.5885,-1.5885,-1.5903,-1.5885,-1.5885,-1.5885,-1.5885,-1.5885,-1.5885,-1.5885,-1.5885,-1.5885,-1.5885,-1.5885,-1.5885,-1.5885,-1.5885,-1.5885,-1.5885,-1.5885,-1.5885,-1.5885,-1.5885,-1.5885,-1.5779,-1.5512,-1.4917,-1.4379,-1.3565,-1.2472,-1.1164,-1.0241,-0.997,-1.0076,-2.0292,-2.0292,-2.0292,-2.0292,-2.0352,-2.0711,-2.0917,-2.1079,-2.1696,-2.2013,-2.2133,-2.2474,-2.256,-2.2603,-2.2603,-2.2594,-2.2644,-2.2703,-2.2695,-2.2695,-2.2795,-2.2846,-2.2861,-2.2726,-2.2583,-2.2644,-2.2517,-2.2517,-2.2567,-2.2585,-2.2448,-2.25,-2.2244,-2.209,-2.1996,-2.179,-2.167,-2.1704,-2.1713,-2.1687,-2.167,-2.167,-2.167,-2.1533,-2.0753,-2.0168,-1.9648,-1.833,-1.7198,-1.7292,-1.6418,-1.5755,-1.5427,-1.5409,-1.5559,-1.5565,-1.5728,-1.5789,-1.5789,-1.5843,-1.5861,-1.5885,-1.5885,-1.5885,-1.5885,-1.5885,-1.5885,-1.5916,-1.5934,-1.5982,-1.5952,-1.6066,-1.606,-1.6079,-1.6235,-1.6326,-1.6308,-1.6139,-1.6091,-1.606,-1.606,-1.603,-1.5976,-1.5958,-1.5922,-1.5897,-1.5903,-1.5903,-1.5916,-1.5897,-1.5903,-1.5891,-1.5885,-1.5885,-1.5885,-1.5885,-1.5885,-1.5885,-1.5885,-1.5885,-1.5885,-1.5885,-1.5885,-1.5885,-1.5885,-1.5725,-1.5512,-1.4976,-1.4433,-1.4056,-1.2856,-1.1164,-1.0296,-0.9644,-0.975,-2.0292,-2.0292,-2.0292,-2.0292,-2.0352,-2.0711,-2.1045,-2.1371,-2.179,-2.2167,-2.2491,-2.2568,-2.2603,-2.2603,-2.2603,-2.2745,-2.2854,-2.2896,-2.2896,-2.2946,-2.3046,-2.3147,-2.2996,-2.2896,-2.2896,-2.2896,-2.2745,-2.2703,-2.2804,-2.2745,-2.2603,-2.2577,-2.2517,-2.2474,-2.2448,-2.2414,-2.2294,-2.2251,-2.2276,-2.2285,-2.2285,-2.2294,-2.2294,-2.2186,-2.1195,-2.0241,-1.9346,-1.8213,-1.7114,-1.6311,-1.5992,-1.5837,-1.5741,-1.5765,-1.5789,-1.5807,-1.5843,-1.5885,-1.5885,-1.5885,-1.5885,-1.5885,-1.5885,-1.5897,-1.5903,-1.591,-1.5958,-1.6006,-1.6115,-1.6217,-1.6223,-1.6362,-1.6519,-1.6561,-1.6573,-1.6628,-1.6616,-1.6598,-1.6561,-1.6555,-1.6398,-1.6217,-1.6187,-1.6139,-1.6109,-1.6103,-1.6091,-1.6079,-1.6066,-1.6,-1.5934,-1.591,-1.5885,-1.5885,-1.5885,-1.5885,-1.5885,-1.5885,-1.5885,-1.5885,-1.5885,-1.5885,-1.5885,-1.5885,-1.5779,-1.5618,-1.5244,-1.4976,-1.4326,-1.3727,-1.2417,-1.1055,-1.0402,-0.9805,-0.921,-2.0292,-2.0292,-2.0292,-2.0292,-2.036,-2.0711,-2.1079,-2.1448,-2.1824,-2.2251,-2.2517,-2.2603,-2.2603,-2.2603,-2.2603,-2.2745,-2.2946,-2.2996,-2.3046,-2.3197,-2.3097,-2.3147,-2.3097,-2.2946,-2.2996,-2.2996,-2.2846,-2.2644,-2.2804,-2.2653,-2.2603,-2.2603,-2.2603,-2.2603,-2.2603,-2.2577,-2.2603,-2.2603,-2.2603,-2.2603,-2.2603,-2.2603,-2.2603,-2.2342,-2.1505,-2.0364,-1.9228,-1.8153,-1.7047,-1.6152,-1.5885,-1.5885,-1.5885,-1.5885,-1.5891,-1.5897,-1.5891,-1.5885,-1.5885,-1.5885,-1.5885,-1.5885,-1.5897,-1.5964,-1.6048,-1.6109,-1.6151,-1.6296,-1.6368,-1.6495,-1.6501,-1.6646,-1.6682,-1.6724,-1.6815,-1.6893,-1.693,-1.702,-1.7044,-1.7014,-1.6748,-1.6555,-1.6483,-1.6429,-1.635,-1.6308,-1.629,-1.6266,-1.6247,-1.6175,-1.6091,-1.6072,-1.606,-1.6006,-1.6012,-1.6018,-1.6024,-1.6,-1.5988,-1.5982,-1.5958,-1.5994,-1.594,-1.5885,-1.5725,-1.5606,-1.5565,-1.5458,-1.4428,-1.3506,-1.2689,-1.1764,-1.0726,-0.9966,-0.9427,-2.0292,-2.0292,-2.0292,-2.0292,-2.0343,-2.0617,-2.1002,-2.1413,-2.173,-2.2173,-2.2568,-2.2603,-2.2603,-2.2653,-2.2703,-2.2854,-2.3055,-2.3097,-2.3197,-2.3147,-2.3046,-2.3046,-2.3097,-2.2996,-2.2896,-2.3105,-2.2846,-2.2653,-2.2754,-2.2653,-2.2603,-2.2603,-2.2603,-2.2603,-2.2603,-2.2603,-2.2603,-2.2603,-2.2603,-2.2603,-2.2603,-2.2603,-2.2603,-2.2392,-2.1302,-2.0063,-1.9176,-1.7779,-1.6842,-1.6152,-1.5885,-1.5885,-1.5885,-1.5885,-1.5916,-1.5952,-1.5922,-1.5891,-1.5897,-1.5976,-1.6006,-1.6012,-1.6042,-1.6175,-1.629,-1.6386,-1.6447,-1.6658,-1.6767,-1.6773,-1.6779,-1.6845,-1.6875,-1.6923,-1.7068,-1.7177,-1.7213,-1.728,-1.7352,-1.7249,-1.702,-1.6881,-1.6791,-1.6616,-1.6519,-1.6513,-1.6495,-1.6507,-1.6483,-1.6423,-1.6356,-1.632,-1.6272,-1.6187,-1.6181,-1.6217,-1.6235,-1.626,-1.6247,-1.6247,-1.6193,-1.6145,-1.6091,-1.606,-1.6018,-1.5941,-1.597,-1.5897,-1.5185,-1.4374,-1.3452,-1.2694,-1.2146,-1.0895,-0.986,-2.0292,-2.0292,-2.0292,-2.0292,-2.03,-2.036,-2.078,-2.1379,-2.1482,-2.1901,-2.2603,-2.2603,-2.2603,-2.2703,-2.2846,-2.3105,-2.3247,-2.3297,-2.3206,-2.3147,-2.3147,-2.3097,-2.3105,-2.3046,-2.2896,-2.3005,-2.2745,-2.2754,-2.2804,-2.2703,-2.2603,-2.2603,-2.2603,-2.2603,-2.2603,-2.2603,-2.2603,-2.2603,-2.2603,-2.2603,-2.2603,-2.2603,-2.2603,-2.2072,-2.0885,-1.9591,-1.9124,-1.7667,-1.6418,-1.5992,-1.5885,-1.5885,-1.5885,-1.5885,-1.6024,-1.6091,-1.6048,-1.5891,-1.5976,-1.6127,-1.6235,-1.6278,-1.641,-1.6585,-1.6646,-1.6688,-1.6718,-1.6682,-1.6899,-1.7038,-1.7086,-1.7237,-1.7334,-1.734,-1.7334,-1.7394,-1.7424,-1.7376,-1.7467,-1.7473,-1.7243,-1.7153,-1.7074,-1.6863,-1.6688,-1.6694,-1.6706,-1.6736,-1.673,-1.6694,-1.6567,-1.6513,-1.6489,-1.641,-1.6368,-1.6404,-1.6435,-1.6483,-1.6483,-1.6483,-1.6435,-1.6374,-1.6374,-1.6338,-1.6278,-1.6187,-1.6121,-1.6042,-1.5833,-1.5137,-1.3997,-1.384,-1.3948,-1.2368,-1.0574,-2.0292,-2.0292,-2.0292,-2.0292,-2.0292,-2.0292,-2.072,-2.1302,-2.1413,-2.1833,-2.25,-2.2603,-2.2703,-2.2846,-2.3097,-2.3247,-2.3347,-2.3247,-2.3247,-2.3105,-2.3046,-2.2937,-2.2946,-2.2846,-2.2795,-2.2745,-2.2695,-2.2644,-2.2695,-2.2695,-2.2603,-2.2603,-2.2603,-2.2603,-2.2603,-2.2603,-2.2603,-2.2603,-2.2603,-2.2603,-2.2603,-2.2603,-2.2603,-2.2603,-2.1514,-2.0423,-1.9176,-1.8499,-1.7041,-1.6358,-1.5885,-1.5885,-1.5934,-1.6024,-1.6181,-1.6247,-1.635,-1.6356,-1.638,-1.6465,-1.6501,-1.6531,-1.6652,-1.6736,-1.6887,-1.7044,-1.7123,-1.7153,-1.7243,-1.7298,-1.7304,-1.7412,-1.7455,-1.7485,-1.7485,-1.7485,-1.7485,-1.7485,-1.7485,-1.7485,-1.7473,-1.7364,-1.7286,-1.7189,-1.7056,-1.7074,-1.7092,-1.7123,-1.7086,-1.7014,-1.6857,-1.6664,-1.6652,-1.6634,-1.661,-1.661,-1.6616,-1.6646,-1.6646,-1.6646,-1.6646,-1.6628,-1.664,-1.661,-1.6543,-1.6441,-1.6308,-1.6091,-1.5851,-1.5242,-1.4546,-1.4445,-1.4272,-1.3162,-1.1498,-2.0736,-2.0555,-2.0374,-2.0292,-2.0292,-2.0292,-2.072,-2.1362,-2.1405,-2.1833,-2.2439,-2.2603,-2.2745,-2.2996,-2.3155,-2.3256,-2.3247,-2.3097,-2.3097,-2.2996,-2.2846,-2.2745,-2.2745,-2.2695,-2.2653,-2.2603,-2.2653,-2.2653,-2.2603,-2.2603,-2.2603,-2.2603,-2.2603,-2.2603,-2.2603,-2.2603,-2.2603,-2.2603,-2.2603,-2.2603,-2.2603,-2.2603,-2.2603,-2.2443,-2.1928,-2.0936,-1.948,-1.8342,-1.714,-1.6476,-1.6012,-1.6054,-1.6163,-1.6308,-1.6453,-1.6549,-1.6682,-1.6815,-1.6827,-1.6857,-1.6815,-1.6815,-1.6887,-1.7032,-1.7165,-1.7388,-1.7479,-1.7418,-1.7436,-1.7461,-1.7479,-1.7479,-1.7479,-1.7485,-1.7485,-1.7485,-1.7485,-1.7485,-1.7485,-1.7485,-1.7485,-1.7485,-1.743,-1.7455,-1.7443,-1.7455,-1.7479,-1.7485,-1.7394,-1.7267,-1.7165,-1.6972,-1.6984,-1.6984,-1.6966,-1.693,-1.6893,-1.6857,-1.6851,-1.6893,-1.6948,-1.6948,-1.6948,-1.6893,-1.6809,-1.6682,-1.6549,-1.6198,-1.5886,-1.5703,-1.5427,-1.4746,-1.4221,-1.3332,-1.2372,-2.1872,-2.1266,-2.0555,-2.0292,-2.0292,-2.0292,-2.072,-2.1353,-2.1388,-2.1841,-2.2542,-2.2653,-2.2804,-2.2946,-2.3046,-2.3097,-2.3046,-2.2996,-2.2896,-2.2745,-2.2603,-2.2653,-2.2653,-2.2653,-2.2603,-2.2603,-2.2603,-2.2603,-2.2603,-2.2603,-2.2603,-2.2603,-2.2603,-2.2603,-2.2603,-2.2603,-2.2603,-2.2603,-2.2603,-2.2603,-2.2603,-2.2603,-2.2603,-2.2131,-2.0783,-1.9332,-1.9072,-1.784,-1.67,-1.6357,-1.626,-1.6338,-1.6483,-1.6604,-1.6736,-1.6875,-1.6996,-1.7141,-1.7225,-1.7159,-1.7074,-1.7129,-1.7225,-1.7328,-1.7382,-1.7436,-1.7485,-1.7485,-1.7485,-1.7485,-1.7485,-1.7485,-1.7485,-1.7485,-1.7485,-1.7485,-1.7485,-1.7485,-1.7485,-1.7485,-1.7485,-1.7485,-1.7485,-1.7485,-1.7485,-1.7485,-1.7485,-1.7485,-1.7485,-1.7394,-1.7418,-1.7352,-1.737,-1.7382,-1.7394,-1.7334,-1.7213,-1.7189,-1.7195,-1.7261,-1.734,-1.7316,-1.7195,-1.7141,-1.705,-1.6917,-1.6821,-1.6656,-1.6584,-1.6584,-1.6319,-1.5672,-1.506,-1.4345,-1.3135,-2.1615,-2.1302,-2.0609,-2.0292,-2.0292,-2.0292,-2.0591,-2.1071,-2.1319,-2.1841,-2.2603,-2.2754,-2.2896,-2.2946,-2.2996,-2.2996,-2.2996,-2.2795,-2.2703,-2.2653,-2.2603,-2.2603,-2.2603,-2.2603,-2.2603,-2.2603,-2.2603,-2.2603,-2.2603,-2.2603,-2.2603,-2.2603,-2.2603,-2.2603,-2.2603,-2.2603,-2.2611,-2.2611,-2.2603,-2.2603,-2.2603,-2.2603,-2.2603,-2.2443,-2.2357,-2.0719,-1.9708,-1.8985,-1.783,-1.6888,-1.6593,-1.6634,-1.6748,-1.6869,-1.699,-1.7117,-1.7225,-1.7364,-1.7436,-1.7382,-1.734,-1.734,-1.7424,-1.7485,-1.7485,-1.7485,-1.7485,-1.7485,-1.7485,-1.7485,-1.7485,-1.7485,-1.7485,-1.7485,-1.7485,-1.7485,-1.7485,-1.7485,-1.7485,-1.7485,-1.7485,-1.7485,-1.7485,-1.7485,-1.7485,-1.7485,-1.7485,-1.7485,-1.7485,-1.7485,-1.7485,-1.7485,-1.7485,-1.7485,-1.7485,-1.7485,-1.7485,-1.7485,-1.7485,-1.7485,-1.7485,-1.7467,-1.737,-1.7334,-1.7304,-1.7155,-1.7107,-1.7183,-1.7092,-1.6905,-1.6773,-1.6546,-1.5925,-1.5243,-1.3779,-2.157,-2.1311,-2.0609,-2.0292,-2.0292,-2.0292,-2.0514,-2.09,-2.1259,-2.1833,-2.2585,-2.2795,-2.2896,-2.2846,-2.2846,-2.2846,-2.2795,-2.2695,-2.2653,-2.2603,-2.2603,-2.2603,-2.2603,-2.2603,-2.2603,-2.2603,-2.2603,-2.2603,-2.2603,-2.2603,-2.2603,-2.2603,-2.2603,-2.2603,-2.2603,-2.2611,-2.2654,-2.2731,-2.2637,-2.2791,-2.2869,-2.2834,-2.2903,-2.2852,-2.2641,-2.1552,-2.0154,-1.9259,-1.8388,-1.7378,-1.6827,-1.6869,-1.6978,-1.7086,-1.7189,-1.7274,-1.7416,-1.7479,-1.7485,-1.7485,-1.7485,-1.7455,-1.7461,-1.7485,-1.7485,-1.7485,-1.7485,-1.7485,-1.7485,-1.7485,-1.7485,-1.7485,-1.7485,-1.7485,-1.7485,-1.7485,-1.7485,-1.7485,-1.7485,-1.7485,-1.7485,-1.7485,-1.7485,-1.7485,-1.7485,-1.7485,-1.7485,-1.7485,-1.7485,-1.7485,-1.7485,-1.7485,-1.7485,-1.7485,-1.7485,-1.7485,-1.7485,-1.7485,-1.7485,-1.7485,-1.7485,-1.7485,-1.7485,-1.7424,-1.736,-1.7291,-1.7138,-1.6938,-1.697,-1.7044,-1.6921,-1.6795,-1.6051,-1.5226,-1.4015,-2.1961,-2.1311,-2.06,-2.0292,-2.0292,-2.0292,-2.0506,-2.0848,-2.1251,-2.1841,-2.2551,-2.2644,-2.2644,-2.2653,-2.2644,-2.2695,-2.2703,-2.2653,-2.2603,-2.2603,-2.2603,-2.2603,-2.2603,-2.2603,-2.2603,-2.2603,-2.2603,-2.2603,-2.2603,-2.2603,-2.2603,-2.2628,-2.2654,-2.2688,-2.262,-2.262,-2.28,-2.2997,-2.2808,-2.31,-2.3358,-2.322,-2.3271,-2.2919,-2.2609,-2.1533,-2.0044,-1.9264,-1.8381,-1.7393,-1.7086,-1.7171,-1.7334,-1.7545,-1.7652,-1.767,-1.7683,-1.7596,-1.7543,-1.7485,-1.7485,-1.7485,-1.7485,-1.7485,-1.7485,-1.7485,-1.7485,-1.7485,-1.7485,-1.7485,-1.7485,-1.7485,-1.7485,-1.7485,-1.7485,-1.7485,-1.7485,-1.7485,-1.7485,-1.7485,-1.7485,-1.7485,-1.7485,-1.7485,-1.7485,-1.7485,-1.7485,-1.7485,-1.7485,-1.7485,-1.7485,-1.7485,-1.7485,-1.7485,-1.7485,-1.7485,-1.7485,-1.7485,-1.7485,-1.7485,-1.7485,-1.7485,-1.7485,-1.7485,-1.7361,-1.7244,-1.6885,-1.6568,-1.6272,-1.6059,-1.6862,-1.6827,-1.611,-1.4978,-1.3584,-2.2006,-2.1356,-2.06,-2.0292,-2.0292,-2.0292,-2.0386,-2.0583,-2.1148,-2.1841,-2.2491,-2.2603,-2.2603,-2.2603,-2.2603,-2.2603,-2.2603,-2.2603,-2.2603,-2.2603,-2.2603,-2.2603,-2.2603,-2.2603,-2.2603,-2.2603,-2.2603,-2.2603,-2.2603,-2.2603,-2.2603,-2.2628,-2.2843,-2.292,-2.3014,-2.3117,-2.3443,-2.3443,-2.3426,-2.3478,-2.3675,-2.3571,-2.3229,-2.2679,-2.2435,-2.1493,-1.9856,-1.9359,-1.879,-1.7813,-1.7658,-1.7668,-1.7935,-1.8175,-1.8693,-1.8687,-1.8687,-1.8286,-1.7772,-1.7485,-1.7485,-1.7485,-1.7485,-1.7485,-1.7485,-1.7485,-1.7485,-1.7485,-1.7485,-1.7485,-1.7485,-1.7485,-1.7485,-1.7485,-1.7485,-1.7485,-1.7485,-1.7485,-1.7485,-1.7485,-1.7485,-1.7485,-1.7485,-1.7485,-1.7485,-1.7485,-1.7485,-1.7485,-1.7485,-1.7485,-1.7485,-1.7485,-1.7485,-1.7485,-1.7485,-1.7485,-1.7485,-1.7485,-1.7485,-1.7485,-1.7485,-1.742,-1.7303,-1.7179,-1.7179,-1.7179,-1.6225,-1.5451,-1.4976,-1.4966,-1.5575,-1.593,-1.5316,-1.3999,-1.2509,-2.2369,-2.1695,-2.1212,-2.0862,-2.0645,-2.0428,-2.036,-2.0583,-2.1148,-2.1773,-2.2328,-2.2525,-2.2603,-2.2603,-2.2603,-2.2603,-2.2603,-2.2603,-2.2603,-2.2603,-2.2603,-2.2603,-2.2603,-2.2603,-2.2603,-2.2603,-2.2603,-2.2603,-2.2603,-2.2603,-2.2603,-2.2723,-2.304,-2.3263,-2.3383,-2.3528,-2.3708,-2.3734,-2.3734,-2.3776,-2.3956,-2.3937,-2.3617,-2.329,-2.2962,-2.2411,-2.0945,-2.0216,-1.9947,-1.9029,-1.868,-1.868,-1.8971,-1.937,-1.9947,-1.9947,-1.9377,-1.8745,-1.783,-1.7485,-1.7485,-1.7485,-1.7485,-1.7485,-1.7485,-1.7485,-1.7485,-1.7485,-1.7485,-1.7485,-1.7485,-1.7485,-1.7485,-1.7485,-1.7485,-1.7485,-1.7485,-1.7485,-1.7485,-1.7485,-1.7485,-1.7485,-1.7485,-1.7485,-1.7485,-1.7485,-1.7485,-1.7485,-1.7485,-1.7485,-1.7485,-1.7485,-1.7485,-1.7485,-1.7485,-1.7485,-1.7485,-1.7485,-1.7485,-1.7485,-1.7185,-1.7067,-1.7003,-1.6703,-1.6048,-1.5451,-1.4857,-1.4262,-1.3665,-1.3545,-1.3904,-1.4143,-1.4262,-1.3126,-1.1631,-2.3038,-2.2448,-2.2394,-2.1961,-2.1311,-2.06,-2.0497,-2.0891,-2.1251,-2.1636,-2.203,-2.2457,-2.2594,-2.2603,-2.2603,-2.2603,-2.2603,-2.2603,-2.2603,-2.2603,-2.2603,-2.2603,-2.2603,-2.2603,-2.2603,-2.2603,-2.2603,-2.2603,-2.2603,-2.2603,-2.2603,-2.2766,-2.3298,-2.3494,-2.3622,-2.3828,-2.4008,-2.4127,-2.4085,-2.4213,-2.4427,-2.4338,-2.4137,-2.3933,-2.3836,-2.3231,-2.234,-2.1926,-2.1593,-2.108,-2.0787,-2.0902,-2.1016,-2.1123,-2.113,-2.0787,-1.9947,-1.8971,-1.7772,-1.7485,-1.7485,-1.7485,-1.7485,-1.7485,-1.7485,-1.7485,-1.7485,-1.7485,-1.7485,-1.7485,-1.7485,-1.7485,-1.7485,-1.7485,-1.7485,-1.7485,-1.7485,-1.7485,-1.7485,-1.7485,-1.7485,-1.7485,-1.7485,-1.7485,-1.7485,-1.7485,-1.7485,-1.7485,-1.7485,-1.7485,-1.7485,-1.7485,-1.7485,-1.7485,-1.7485,-1.7485,-1.7485,-1.7485,-1.7485,-1.7426,-1.7067,-1.6649,-1.6349,-1.5747,-1.45,-1.3725,-1.3426,-1.2946,-1.229,-1.229,-1.2346,-1.2651,-1.2826,-1.2225,-1.1031,-2.3081,-2.2438,-2.2394,-2.2006,-2.1356,-2.06,-2.0514,-2.0946,-2.1259,-2.1627,-2.2021,-2.2431,-2.2568,-2.2603,-2.2603,-2.2603,-2.2603,-2.2603,-2.2603,-2.2603,-2.2603,-2.2603,-2.2603,-2.2603,-2.2603,-2.2603,-2.2603,-2.2603,-2.2603,-2.2603,-2.2603,-2.2723,-2.3331,-2.3605,-2.3888,-2.4213,-2.4436,-2.4538,-2.4436,-2.4581,-2.4727,-2.4667,-2.4386,-2.4039,-2.3896,-2.3207,-2.2451,-2.2104,-2.165,-2.1415,-2.1187,-2.113,-2.113,-2.182,-2.2281,-2.1187,-2.0508,-1.9768,-1.8,-1.7485,-1.7485,-1.7485,-1.7485,-1.7485,-1.7485,-1.7485,-1.7485,-1.7485,-1.7485,-1.7485,-1.7509,-1.7515,-1.7503,-1.7485,-1.7503,-1.7527,-1.7521,-1.7485,-1.7485,-1.7485,-1.7485,-1.7485,-1.7485,-1.7485,-1.7485,-1.7485,-1.7485,-1.7485,-1.7485,-1.7485,-1.7485,-1.7485,-1.7485,-1.7485,-1.7485,-1.7485,-1.7485,-1.7485,-1.7485,-1.7361,-1.6944,-1.6467,-1.5871,-1.4733,-1.3241,-1.2586,-1.229,-1.1692,-1.1148,-1.0664,-1.0664,-1.1027,-1.1273,-1.091,-1.0607,-2.3624,-2.3236,-2.3256,-2.2862,-2.2113,-2.1186,-2.0893,-2.1101,-2.1178,-2.1413,-2.179,-2.215,-2.2457,-2.2594,-2.2603,-2.2603,-2.2603,-2.2603,-2.2603,-2.2603,-2.2603,-2.2603,-2.2603,-2.2603,-2.2603,-2.2603,-2.2603,-2.2603,-2.2603,-2.262,-2.2628,-2.2903,-2.3434,-2.3708,-2.4025,-2.4436,-2.4735,-2.4795,-2.4795,-2.4821,-2.4821,-2.4821,-2.4303,-2.3896,-2.3672,-2.3143,-2.262,-2.2451,-2.2507,-2.2507,-2.2564,-2.2564,-2.2459,-2.2974,-2.2394,-2.1301,-2.0393,-1.9312,-1.783,-1.7485,-1.7485,-1.7485,-1.7485,-1.7485,-1.7485,-1.7485,-1.7485,-1.7485,-1.7485,-1.7491,-1.7527,-1.7557,-1.7527,-1.7497,-1.7539,-1.7587,-1.7545,-1.7491,-1.7485,-1.7485,-1.7485,-1.7485,-1.7485,-1.7485,-1.7485,-1.7485,-1.7485,-1.7485,-1.7485,-1.7485,-1.7485,-1.7485,-1.7485,-1.7485,-1.7485,-1.7485,-1.7485,-1.7485,-1.7485,-1.7303,-1.6826,-1.5634,-1.4376,-1.3117,-1.186,-1.1446,-1.1148,-1.0604,-1.0061,-0.9819,-0.9819,-1.0243,-1.0547,-1.0368,-1.0065,-2.4507,-2.4444,-2.4411,-2.3927,-2.3319,-2.2024,-2.1454,-2.1392,-2.123,-2.1195,-2.1496,-2.1841,-2.2276,-2.2542,-2.2603,-2.2603,-2.2603,-2.2603,-2.2603,-2.2603,-2.2603,-2.2603,-2.2603,-2.2603,-2.2603,-2.2603,-2.2603,-2.2603,-2.2603,-2.2628,-2.2783,-2.3126,-2.3477,-2.3802,-2.4179,-2.4581,-2.4812,-2.4821,-2.4821,-2.4821,-2.4821,-2.4821,-2.4821,-2.4765,-2.471,-2.459,-2.4654,-2.471,-2.4821,-2.4765,-2.471,-2.4535,-2.4184,-2.3776,-2.2677,-2.1415,-2.0451,-1.9087,-1.8,-1.7485,-1.7485,-1.7485,-1.7485,-1.7485,-1.7485,-1.7485,-1.7485,-1.7485,-1.7485,-1.7563,-1.7618,-1.7702,-1.7714,-1.7762,-1.7835,-1.7847,-1.7805,-1.7702,-1.7569,-1.7545,-1.7485,-1.7485,-1.7485,-1.7485,-1.7485,-1.7485,-1.7485,-1.7485,-1.7485,-1.7485,-1.7485,-1.7485,-1.7485,-1.7485,-1.7485,-1.7485,-1.7485,-1.7485,-1.7485,-1.6944,-1.629,-1.4614,-1.2706,-1.1683,-1.0781,-1.0361,-1.0001,-0.9819,-0.9819,-0.9819,-0.9819,-0.9819,-0.9822,-0.9883,-0.9822,-2.4507,-2.4464,-2.3937,-2.3634,-2.3406,-2.2545,-2.1882,-2.1454,-2.1885,-2.1796,-2.1531,-2.1856,-2.2251,-2.266,-2.2653,-2.2603,-2.2603,-2.2603,-2.2603,-2.2603,-2.2603,-2.2603,-2.2603,-2.2603,-2.2603,-2.2603,-2.2603,-2.2603,-2.2603,-2.2645,-2.28,-2.3134,-2.3502,-2.3879,-2.429,-2.4667,-2.4812,-2.4821,-2.4821,-2.4821,-2.4821,-2.4821,-2.4821,-2.4821,-2.4821,-2.4821,-2.4821,-2.4821,-2.4821,-2.4765,-2.4821,-2.4765,-2.4765,-2.4423,-2.3199,-2.1536,-2.0565,-1.9196,-1.811,-1.7485,-1.7485,-1.7485,-1.7485,-1.7485,-1.7485,-1.7485,-1.7485,-1.7485,-1.7533,-1.763,-1.7738,-1.7835,-1.7937,-1.804,-1.8137,-1.8112,-1.8076,-1.7895,-1.7702,-1.7618,-1.7539,-1.7503,-1.7509,-1.7485,-1.7485,-1.7485,-1.7485,-1.7485,-1.7485,-1.7485,-1.7485,-1.7485,-1.7485,-1.7485,-1.7485,-1.7485,-1.7485,-1.7485,-1.7485,-1.6703,-1.5747,-1.36,-1.1567,-1.0725,-0.9879,-0.9819,-0.9819,-0.9819,-0.9819,-0.9819,-0.9819,-0.9819,-0.9819,-0.9822,-0.9822,-2.4507,-2.4454,-2.411,-2.3937,-2.3807,-2.3169,-2.2687,-2.2378,-2.2403,-2.2314,-2.2136,-2.224,-2.2512,-2.2918,-2.2795,-2.2653,-2.2653,-2.2603,-2.2603,-2.2603,-2.2603,-2.2603,-2.2603,-2.2603,-2.2603,-2.2603,-2.2603,-2.2603,-2.2603,-2.2654,-2.2826,-2.3263,-2.3631,-2.3948,-2.4338,-2.4718,-2.4821,-2.4821,-2.4821,-2.4821,-2.4821,-2.4821,-2.4821,-2.4821,-2.4821,-2.4821,-2.4821,-2.4821,-2.4821,-2.4821,-2.4821,-2.4821,-2.4423,-2.3496,-2.2451,-2.113,-1.9984,-1.8906,-1.7941,-1.7485,-1.7485,-1.7485,-1.7485,-1.7485,-1.7485,-1.7485,-1.7485,-1.7497,-1.7672,-1.7781,-1.7931,-1.8046,-1.8143,-1.8245,-1.8348,-1.839,-1.8281,-1.8118,-1.8022,-1.7986,-1.7865,-1.7708,-1.7666,-1.7527,-1.7515,-1.7491,-1.7491,-1.7503,-1.7503,-1.7521,-1.7509,-1.7485,-1.7485,-1.7485,-1.7485,-1.7485,-1.7485,-1.7485,-1.7485,-1.629,-1.5035,-1.2522,-1.0543,-1.0183,-0.994,-0.9819,-0.9819,-0.9819,-0.9819,-0.9819,-0.9819,-0.9819,-0.9819,-0.9819,-0.9819,-2.4507,-2.4507,-2.4507,-2.4507,-2.4411,-2.3894,-2.358,-2.3484,-2.3028,-2.303,-2.3322,-2.3075,-2.3316,-2.3341,-2.3238,-2.2937,-2.2795,-2.2946,-2.2846,-2.2653,-2.2603,-2.2603,-2.2603,-2.2603,-2.2603,-2.2603,-2.2603,-2.2603,-2.2603,-2.2645,-2.2903,-2.3521,-2.3794,-2.4033,-2.4547,-2.4804,-2.4821,-2.4821,-2.4821,-2.4821,-2.4821,-2.4821,-2.4821,-2.4821,-2.4821,-2.4821,-2.4821,-2.4821,-2.4821,-2.4821,-2.4765,-2.4535,-2.4072,-2.2974,-2.1714,-2.0565,-1.9363,-1.8338,-1.7596,-1.7485,-1.7485,-1.7485,-1.7485,-1.7485,-1.7485,-1.7485,-1.7485,-1.7569,-1.7738,-1.7937,-1.8088,-1.8269,-1.8372,-1.8487,-1.8595,-1.8632,-1.8487,-1.8348,-1.833,-1.8306,-1.8131,-1.795,-1.7835,-1.769,-1.7605,-1.7569,-1.7545,-1.7539,-1.7551,-1.7593,-1.7605,-1.7539,-1.7485,-1.7485,-1.7485,-1.7485,-1.7485,-1.7485,-1.7303,-1.5935,-1.4441,-1.2466,-1.1088,-1.0422,-1.0183,-0.9879,-0.9819,-0.9819,-0.9819,-0.9819,-0.9819,-0.9819,-0.9819,-0.9819,-0.9819,-2.4507,-2.4507,-2.4507,-2.4507,-2.4497,-2.4368,-2.4176,-2.4102,-2.4509,-2.479,-2.4788,-2.4852,-2.4687,-2.417,-2.4429,-2.4156,-2.3479,-2.3438,-2.2996,-2.2695,-2.2644,-2.2603,-2.2603,-2.2603,-2.2603,-2.2603,-2.2603,-2.2603,-2.2603,-2.262,-2.2808,-2.3237,-2.3649,-2.3905,-2.4299,-2.4573,-2.4821,-2.4821,-2.4821,-2.4821,-2.4821,-2.4821,-2.4821,-2.4821,-2.4821,-2.4821,-2.4821,-2.4821,-2.4821,-2.4821,-2.4765,-2.4303,-2.3496,-2.2636,-2.1487,-2.0113,-1.8855,-1.8227,-1.7772,-1.7543,-1.7485,-1.7485,-1.7485,-1.7485,-1.7485,-1.7485,-1.7497,-1.7539,-1.7726,-1.8004,-1.8203,-1.8493,-1.865,-1.8801,-1.8927,-1.8819,-1.8686,-1.8607,-1.8565,-1.8456,-1.8306,-1.8221,-1.8185,-1.8046,-1.7925,-1.7889,-1.7853,-1.7841,-1.7805,-1.7768,-1.7732,-1.7654,-1.7569,-1.7485,-1.7485,-1.7485,-1.7485,-1.7485,-1.7185,-1.6113,-1.4738,-1.3006,-1.1748,-1.1027,-1.0304,-0.9819,-0.9819,-0.9819,-0.9819,-0.9819,-0.9819,-0.9819,-0.9819,-0.9758,-0.9761]}]]